[[{"header":{"parameterUnit":"m.s-1","parameterCategory":1,"la1":31.0,"la2":29.5877,"lo1":-88.7671,"lo2":-86.6584,"dy":0.0162,"dx":0.0185,"nx":115,"ny":88,"refTime":"2024-09-27T12:00:00:Z","depth":0,"parameterNumber":2,"parameterNumberName":"U-component_of_WINDS"},"data":[0.0,0.0,0.0,0.0,0.0,0.0,0.0,0.0,0.0,0.0,0.0,0.0,0.0,0.0,0.0,0.0,0.0,0.0,0.0,0.0,0.0,0.0,0.0,0.0,0.0,0.0,0.0,0.0,0.0,0.0,0.0,0.0,0.0,0.0,0.0,0.0,0.0,0.0,0.0,0.0,0.0,0.0,0.0,0.0,0.0,0.0,0.0,0.0,0.0,0.0,0.0,0.0,0.0,0.0,0.0,0.0,0.0,0.0,0.0,0.0,0.0,0.0,0.0,0.0,0.0,0.0,0.0,0.0,0.0,0.0,0.0,0.0,0.0,0.0,0.0,0.0,0.0,0.0,0.0,0.0,0.0,0.0,0.0,0.0,0.0,0.0,0.0,0.0,0.0,0.0,0.0,0.0,0.0,0.0,0.0,0.0,0.0,0.0,0.0,0.0,0.0,0.0,0.0,0.0,0.0,0.0,0.0,0.0,0.0,0.0,0.0,0.0,0.0,0.0,0.0,0.0,0.0,0.0,0.0,0.0,0.0,0.0,0.0,0.0,0.0,0.0,0.0,0.0,0.0,0.0,0.0,0.0,0.0,0.0,0.0,0.0,0.0,0.0,0.0,0.0,0.0,0.0,0.0,0.0,0.0,0.0,0.0,0.0,0.0,0.0,0.0,0.0,0.0,0.0,0.0,0.0,0.0,0.0,0.0,0.0,0.0,0.0,0.0,0.0,0.0,0.0,0.0,0.0,0.0,0.0,0.0,0.0,0.0,0.0,0.0,0.0,0.0,0.0,0.0,0.0,0.0,0.0,0.0,0.0,0.0,0.0,0.0,0.0,0.0,0.0,0.0,0.0,0.0,0.0,0.0,0.0,0.0,0.0,0.0,0.0,0.0,0.0,0.0,0.0,0.0,0.0,0.0,0.0,0.0,0.0,0.0,0.0,0.0,0.0,0.0,0.0,0.0,0.0,0.0,0.0,0.0,0.0,0.0,0.0,0.0,0.0,0.0,0.0,0.0,0.0,0.0,0.0,0.0,0.0,0.0,0.0,0.0,0.0,0.0,0.0,0.0,0.0,0.0,0.0,0.0,0.0,0.0,0.0,0.0,0.0,0.0,0.0,0.0,0.0,0.0,0.0,0.0,0.0,0.0,0.0,0.0,0.0,0.0,0.0,0.0,0.0,0.0,0.0,0.0,0.0,0.0,0.0,0.0,0.0,0.0,0.0,0.0,0.0,0.0,0.0,0.0,0.0,0.0,0.0,0.0,0.0,0.0,0.0,0.0,0.0,0.0,0.0,0.0,0.0,0.0,0.0,0.0,0.0,0.0,0.0,0.0,0.0,0.0,0.0,0.0,0.0,0.0,0.0,0.0,0.0,0.0,0.0,0.0,0.0,0.0,0.0,0.0,0.0,0.0,0.0,0.0,0.0,0.0,0.0,0.0,0.0,0.0,0.0,0.0,0.0,0.0,0.0,0.0,0.0,0.0,0.0,0.0,0.0,0.0,0.0,0.0,0.0,0.0,0.0,0.0,0.0,0.0,0.0,0.0,0.0,0.0,0.0,0.0,0.0,0.0,0.0,0.0,0.0,0.0,0.0,0.0,0.0,0.0,0.0,0.0,0.0,0.0,0.0,0.0,0.0,0.0,0.0,0.0,0.0,0.0,0.0,0.0,0.0,0.0,0.0,0.0,0.0,0.0,0.0,0.0,0.0,0.0,0.0,0.0,0.0,0.0,0.0,0.0,0.0,0.0,0.0,0.0,0.0,0.0,0.0,0.0,0.0,0.0,0.0,0.0,0.0,0.0,0.0,0.0,0.0,0.0,0.0,0.0,0.0,0.0,0.0,0.0,0.0,0.0,0.0,0.0,0.0,0.0,0.0,0.0,0.0,0.0,0.0,0.0,0.0,0.0,0.0,0.0,0.0,0.0,0.0,0.0,0.0,0.0,0.0,0.0,0.0,0.0,0.0,0.0,0.0,0.0,0.0,0.0,0.0,0.0,0.0,0.0,0.0,0.0,0.0,0.0,0.0,0.0,0.0,0.0,0.0,0.0,0.0,0.0,0.0,0.0,0.0,0.0,0.0,0.0,0.0,0.0,0.0,0.0,0.0,0.0,0.0,0.0,0.0,0.0,0.0,0.0,0.0,0.0,0.0,0.0,0.0,0.0,0.0,0.0,0.0,0.0,0.0,0.0,0.0,0.0,0.0,0.0,0.0,0.0,0.0,0.0,0.0,0.0,0.0,0.0,0.0,0.0,0.0,0.0,0.0,0.0,0.0,0.0,0.0,0.0,0.0,0.0,0.0,0.0,0.0,0.0,0.0,0.0,0.0,0.0,0.0,0.0,0.0,0.0,0.0,0.0,0.0,0.0,0.0,0.0,0.0,0.0,0.0,0.0,0.0,0.0,0.0,0.0,0.0,0.0,0.0,0.0,0.0,0.0,0.0,0.0,0.0,0.0,0.0,0.0,0.0,0.0,0.0,0.0,0.0,0.0,0.0,0.0,0.0,0.0,0.0,0.0,0.0,0.0,0.0,0.0,0.0,0.0,0.0,0.0,0.0,0.0,0.0,0.0,0.0,0.0,0.0,0.0,0.0,0.0,0.0,0.0,0.0,0.0,0.0,0.0,0.0,0.0,0.0,0.0,0.0,0.0,0.0,0.0,0.0,0.0,0.0,0.0,0.0,0.0,0.0,0.0,0.0,0.0,0.0,0.0,0.0,0.0,0.0,0.0,0.0,0.0,0.0,0.0,0.0,0.0,0.0,0.0,0.0,0.0,0.0,0.0,0.0,0.0,0.0,0.0,0.0,0.0,0.0,0.0,0.0,0.0,0.0,0.0,0.0,0.0,0.0,0.0,0.0,0.0,0.0,0.0,0.0,0.0,0.0,0.0,0.0,0.0,0.0,0.0,0.0,0.0,0.0,0.0,0.0,0.0,0.0,0.0,0.0,0.0,0.0,0.0,0.0,0.0,0.0,0.0,0.0,0.0,0.0,0.0,0.0,0.0,0.0,0.0,0.0,0.0,0.0,0.0,0.0,0.0,0.0,0.0,0.0,0.0,0.0,0.0,0.0,0.0,0.0,0.0,0.0,0.0,0.0,0.0,0.0,0.0,0.0,0.0,0.0,0.0,0.0,0.0,0.0,0.0,0.0,0.0,0.0,0.0,0.0,0.0,0.0,0.0,0.0,0.0,0.0,0.0,0.0,0.0,0.0,0.0,0.0,0.0,0.0,0.0,0.0,0.0,0.0,0.0,0.0,0.0,0.0,0.0,0.0,0.0,0.0,0.0,0.0,0.0,0.0,0.0,0.0,0.0,0.0,0.0,0.0,0.0,0.0,0.0,0.0,0.0,0.0,0.0,0.0,0.0,0.0,0.0,0.0,0.0,0.0,0.0,0.0,0.0,0.0,0.0,0.0,0.0,0.0,0.0,0.0,0.0,0.0,0.0,0.0,0.0,0.0,0.0,0.0,0.0,0.0,0.0,0.0,0.0,0.0,0.0,0.0,0.0,0.0,0.0,0.0,0.0,0.0,0.0,0.0,0.0,0.0,0.0,0.0,0.0,0.0,0.0,0.0,0.0,0.0,0.0,0.0,0.0,0.0,0.0,0.0,0.0,0.0,0.0,0.0,0.0,0.0,0.0,0.0,0.0,0.0,0.0,0.0,0.0,0.0,0.0,0.0,0.0,0.0,0.0,0.0,0.0,0.0,0.0,0.0,0.0,0.0,0.0,0.0,0.0,0.0,0.0,0.0,0.0,0.0,0.0,0.0,0.0,0.0,0.0,0.0,0.0,0.0,0.0,0.0,0.0,0.0,0.0,0.0,0.0,0.0,0.0,0.0,0.0,0.0,0.0,0.0,0.0,0.0,0.0,0.0,0.0,0.0,0.0,0.0,0.0,0.0,0.0,0.0,0.0,0.0,0.0,0.0,0.0,0.0,0.0,0.0,0.0,0.0,0.0,0.0,0.0,0.0,0.0,0.0,0.0,0.0,0.0,0.0,0.0,0.0,0.0,0.0,0.0,0.0,0.0,0.0,0.0,0.0,0.0,0.0,0.0,0.0,0.0,0.0,0.0,0.0,0.0,0.0,0.0,0.0,0.0,0.0,0.0,0.0,0.0,0.0,0.0,0.0,0.0,0.0,0.0,0.0,0.0,0.0,0.0,0.0,0.0,0.0,0.0,0.0,0.0,0.0,0.0,0.0,0.0,0.0,0.0,0.0,0.0,0.0,0.0,0.0,0.0,0.0,0.0,0.0,-0.0,0.0,0.0,0.0,-0.1212,0.0,0.0,0.0,0.0,0.0,0.0,0.0,0.0,0.0,0.0,0.0,0.0,0.0,0.0,0.0,0.0,0.0,0.0,0.0,0.0,0.0,0.0,0.0,0.0,0.0,0.0,0.0,0.0,0.0,0.0,0.0,0.0,0.0,0.0,0.0,0.0,0.0,0.0,0.0,0.0,0.0,0.0,0.0,0.0,0.0,0.0,0.0,0.0,0.0,0.0,0.0,0.0,0.0,0.0,0.0,0.0,0.0,0.0,0.0,0.0,0.0,0.0,0.0,0.0,0.0,0.0,0.0,0.0,0.0,0.0,0.0,0.0,0.0,0.0,0.0,0.0,0.0,0.0,0.0,0.0,0.0,0.0,0.0,0.0,0.0,0.0,0.0,0.0,0.0,0.0,0.0,0.0,0.0,0.0,0.0,0.0,0.0,0.0,0.0,0.0,0.0,0.0,0.0,0.0,0.0,0.0,0.0,0.0,0.0,0.0,-0.1077,-0.3369,-0.3501,-0.4042,-0.5124,0.0,0.0,0.0,0.0,0.0,0.0,0.0,0.0,0.0,0.0,0.0,0.0,0.0,0.0,0.0,0.0,0.0,0.0,0.0,0.0,0.0,0.0,0.0,0.0,0.0,0.0,0.0,0.0,0.0,0.0,0.0,0.0,0.0,0.0,0.0,0.0,0.0,0.0,0.0,0.0,0.0,0.0,0.0,0.0,0.0,0.0,0.0,0.0,0.0,0.0,0.0,0.0,0.0,0.0,0.0,0.0,0.0,0.0,0.0,0.0,0.0,0.0,0.0,0.0,0.0,0.0,0.0,0.0,0.0,0.0,0.0,0.0,0.0,0.0,0.0,0.0,0.0,0.0,0.0,0.0,0.0,0.0,0.0,0.0,0.0,0.0,0.0,0.0,0.0,0.0,0.0,0.0,0.0,0.0,0.0,0.0,0.0,0.0,0.0,0.0,0.0,0.0,0.0,0.0,0.0,0.0,0.0,0.0,0.0,0.0,0.0,0.0,-0.4515,-0.5321,-0.722,0.0,0.0,0.0,0.0,0.0,0.0,0.0,0.0,0.0,0.0,0.0,0.0,0.0,0.0,0.0,0.0,0.0,0.0,0.0,0.0,0.0,0.0,0.0,0.0,0.0,0.0,0.0,0.0,0.0,0.0,0.0,0.0,0.0,0.0,0.0,0.0,0.0,0.0,0.0,0.0,0.0,0.0,0.0,0.0,0.0,0.0,0.0,0.0,0.0,0.0,0.0,0.0,0.0,0.0,0.0,0.0,0.0,0.0,0.0,0.0,0.0,0.0,0.0,0.0,0.0,0.0,0.0,0.0,0.0,0.0,0.0,0.0,0.0,0.0,0.0,0.0,0.0,0.0,0.0,0.0,0.0,0.0,0.0,0.0,0.0,0.0,0.0,0.0,0.0,0.0,0.0,0.0,0.0,0.0,0.0,0.0,0.0,0.0,0.0,0.0,0.0,0.0,0.0,0.0,0.0,0.0,0.0,0.0,0.0,0.0,0.0559,0.1593,0.1575,0.0,-0.3072,0.0,0.0,0.0,0.0,0.0,0.0,0.0,0.0,0.0,0.0,0.0,0.0,0.0,0.0,0.0,0.0,0.0,0.0,0.0,0.0,0.0,0.0,0.0,0.0,0.0,0.0,0.0,0.0,0.0,0.0,0.0,0.0,0.0,0.0,0.0,0.0,0.0,0.0,0.0,0.0,0.0,0.0,0.0,0.0,0.0,0.0,0.0,0.0,0.0,0.0,0.0,0.0,0.0,0.0,0.0,0.0,0.0,0.0,0.0,0.0,0.0,0.0,0.0,0.0,0.0,0.0,0.0,0.0,0.0,0.0,0.0,0.0,0.0,0.0,0.0,0.0,0.0,0.0,0.0,0.0,0.0,0.0,0.0,0.0,0.0,0.0,0.0,0.0,0.0,0.0,0.0,0.0,0.0,0.0,0.0,0.0,0.0,0.0,0.0,0.0,0.0,0.0,0.0,0.0,0.0,0.0,0.0,0.0,0.0,0.0,0.0989,-0.0285,-0.0562,-0.1681,0.0,0.0,0.0,0.0,0.0,0.0,0.0,0.0,0.0,0.0,0.0,0.0,0.0,0.0,0.0,0.0,0.0,0.0,0.0,0.0,0.0,0.0,0.0,0.0,0.0,0.0,0.0,0.0,0.0,0.0,0.0,0.0,0.0,0.0,0.0,0.0,0.0,0.0,0.0,0.0,0.0,0.0,0.0,0.0,0.0,0.0,0.0,0.0,0.0,0.0,0.0,0.0,0.0,0.0,0.0,0.0,0.0,0.0,0.0,0.0,0.0,0.0,0.0,0.0,0.0,0.0,0.0,0.0,0.0,0.0,0.0,0.0,0.0,0.0,0.0,0.0,0.0,0.0,0.0,0.0,0.0,0.0,0.0,0.0,0.0,0.0,0.0,0.0,0.0,0.0,0.0,0.0,0.0,0.0,0.0,0.0,0.0,0.0,0.0,0.0,0.0,0.0,0.0,0.0,0.0,0.0,0.0,0.0,0.0,0.0,0.0284,-0.0,-0.2692,-0.1969,-0.2247,-0.3951,0.0,0.0,0.0,0.0,0.0,0.0,0.0,0.0,0.0,0.0,0.0,0.0,0.0,0.0,0.0,0.0,0.0,0.0,0.0,0.0,0.0,0.0,0.0,0.0,0.0,0.0,0.0,0.0,0.0,0.0,0.0,0.0,0.0,0.0,0.0,0.0,0.0,0.0,0.0,0.0,0.0,0.0,0.0,0.0,0.0,0.0,0.0,0.0,0.0,0.0,0.0,0.0,0.0,0.0,0.0,0.0,0.0,0.0,0.0,0.0,0.0,0.0,0.0,0.0,0.0,0.0,0.0,0.0,0.0,0.0,0.0,0.0,0.0,0.0,0.0,0.0,0.0,0.0,0.0,0.0,0.0,0.0,0.0,0.0,0.0,0.0,0.0,0.0,0.0,0.0,0.0,0.0,0.0,0.0,0.0,0.0,0.0,0.0,0.0,0.0,0.0,0.0,0.0,0.0,0.0,0.0,0.0,0.0,-0.1449,-0.1726,-0.2734,-0.4371,-0.0147,0.0723,0.0,0.0,0.0,0.0,0.0,0.0,0.0,0.0,0.0,0.0,0.0,0.0,0.0,0.0,0.0,0.0,0.0,0.0,0.0,0.0,0.0,0.0,0.0,0.0,0.0,0.0,0.0,0.0,0.0,0.0,0.0,0.0,0.0,0.0,0.0,0.0,0.0,0.0,0.0,0.0,0.0,0.0,0.0,0.0,0.0,0.0,0.0,0.0,0.0,0.0,0.0,0.0,0.0,0.0,0.0,0.0,0.0,0.0,0.0,0.0,0.0,0.0,0.0,0.0,0.0,0.0,0.0,0.0,0.0,0.0,0.0,0.0,0.0,0.0,0.0,0.0,0.0,0.0,0.0,0.0,0.0,0.0,0.0,0.0,0.0,0.0,0.0,0.0,0.0,0.0,0.0,0.0,0.0,0.0,0.0,0.0,0.0,0.0,0.0,0.0,0.0,0.0,0.0,0.0,0.0,0.0,0.0,0.0,0.0,-0.1965,-0.2097,-0.2569,-0.2978,-0.0425,0.0831,0.0,0.0,0.0,0.0,0.0,0.0,0.0,0.0,0.0,0.0,0.0,0.0,0.0,0.0,0.0,0.0,0.0,0.0,0.0,0.0,0.0,0.0,0.0,0.0,0.0,0.0,0.0,0.0,0.0,0.0,0.0,0.0,0.0,0.0,0.0,0.0,0.0,0.0,0.0,0.0,0.0,0.0,0.0,0.0,0.0,0.0,0.0,0.0,0.0,0.0,0.0,0.0,0.0,0.0,0.0,0.0,0.0,0.0,0.0,0.0,0.0,0.0,0.0,0.0,0.0,0.0,0.0,0.0,0.0,0.0,0.0,0.0,0.0,0.0,0.0,0.0,0.0,0.0,0.0,0.0,0.0,0.0,0.0,0.0,0.0,0.0,0.0,0.0,0.0,0.0,0.0,0.0,0.0,0.0,0.0,0.0,0.0,0.0,0.0,0.0,0.0,0.0,0.0,0.0,0.0,0.0,0.0,0.0,0.0,-0.1531,0.0,-0.2268,-0.2048,-0.1254,-0.0,0.0,0.0,0.0,0.0,0.0,0.0,0.0,0.0,0.0,0.0,0.0,0.0,0.0,0.0,0.0,0.0,0.0,0.0,0.0,0.0,0.0,0.0,0.0,0.0,0.0,0.0,0.0,0.0,0.0,0.0,0.0,0.0,0.0,0.0,0.0,0.0,0.0,0.0,0.0,0.0,0.0,0.0,0.0,0.0,0.0,0.0,0.0,0.0,0.0,0.0,0.0,0.0,0.0,0.0,0.0,0.0,0.0,0.0,0.0,0.0,0.0,0.0,0.0,0.0,0.0,0.0,0.0,0.0,0.0,0.0,0.0,0.0,0.0,0.0,0.0,0.0,0.0,0.0,0.0,0.0,0.0,0.0,0.0,0.0,0.0,0.0,0.0,0.0,0.0,0.0,0.0,0.0,0.0,0.0,0.0,0.0,0.0,0.0,0.0,0.0,0.0,0.0,0.0,0.0,0.0,0.0,0.0,0.0,-0.1531,-0.0285,-0.1569,-0.2259,-0.2068,-0.2113,-0.1514,0.0,0.0,0.0,0.0,0.0,0.0,0.0,0.0,0.0,0.0,0.0,0.0,0.0,0.0,0.0,0.0,0.0,0.0,0.0,0.0,0.0,0.0,0.0,0.0,0.0,0.0,0.0,0.0,0.0,0.0,0.0,0.0,0.0,0.0,0.0,0.0,0.0,0.0,0.0,0.0,0.0,0.0,0.0,0.0,0.0,0.0,0.0,0.0,0.0,0.0,0.0,0.0,0.0,0.0,0.0,0.0,0.0,0.0,0.0,0.0,0.0,0.0,0.0,0.0,0.0,0.0,0.0,0.0,0.0,0.0,0.0,0.0,0.0,0.0,0.0,0.0,0.0,0.0,0.0,0.0,0.0,0.0,0.0,0.0,0.0,0.0,0.0,0.0,0.0,0.0,0.0,0.0,0.0,0.0,0.0,0.0,0.0,0.0,0.0,0.0,0.0,0.0,0.0,0.0,0.0,0.0,0.0,0.0,0.0,-0.3203,-0.376,-0.3359,-0.2258,-0.206,-0.1484,0.0,0.0,0.0,0.0,0.0,0.0,0.0,0.0,0.0,0.0,0.0,0.0,0.0,0.0,0.0,0.0,0.0,0.0,0.0,0.0,0.0,0.0,0.0,0.0,0.0,0.0,0.0,0.0,0.0,0.0,0.0,0.0,0.0,0.0,0.0,0.0,0.0,0.0,0.0,0.0,0.0,0.0,0.0,0.0,0.0,0.0,0.0,0.0,0.0,0.0,0.0,0.0,0.0,0.0,0.0,0.0,0.0,0.0,0.0,0.0,0.0,0.0,0.0,0.0,0.0,0.0,0.0,0.0,0.0,0.0,0.0,0.0,0.0,0.0,0.0,0.0,0.0,0.0,0.0,0.0,0.0,0.0,0.0,0.0,0.0,0.0,0.0,0.0,0.0,0.0,0.0,0.0,0.0,0.0,0.0,0.0,0.0,0.0,0.0,0.0,0.0,0.0,0.0,0.0,0.0,0.0,0.0,0.0,0.0,-0.4614,-0.4515,-0.3961,-0.3241,-0.2767,-0.2041,-0.094,0.0,0.0,0.0,0.0,0.0,0.0,0.0,0.0,0.0,0.0,0.0,0.0,0.0,0.0,0.0,0.0,0.0,0.0,0.0,0.0,0.0,0.0,0.0,0.0,0.0,0.0,0.0,0.0,0.0,0.0,0.0,0.0,0.0,0.0,0.0,0.0,0.0,0.0,0.0,0.0,0.0,0.0,0.0,0.0,0.0,0.0,0.0,0.0,0.0,0.0,0.0,0.0,0.0,0.0,0.0,0.0,0.0,0.0,0.0,0.0,0.0,0.0,0.0,0.0,0.0,0.0,0.0,0.0,0.0,0.0,0.0,0.0,0.0,0.0,0.0,0.0,0.0,0.0,0.0,0.0,0.0,0.0,0.0,0.0,0.0,0.0,0.0,0.0,0.0,0.0,0.0,0.0,0.0,0.0,0.0,0.0,0.0,0.0,0.0,0.0,0.0,0.0,0.0,0.0,0.0,0.0,0.0,0.0,-0.4575,-0.4114,-0.4075,-0.4713,-0.3863,-0.3096,0.0,0.0,0.0,0.0,0.0,0.0,0.0,0.0,0.0,0.0,0.0,0.0,0.0,0.0,0.0,0.0,0.0,0.0,0.0,0.0,0.0,0.0,0.0,0.0,0.0,0.0,0.0,0.0,0.0,0.0,0.0,0.0,0.0,0.0,0.0,0.0,0.0,0.0,0.0,0.0,0.0,0.0,0.0,0.0,0.0,0.0,0.0,0.0,0.0,0.0,0.0,0.0,0.0,0.0,0.0,0.0,0.0,0.0,0.0,0.0,0.0,0.0,0.0,0.0,0.0,0.0,0.0,0.0,0.0,0.0,0.0,0.0,0.0,0.0,0.0,0.0,0.0,0.0,0.0,0.0,0.0,0.0,0.0,0.0,0.0,0.0,0.0,0.0,0.0,0.0,0.0,0.0,0.0,0.0,0.0,0.0,0.0,0.0,0.0,0.0,0.0,0.0,0.0,0.0,0.0,0.0,0.0,0.0,0.0,-0.2823,-0.3124,-0.3765,-0.4668,-0.3791,-0.3006,0.0,0.0,0.0,0.0,0.0,0.0,0.0,0.0,0.0,0.0,0.0,0.0,0.0,0.0,0.0,0.0,0.0,0.0,0.0,0.0,0.0,0.0,0.0,0.0,0.0,0.0,0.0,0.0,0.0,0.0,0.0,0.0,0.0,0.0,0.0,0.0,0.0,0.0,0.0,0.0,0.0,0.0,0.0,0.0,0.0,0.0,0.0,0.0,0.0,0.0,0.0,0.0,0.0,0.0,0.0,0.0,0.0,0.0,0.0,0.0,0.0,0.0,0.0,0.0,0.0,0.0,0.0,0.0,0.0,0.0,0.0,0.0,0.0,0.0,0.0,0.0,0.0,0.0,0.0,0.0,0.0,0.0,0.0,0.0,0.0,0.0,0.0,0.0,0.0,0.0,0.0,0.0,0.0,0.0,0.0,0.0,0.0,0.0,0.0,0.0,0.0,0.0,0.0,0.0,0.0,0.0,0.0,0.0,-0.1701,-0.2281,-0.3004,-0.3676,-0.4379,-0.3616,-0.3084,0.0,0.0,0.0,0.0,0.0,0.0,0.0,0.0,0.0,0.0,0.0,0.0,0.0,0.0,0.0,0.0,0.0,0.0,0.0,0.0,0.0,0.0,0.0,0.0,0.0,0.0,0.0,0.0,0.0,0.0,0.0,0.0,0.0,0.0,0.0,0.0,0.0,0.0,0.0,0.0,0.0,0.0,0.0,0.0,0.0,0.0,0.0,0.0,0.0,0.0,0.0,0.0,0.0,0.0,0.0,0.0,0.0,0.0,0.0,0.0,0.0,0.0,0.0,0.0,0.0,0.0,0.0,0.0,0.0,0.0,0.0,0.0,0.0,0.0,0.0,0.0,0.0,0.0,0.0,0.0,0.0,0.0,0.0,0.0,0.0,0.0,0.0,0.0,0.0,0.0,0.0,0.0,0.0,0.0,0.0,0.0,0.0,0.0,0.0,0.0,0.0,0.0,0.0,0.0,0.0,0.0,0.0,0.0,-0.2308,-0.2333,-0.3181,-0.3706,-0.4011,-0.358,-0.3315,0.0,0.0,0.0,0.0,0.0,0.0,0.0,0.0,0.0,0.0,0.0,0.0,0.0,0.0,0.0,0.0,0.0,0.0,0.0,0.0,0.0,0.0,0.0,0.0,0.0,0.0,0.0,0.0,0.0,0.0,0.0,0.0,0.0,0.0,0.0,0.0,0.0,0.0,0.0,0.0,0.0,0.0,0.0,0.0,0.0,0.0,0.0,0.0,0.0,0.0,0.0,0.0,0.0,0.0,0.0,0.0,0.0,0.0,0.0,0.0,0.0,0.0,0.0,0.0,0.0,0.0,0.0,0.0,0.0,0.0,0.0,0.0,0.0,0.0,0.0,0.0,0.0,0.0,0.0,0.0,0.0,0.0,0.0,0.0,0.0,0.0,0.0,0.0,0.0,0.0,0.0,0.0,0.0,0.0,0.0,0.0,0.0,0.0,0.0,0.0,0.0,0.0,0.0,0.0,0.0,0.0,0.0,0.0,-0.2472,-0.2481,-0.2901,-0.3737,-0.4783,-0.4288,-0.4047,0.0,0.0,0.0,0.0,0.0,0.0,0.0,0.0,0.0,0.0,0.0,0.0,0.0,0.0,0.0,0.0,0.0,0.0,0.0,0.0,0.0,0.0,0.0,0.0,0.0,0.0,0.0,0.0,0.0,0.0,0.0,0.0,0.0,0.0,0.0,0.0,0.0,0.0,0.0,0.0,0.0,0.0,0.0,0.0,0.0,0.0,0.0,0.0,-1.3752,0.0,0.0,0.0,0.0,0.0,0.0,0.0,0.0,0.0,0.0,0.0,0.0,0.0,0.0,0.0,0.0,0.0,0.0,0.0,0.0,0.0,0.0,0.0,0.0,0.0,0.0,0.0,0.0,0.0,0.0,0.0,0.0,0.0,0.0,0.0,0.0,0.0,0.0,0.0,0.0,0.0,0.0,0.0,0.0,0.0,0.0,0.0,0.0,0.0,0.0,0.0,0.0,0.0,0.0,0.0,0.0,0.0,0.0,0.0,-0.2346,-0.2526,-0.2927,-0.3756,-0.4978,-0.4611,-0.4376,0.0,0.0,0.0,0.0,0.0,0.0,0.0,0.0,0.0,0.0,0.0,0.0,0.0,0.0,0.0,0.0,0.0,0.0,0.0,0.0,0.0,0.0,0.0,0.0,0.0,0.0,0.0,0.0,0.0,0.0,0.0,0.0,0.0,0.0,0.0,0.0,0.0,0.0,0.0,0.0,0.0,0.0,0.0,0.0,0.0,0.0,0.0,0.0,0.0,0.0,0.0,0.0,0.0,0.0,0.0,0.0,0.0,0.0,0.0,0.0,0.0,0.0,0.0,0.0,0.0,0.0,0.0,0.0,0.0,0.0,0.0,0.0,0.0,0.0,0.0,0.0,0.0,0.0,0.0,0.0,0.0,0.0,0.0,0.0,0.0,0.0,0.0,0.0,0.0,0.0,0.0,0.0,0.0,0.0,0.0,0.0,0.0,0.0,0.0,0.0,0.0,0.0,0.0,0.0,0.0,0.0,0.0,-0.2309,-0.2367,-0.2423,-0.2946,-0.3611,-0.4554,-0.4354,-0.4283,-0.4636,0.0,0.0,0.0,0.0,0.0,0.0,0.0,0.0,0.0,0.0,0.0,0.0,0.0,0.0,0.0,0.0,0.0,0.0,0.0,0.0,0.0,0.0,0.0,0.0,0.0,0.0,0.0,0.0,0.0,0.0,0.0,0.0,0.0,0.0,0.0,0.0,0.0,0.0,-1.0146,-1.1854,0.0,0.0,0.0,0.0,0.0,0.0,0.0,0.0,-1.4822,0.0,0.0,0.0,0.0,0.0,0.0,0.0,0.0,0.0,0.0,0.0,0.0,0.0,0.0,0.0,0.0,0.0,0.0,0.0,0.0,0.0,0.0,0.0,0.0,0.0,0.0,0.0,0.0,0.0,0.0,0.0,0.0,0.0,0.0,0.0,0.0,0.0,0.0,0.0,0.0,0.0,0.0,0.0,0.0,0.0,0.0,0.0,0.0,0.0,0.0,0.0,0.0,0.0,0.0,0.0,0.0,-0.2281,-0.2341,-0.2387,-0.2424,-0.2791,-0.2982,-0.2982,-0.3603,-0.3888,-0.3829,0.0,0.0,0.0,0.0,0.0,0.0,0.0,0.0,0.0,0.0,0.0,0.0,0.0,0.0,0.0,0.0,0.0,0.0,0.0,0.0,0.0,0.0,0.0,0.0,0.0,0.0,0.0,0.0,0.0,0.0,0.0,0.0,0.0,0.0,0.0,0.0,0.0,0.0,0.0,-1.2759,-1.3611,0.0,0.0,0.0,0.0,0.0,0.0,0.0,0.0,-1.5018,0.0,0.0,0.0,0.0,0.0,0.0,0.0,0.0,0.0,0.0,0.0,0.0,0.0,0.0,0.0,0.0,0.0,0.0,0.0,0.0,0.0,0.0,0.0,0.0,0.0,0.0,0.0,0.0,0.0,0.0,0.0,0.0,0.0,0.0,0.0,0.0,0.0,0.0,0.0,0.0,0.0,0.0,0.0,0.0,0.0,0.0,0.0,0.0,0.0,0.0,0.0,0.0,0.0,0.0,0.0,-0.2264,-0.2324,-0.2378,-0.2424,-0.2638,-0.2662,-0.2489,-0.3074,-0.3349,0.0,0.0,0.0,0.0,0.0,0.0,0.0,0.0,0.0,0.0,0.0,0.0,0.0,0.0,0.0,0.0,0.0,0.0,0.0,0.0,0.0,0.0,0.0,0.0,0.0,0.0,0.0,0.0,0.0,0.0,0.0,0.0,0.0,0.0,0.0,0.0,0.0,0.0,0.0,0.0,-1.3207,-1.3732,-1.3401,0.0,0.0,0.0,0.0,0.0,0.0,-1.5144,-1.5176,0.0,0.0,0.0,0.0,0.0,0.0,0.0,0.0,0.0,0.0,0.0,0.0,0.0,0.0,0.0,0.0,0.0,0.0,0.0,0.0,0.0,0.0,0.0,0.0,0.0,0.0,0.0,0.0,0.0,0.0,0.0,0.0,0.0,0.0,0.0,0.0,0.0,0.0,0.0,0.0,0.0,0.0,0.0,0.0,0.0,0.0,0.0,0.0,0.0,0.0,0.0,0.0,0.0,0.0,0.0,-0.2244,-0.2309,-0.2368,-0.2423,-0.2482,-0.2503,-0.2478,-0.2728,-0.2989,0.0,0.0,0.0,0.0,0.0,0.0,0.0,0.0,0.0,0.0,0.0,0.0,0.0,0.0,0.0,0.0,0.0,0.0,0.0,0.0,0.0,0.0,0.0,0.0,0.0,0.0,0.0,0.0,0.0,0.0,0.0,0.0,0.0,0.0,0.0,0.0,0.0,0.0,0.0,0.0,0.0,-1.3789,-1.3487,-1.3824,0.0,0.0,0.0,0.0,-1.5089,-1.5259,0.0,0.0,0.0,0.0,0.0,0.0,0.0,0.0,0.0,0.0,0.0,0.0,0.0,0.0,0.0,0.0,0.0,0.0,0.0,0.0,0.0,0.0,0.0,0.0,0.0,0.0,0.0,0.0,0.0,0.0,0.0,0.0,0.0,0.0,0.0,0.0,0.0,0.0,0.0,0.0,0.0,0.0,0.0,0.0,0.0,0.0,0.0,0.0,0.0,0.0,0.0,0.0,0.0,0.0,0.0,0.0,-0.2245,-0.233,-0.239,-0.2424,-0.2484,-0.2512,-0.2508,-0.2476,-0.2433,0.0,0.0,0.0,0.0,0.0,0.0,0.0,0.0,0.0,0.0,0.0,0.0,0.0,0.0,0.0,0.0,0.0,0.0,0.0,0.0,0.0,0.0,0.0,0.0,0.0,0.0,0.0,0.0,0.0,0.0,0.0,0.0,0.0,0.0,0.0,0.0,0.0,0.0,0.0,0.0,0.0,-1.3802,-1.3704,-1.4109,-1.4332,0.0,0.0,-1.5514,-1.4693,-1.5302,0.0,0.0,0.0,0.0,0.0,0.0,0.0,0.0,0.0,0.0,0.0,0.0,0.0,0.0,0.0,0.0,0.0,0.0,0.0,0.0,0.0,0.0,0.0,0.0,0.0,0.0,0.0,0.0,0.0,0.0,0.0,0.0,0.0,0.0,0.0,0.0,0.0,0.0,0.0,0.0,0.0,0.0,0.0,0.0,0.0,0.0,0.0,0.0,0.0,0.0,0.0,0.0,0.0,0.0,0.0,-0.1504,-0.2247,-0.2333,-0.2393,-0.2424,-0.2484,-0.2506,-0.2489,-0.2427,-0.2382,0.0,0.0,0.0,0.0,0.0,0.0,0.0,0.0,0.0,0.0,0.0,0.0,0.0,0.0,0.0,0.0,0.0,0.0,0.0,0.0,0.0,0.0,0.0,0.0,0.0,0.0,0.0,0.0,0.0,0.0,0.0,0.0,0.0,0.0,0.0,0.0,0.0,0.0,0.0,0.0,0.0,0.0,-1.4194,-1.4784,0.0,0.0,0.0,-1.6205,-1.5451,0.0,0.0,0.0,0.0,0.0,0.0,0.0,0.0,0.0,0.0,0.0,0.0,0.0,0.0,0.0,0.0,0.0,0.0,0.0,0.0,0.0,0.0,0.0,0.0,0.0,0.0,0.0,0.0,0.0,0.0,0.0,0.0,0.0,0.0,0.0,0.0,0.0,0.0,0.0,0.0,0.0,0.0,0.0,0.0,0.0,0.0,0.0,0.0,0.0,0.0,0.0,0.0,0.0,0.0,0.0,0.0,0.0,-0.2399,-0.2352,-0.2412,-0.2436,-0.2176,-0.2034,-0.186,-0.2101,0.0,0.0,0.0,0.0,0.0,0.0,0.0,0.0,0.0,0.0,0.0,0.0,0.0,0.0,0.0,0.0,0.0,0.0,0.0,0.0,0.0,0.0,0.0,0.0,0.0,0.0,0.0,-1.0493,0.0,0.0,0.0,0.0,0.0,0.0,0.0,0.0,0.0,0.0,0.0,0.0,0.0,0.0,-1.431,-1.4358,-1.5027,-1.5272,0.0,0.0,-1.6381,-1.5537,-1.5695,-1.5942,0.0,0.0,0.0,0.0,0.0,0.0,0.0,0.0,0.0,0.0,0.0,0.0,0.0,0.0,0.0,0.0,0.0,0.0,0.0,0.0,0.0,0.0,0.0,0.0,0.0,0.0,0.0,0.0,0.1932,0.0,0.0,0.0,0.0,0.0,0.0,0.0,0.0,0.0,0.0,0.0,0.0,0.0,0.0,0.0,0.0,0.0,0.0,0.0,0.0,0.0,0.0,0.0,0.0,0.0,-0.0835,-0.2289,-0.2403,-0.231,-0.2313,-0.1716,-0.0942,-0.0157,-0.0919,-0.1644,0.0,0.0,0.0,0.0,0.0,0.0,0.0,0.0,0.0,0.0,0.0,0.0,0.0,0.0,0.0,0.0,0.0,0.0,0.0,0.0,0.0,0.0,0.0,0.0,0.0,0.0,0.0,0.0,0.0,0.0,0.0,0.0,0.0,0.0,0.0,0.0,0.0,0.0,0.0,0.0,0.0,-1.4891,-1.4073,-1.4472,-1.4576,0.0,-1.4909,-1.5189,-1.4173,-1.4894,-1.5519,-1.5225,0.0,0.0,0.0,0.0,0.0,0.0,0.0,0.0,0.0,0.0,0.0,0.0,0.0,0.0,0.0,0.0,0.0,0.0,0.0,0.0,0.0,0.0,0.0,0.0,0.0,0.196,0.197,0.0,0.1952,0.0,0.0,0.0,0.0,0.0,0.0,0.0,0.0,0.0,0.0,0.0,0.0,0.0,0.0,0.0,0.0,0.0,0.0,0.0,0.0,0.0,0.0,0.0,0.0,-0.0282,-0.0869,-0.136,-0.1858,-0.2341,-0.221,-0.1424,-0.0,-0.0311,-0.0611,0.0,0.0,0.0,0.0,0.0,0.0,0.0,0.0,0.0,0.0,0.0,0.0,0.0,0.0,0.0,0.0,0.0,0.0,0.0,0.0,0.0,0.0,0.0,0.0,0.0,0.0,0.0,0.0,-1.2219,-1.2425,-1.2654,0.0,0.0,0.0,0.0,0.0,0.0,0.0,0.0,0.0,0.0,-1.4288,-1.4301,-1.4844,0.0,0.0,-1.5257,-1.5753,-1.4653,-1.5196,-1.5655,-1.5822,-1.5901,0.0,0.0,0.0,0.0,0.0,0.0,0.0,0.0,0.0,0.0,0.0,0.0,0.0,0.0,0.0,0.0,0.0,0.0,0.0,0.0,0.0,0.0,0.0,0.0,0.0,0.0,0.0,0.0,0.0,0.0,0.0,0.0,0.0,0.0,0.0,0.0,0.0,0.0,0.0,0.0,0.0,0.0,0.0,0.0,0.0,0.0,0.0,0.0,0.0,0.0,0.0,0.0,-0.0,-0.0,-0.0609,-0.109,-0.1728,-0.1743,-0.1267,-0.0,-0.0,-0.0,0.0,0.0,0.0,0.0,0.0,0.0,0.0,0.0,0.0,0.0,0.0,0.0,0.0,0.0,0.0,0.0,0.0,0.0,0.0,0.0,0.0,0.0,0.0,0.0,0.0,0.0,0.0,0.0,-1.2581,-1.2941,-1.3062,0.0,0.0,0.0,0.0,0.0,0.0,0.0,0.0,0.0,0.0,-1.3999,-1.4379,-1.5046,-1.5247,-1.4722,-1.5639,-1.6179,-1.5425,-1.5526,-1.563,-1.5979,0.0,0.0,0.0,0.0,0.0,0.0,0.0,0.0,0.0,0.0,0.0,0.0,0.0,0.0,0.0,0.0,0.0,0.0,0.0,0.0,0.0,0.0,0.0,0.0,0.0,0.0,0.0,0.202,0.0,0.0,0.0126,0.0,0.0,0.0,0.0,0.0,0.0,0.0,0.0,0.0,0.0,0.0,0.0,0.0,0.0,0.0,0.0,0.0,0.0,0.0,0.0,0.0,0.0,-0.0,-0.0,-0.0,-0.0,-0.0,-0.0,-0.0,-0.0,-0.0,-0.0,-0.0,0.0,0.0,0.0,0.0,0.0,0.0,0.0,0.0,0.0,0.0,0.0,0.0,0.0,0.0,0.0,0.0,0.0,0.0,0.0,0.0,0.0,0.0,0.0,0.0,0.0,0.0,-1.1931,-1.2514,-1.2904,0.0,0.0,0.0,0.0,0.0,0.0,0.0,0.0,0.0,-1.3767,-1.4048,-1.4222,-1.4215,-1.485,-1.5219,-1.5227,-1.5716,-1.6122,-1.5958,-1.5687,-1.5456,0.0,0.0,0.0,0.0,0.0,0.0,0.0,0.0,0.0,0.0,0.0,0.0,0.0,0.0,0.0,0.0,0.0,0.0,0.0,0.0,0.0,0.0,0.0,0.0,0.0,0.0,0.0,0.0537,0.0534,0.0,0.0,0.0,0.0,0.0,0.0,0.0,0.0,0.0,0.0,0.0,-0.2449,-0.2513,0.0,0.0,0.0,0.0,0.0,0.0,0.0,0.0,0.0,0.0,0.0,0.0,-0.0,-0.0,-0.0,-0.0,-0.0,-0.0,-0.0,-0.0,-0.0,-0.0,-0.0,0.0,0.0,0.0,0.0,0.0,0.0,0.0,0.0,0.0,0.0,0.0,0.0,0.0,0.0,0.0,0.0,0.0,0.0,0.0,0.0,0.0,0.0,0.0,0.0,0.0,-1.0662,0.0,0.0,0.0,0.0,0.0,0.0,0.0,0.0,0.0,0.0,-1.3819,-1.3548,-1.3917,-1.3874,-1.3926,-1.3899,-1.4352,-1.4586,0.0,0.0,0.0,0.0,0.0,0.0,0.0,0.0,0.0,0.0,0.0,0.0,0.0,-2.141,-2.1491,-2.1343,-2.1337,-2.1698,-2.2842,0.0,0.0,0.0,0.0,0.0,0.0,0.0,0.0,0.0,0.0,0.0,0.0,0.0,0.0,-0.1683,-0.1121,-0.1251,0.0,0.0,0.0,0.0,0.0,0.0,0.0,0.0,-0.2397,-0.2597,-0.2473,-0.2523,-0.2532,0.0,-0.2533,-0.2455,0.0,0.0,0.0,0.0,0.0,0.0,0.0,0.0,-0.0,-0.0,-0.0,-0.0,-0.0,-0.0,-0.0,-0.0,-0.0,-0.0,-0.0,-0.0,-0.0455,0.0,0.0,0.0,0.0,0.0,0.0,0.0,0.0,0.0,0.0,0.0,0.0,0.0,0.0,0.0,0.0,0.0,0.0,0.0,0.0,0.0,0.0,0.0,-1.0657,0.0,0.0,0.0,0.0,0.0,0.0,0.0,0.0,0.0,-1.4154,-1.3895,-1.3789,-1.4084,-1.394,-1.3899,-1.3987,0.0,0.0,0.0,0.0,0.0,0.0,0.0,-1.6211,-1.7026,-1.7086,-1.7461,-1.9031,-1.9993,-2.0676,-2.1375,0.0,0.0,-2.052,-2.0459,-2.0567,-2.2,-2.3293,-2.4235,-2.4649,-2.5766,-2.6785,0.0,0.0,0.0,0.0,0.0,0.0,0.0,0.0,-0.4923,-0.4013,0.0,-0.2338,0.0,0.0,0.0,0.0,-0.0,-0.0,0.0,0.0,-0.2399,-0.262,-0.2649,-0.2679,-0.2511,-0.2491,-0.2565,-0.2519,-0.2361,-0.2252,0.0,0.0,0.0,0.0,0.0,0.0,-0.0,-0.0,-0.0,-0.0,-0.0,-0.0,-0.0,-0.0,-0.0,-0.0,-0.0,-0.0,-0.0,-0.0,-0.156,0.0,0.0,0.0,0.0,0.0,0.0,0.0,0.0,0.0,0.0,0.0,0.0,0.0,0.0,0.0,0.0,0.0,0.0,0.0,0.0,-0.8406,0.0,0.0,0.0,0.0,0.0,0.0,0.0,0.0,0.0,-1.369,-1.3697,-1.4237,-1.4428,-1.4235,0.0,0.0,0.0,0.0,-1.6472,-1.6629,-1.7177,-1.7527,-1.7697,-1.6825,-1.6109,-1.6003,0.0,0.0,-1.6831,-1.8137,-1.9056,-1.9155,-1.897,-1.9938,-2.3086,-2.1612,-2.0951,-2.3484,-2.3033,-2.2636,-2.332,-2.4127,-2.4635,-0.2548,0.0,0.0,0.0,0.0,-0.3321,-0.4441,-0.5041,-0.4544,-0.3747,-0.3113,-0.2601,0.0,0.0,0.0,0.0,0.0,0.0,-0.2004,-0.2407,-0.2615,-0.283,-0.2713,-0.2743,-0.2408,-0.1715,-0.1732,-0.2051,-0.2645,-0.2609,-0.1884,-0.0589,0.0,0.0,0.0,0.0,-0.0,-0.0,-0.0,-0.0,-0.0,-0.0,-0.0,-0.0,-0.0,-0.0,-0.0,-0.0,-0.0,-0.0,-0.0475,0.0,0.0,0.0,0.0,0.0,0.0,0.0,0.0,0.0,0.0,0.0,0.0,0.0,0.0,0.0,0.0,0.0,0.0,0.0,-0.6082,-0.7882,-0.9345,0.0,0.0,0.0,0.0,0.0,0.0,0.0,0.0,0.0,-1.3974,-1.4435,-1.4792,0.0,0.0,-1.4991,-1.4991,-1.5012,-1.4937,-1.5195,-1.5554,0.0,-1.6004,-1.6202,-1.6501,-1.729,-1.7836,-1.8052,-1.8052,-1.8112,-1.8406,-1.8732,-1.8343,-1.8343,-1.9212,-1.9104,-1.8867,-1.9651,-2.009,-2.0543,-2.0762,-2.204,-2.3064,-0.2703,-0.2631,-0.2534,-0.2515,-0.2547,-0.3478,-0.3995,-0.4245,-0.4074,-0.3738,-0.3239,-0.305,-0.2664,-0.2421,-0.223,0.0,0.0,0.0,-0.2714,-0.2824,-0.2858,-0.2564,-0.2268,-0.2634,-0.2467,-0.1938,-0.1061,-0.1403,-0.2748,-0.2761,-0.1846,-0.0,0.0,-0.0,-0.0,-0.0,-0.0,-0.0,-0.0,-0.0,-0.0,-0.0,-0.0,-0.0,-0.0,-0.0,-0.0,-0.0,-0.0,-0.0,-0.0,-0.0477,0.0,0.0,0.0,0.0,0.0,0.0,0.0,0.0,0.0,0.0,0.0,-0.3965,-0.3954,0.0,0.0,0.0,-0.4263,-0.4548,-0.5159,-0.6302,0.0,0.0,0.0,0.0,0.0,0.0,0.0,-1.4703,-1.4284,-1.4143,-1.4238,-1.4935,-1.5227,-1.5054,-1.5104,-1.4965,-1.5146,0.0,-1.5097,-1.5341,-1.5556,-1.5786,-1.6022,-1.6119,-1.6504,-1.7322,-1.7814,-1.8189,-1.7783,-1.7747,-1.8004,-1.8157,-1.7941,-1.7697,-1.7796,-1.7576,-1.7595,-1.7793,-1.8389,-1.8797,-1.8781,-2.0509,-2.1986,-0.2833,-0.2821,-0.2679,-0.2617,-0.2613,-0.2615,-0.2598,-0.2735,-0.3581,-0.3621,-0.3324,-0.3353,-0.314,-0.256,-0.2349,0.0,-0.2527,-0.2586,-0.2657,-0.2742,-0.26,-0.229,-0.1615,-0.2334,-0.2694,-0.2694,-0.0907,-0.0902,-0.2476,-0.25,-0.1592,-0.0,-0.0,-0.0,0.0161,-0.0,0.0161,-0.0,-0.0,-0.0,-0.0,-0.0,-0.0,-0.0,-0.0,-0.0,-0.0,-0.0,-0.0,-0.0,-0.0,-0.0,-0.0,0.0,0.0,0.0,0.0,0.0,0.0,0.0,0.0,0.0,0.0,0.0,0.0,0.0,0.0,-0.4112,-0.3772,0.0,-0.3647,-0.4602,0.0,0.0,0.0,-1.1031,-1.1989,-1.2978,-1.3912,-1.4435,0.0,0.0,-1.4529,-1.5285,-1.5596,-1.4618,-1.4699,-1.4794,-1.4794,-1.5368,-1.5974,-1.6088,-1.6387,-1.6454,-1.6595,-1.6592,-1.6368,-1.6517,-1.6666,-1.6768,-1.6781,-1.7287,-1.7594,-1.7811,-1.7811,-1.7811,-1.7811,-1.7377,-1.7188,-1.758,-1.7661,-1.7547,-1.7725,-1.9245,-2.0747,-0.2863,-0.2859,-0.2799,-0.2748,-0.2707,-0.2731,-0.2722,-0.2866,-0.3067,-0.3259,-0.3437,-0.3049,-0.2823,-0.2593,-0.2579,-0.2589,-0.2456,-0.249,-0.2538,-0.26,-0.1226,-0.1419,-0.2513,-0.1257,-0.0718,-0.0719,-0.018,-0.0179,-0.0708,-0.0714,-0.0356,-0.0,-0.0,0.0685,0.2191,0.2172,0.1846,0.1023,0.0344,-0.0,-0.0,-0.0,-0.0,-0.0,-0.0,-0.0,-0.0,-0.0,-0.0,-0.0,-0.0,-0.0,-0.0,-0.0934,0.0,0.0,0.0,0.0,0.0,0.0,0.0,0.0,0.0,-0.3537,-0.3922,0.0,-0.3915,0.0,-0.3576,-0.3989,-0.5648,-0.583,0.0,0.0,-0.8833,-1.0303,-1.1125,-1.2119,-1.3443,-1.5068,-1.4805,-1.4685,-1.4685,-1.5162,-1.5334,-1.5038,-1.5528,-1.5814,-1.5807,-1.548,-1.5259,-1.5416,-1.5609,-1.5842,-1.6234,-1.6402,-1.6653,-1.6686,-1.6822,-1.6924,-1.6924,-1.6951,-1.7188,-1.7188,-1.7188,-1.7188,-1.7188,-1.6978,-1.6985,-1.7181,-1.7065,-1.6955,-1.6955,-1.7747,-1.8504,-0.2515,-0.2872,-0.2856,-0.2829,-0.2797,-0.2788,-0.2773,-0.2932,-0.2776,-0.2958,-0.313,-0.292,-0.2707,-0.2665,-0.2664,-0.2673,-0.2522,-0.1691,-0.1372,-0.1402,-0.0529,-0.0533,-0.1616,-0.0539,-0.0,-0.0,-0.0,-0.0,-0.0,0.0895,0.0895,-0.0,0.0886,0.1761,0.2797,0.2929,0.2592,0.2117,0.0702,-0.0,-0.0,-0.0,-0.0,-0.0,-0.0858,-0.085,-0.0,-0.0335,-0.0832,-0.1178,-0.0824,-0.0325,-0.0,-0.1118,-0.2043,0.0,0.0,0.0,0.0,0.0,0.0,0.0,0.0,0.0,0.0,0.0,-0.3754,-0.3915,-0.3641,-0.3896,-0.5246,-0.4887,-0.5091,-0.6072,-0.7548,-0.9019,-1.0504,-1.1889,-1.324,-1.5032,-1.5142,-1.5038,-1.5045,-1.5242,-1.5438,-1.556,-1.5849,-1.6043,-1.5904,-1.5554,-1.5296,-1.5377,-1.5567,-1.5839,-1.6225,-1.6537,-1.6748,-1.6761,-1.6876,-1.6978,-1.6978,-1.6978,-1.6978,-1.6978,-1.6978,-1.6978,-1.6978,-1.7039,-1.7073,-1.7073,-1.7066,-1.7005,-1.6876,-1.7266,-1.7661,-0.1798,-0.2515,-0.2694,-0.2694,-0.2871,-0.2818,-0.2624,-0.2456,-0.2462,-0.2635,-0.2625,-0.2792,-0.2773,-0.2572,-0.2743,-0.2572,-0.2229,-0.0687,-0.0,-0.0,-0.0,-0.0,-0.0,-0.0,-0.0,-0.0,-0.0,-0.0,-0.0,0.1976,0.1976,0.0538,0.2135,0.2853,0.2886,0.2827,0.2821,0.2872,0.1249,0.0179,-0.0,-0.0,-0.0,-0.0,-0.1561,-0.1713,-0.0514,-0.084,-0.1668,-0.2529,-0.1822,-0.1152,-0.0499,-0.1481,-0.2126,0.0,-0.2293,0.0,0.0,0.0,0.0,0.0,0.0,0.0,0.0,-0.3164,-0.3556,-0.3983,-0.372,-0.3605,-0.3636,-0.3474,-0.3671,-0.4406,-0.5926,-0.7774,-1.0069,-1.1887,-1.3487,-1.4886,-1.5282,-1.5438,-1.5432,-1.5588,-1.5798,-1.6001,-1.609,-1.6042,-1.5818,-1.575,-1.5716,-1.5683,-1.5934,-1.6212,-1.6449,-1.6639,-1.6748,-1.6761,-1.6849,-1.6958,-1.6978,-1.6978,-1.6985,-1.7005,-1.7019,-1.7019,-1.7032,-1.7141,-1.7216,-1.7222,-1.7311,-1.7311,-1.7114,-1.7468,-1.7706,-0.0362,-0.0539,-0.1436,-0.2156,-0.2872,-0.2861,-0.1982,-0.0366,-0.0372,-0.074,-0.1624,-0.2485,-0.2277,-0.1734,-0.2428,-0.1907,-0.052,-0.0175,-0.0,-0.0,-0.0,-0.0,-0.0,-0.0,-0.0,-0.0,-0.0,-0.0,-0.0,0.1976,0.2694,0.2335,0.2689,0.2904,0.2973,0.0,0.0,0.0,0.2553,0.1654,-0.0,-0.0,-0.0,-0.0,-0.0351,0.0,-0.2079,-0.1019,-0.1012,-0.2388,-0.2551,0.0,0.0,0.0,0.0,0.0,0.0,0.0,0.0,0.0,0.0,0.0,-0.2981,-0.3126,-0.3404,-0.3337,-0.3423,-0.3815,-0.3478,-0.3314,-0.3904,-0.4108,-0.45,-0.4688,-0.6824,-0.8753,-1.0069,-1.2031,-1.3789,-1.5328,-1.5567,-1.5601,-1.5622,-1.5825,-1.6015,-1.6103,-1.6286,-1.6408,-1.6354,-1.6232,-1.6083,-1.59,-1.6171,-1.6442,-1.651,-1.6653,-1.6761,-1.6754,-1.6768,-1.6849,-1.6958,-1.6985,-1.7032,-1.7127,-1.7148,-1.7195,-1.7304,-1.7358,-1.7378,-1.7378,-1.7405,-1.7405,-1.7351,-1.7338,-1.7559,-0.0,-0.0,-0.0544,-0.1634,0.0,-0.2919,-0.1656,0.0186,0.0186,-0.0734,-0.217,-0.2685,-0.2657,-0.193,-0.0532,0.0712,0.1604,0.0543,-0.0,-0.0,-0.0,-0.0,-0.0,-0.0,-0.0,-0.0,-0.0,0.0541,0.1458,0.1996,0.2358,0.2917,0.2917,0.2939,0.2981,0.2941,0.2902,0.2874,0.2905,0.2373,0.146,0.0547,-0.0,-0.0,-0.0,0.0,0.0,0.0,0.0,0.0,0.0,0.0,0.0,0.0,0.0,-0.0177,-0.0721,-0.1467,-0.1863,-0.2635,-0.3253,-0.3133,-0.3155,-0.332,-0.3414,-0.3292,-0.3344,-0.3556,-0.3375,-0.3185,-0.3582,-0.3767,-0.3955,-0.4348,-0.553,-0.7289,-0.9802,-1.1241,-1.3054,-1.5178,-1.5811,-1.5879,-1.5961,-1.609,-1.6252,-1.6388,-1.6537,-1.6632,-1.6619,-1.651,-1.6347,-1.6212,-1.6422,-1.6598,-1.6558,-1.672,-1.6829,-1.6781,-1.6815,-1.6917,-1.706,-1.7087,-1.7134,-1.727,-1.7304,-1.7338,-1.7405,-1.748,-1.7534,-1.7541,-1.7589,-1.7636,-1.7629,-1.7528,-1.7446,-0.0,-0.0,-0.0,-0.1101,-0.2957,-0.2586,-0.167,-0.0373,0.0,0.0,0.0,-0.2701,-0.2867,-0.2678,0.0906,0.2921,0.3114,0.13,0.0559,0.0556,0.0185,-0.0,-0.0,-0.0,-0.0,-0.0,-0.0,0.1092,0.2956,0.2202,0.2199,0.2945,0.295,0.2951,0.2946,0.2951,0.293,0.2885,0.2712,0.2715,0.289,0.1083,-0.0,-0.0,-0.0,-0.0,-0.0,-0.0696,-0.0696,-0.0,-0.0707,-0.1422,-0.2171,-0.2213,-0.1491,-0.0,-0.0,-0.0584,-0.1968,-0.2787,-0.3219,-0.3251,-0.3272,-0.3264,-0.3215,-0.3208,-0.3213,-0.3236,-0.3234,-0.323,-0.323,-0.321,-0.3395,-0.3793,-0.419,-0.596,-0.8875,-0.9977,-1.1644,-1.4743,-1.542,-1.5757,-1.6273,-1.632,-1.6442,-1.668,-1.6761,-1.6795,-1.6768,-1.6632,-1.653,-1.6592,-1.668,-1.67,-1.6632,-1.6748,-1.689,-1.6822,-1.6897,-1.7039,-1.7182,-1.7229,-1.7297,-1.7433,-1.746,-1.7473,-1.7507,-1.7609,-1.7684,-1.769,-1.7779,-1.786,-1.784,-1.767,-1.7555,-0.0,-0.0,-0.0,-0.1104,-0.2743,-0.1097,-0.1098,-0.2199,-0.0552,0.0556,0.0746,-0.1817,-0.2901,-0.2761,-0.0549,0.1466,0.3142,0.2939,0.2759,0.2592,0.0918,-0.0,-0.0,-0.0,-0.0,-0.0,-0.0,0.1103,0.2747,0.2949,0.2935,0.3078,0.2911,0.2912,0.289,0.2911,0.2919,0.2915,0.2036,0.2045,0.2768,0.0922,-0.0,-0.0,-0.0,-0.0,-0.0,-0.0,-0.0179,-0.0,-0.0184,-0.0186,-0.0,-0.0,-0.0191,-0.0,-0.0,-0.0984,-0.2982,-0.3235,-0.329,-0.334,-0.3328,-0.331,-0.3303,-0.3279,-0.3265,-0.3268,-0.3245,-0.323,-0.323,-0.363,-0.3625,-0.3625,-0.5434,-0.6835,-0.7221,-0.8701,-1.0551,-1.3062,-1.3346,-1.4036,-1.5518,-1.6219,-1.6346,-1.652,-1.6647,-1.6944,-1.689,-1.67,-1.6653,-1.6829,-1.6815,-1.6754,-1.6734,-1.6741,-1.6849,-1.6937,-1.6971,-1.71,-1.7344,-1.7392,-1.7439,-1.7589,-1.7616,-1.7656,-1.7751,-1.7812,-1.7819,-1.7819,-1.7846,-1.786,-1.786,-1.7812,-1.7799,-0.0,-0.0,-0.0,-0.0559,-0.1298,-0.0369,-0.0552,-0.1288,-0.1479,-0.13,-0.0931,-0.1286,-0.1285,-0.1297,-0.0373,0.0562,0.1506,0.2638,0.3202,0.301,0.0932,-0.0,-0.0,-0.0,0.0557,0.168,0.1671,0.223,0.299,0.299,0.3168,0.3158,0.2983,0.2975,0.295,0.2975,0.2975,0.2943,0.2019,0.1468,0.1286,0.0367,-0.0,-0.0,-0.0,-0.0,-0.0,-0.0,-0.0,-0.0,-0.0,-0.0,-0.0,-0.0,-0.0,-0.0,-0.0,-0.0404,-0.1426,-0.2695,-0.3362,-0.3388,-0.3378,-0.337,-0.337,-0.3311,-0.3269,-0.3253,-0.3238,-0.323,-0.323,-0.3433,-0.3433,-0.323,-0.4459,-0.5485,-0.6301,-0.7161,-0.8826,-1.0829,-1.126,-1.1725,-1.2816,-1.3905,-1.4819,-1.5155,-1.6099,-1.6978,-1.6978,-1.6863,-1.6809,-1.6944,-1.6924,-1.6883,-1.6876,-1.6944,-1.7019,-1.7087,-1.7168,-1.7304,-1.75,-1.7541,-1.7609,-1.7731,-1.7765,-1.7785,-1.786,-1.786,-1.786,-1.786,-1.786,-1.786,-1.7867,-1.7921,-1.7955,-0.0,-0.0,-0.0,-0.0,-0.0,-0.0,-0.0,-0.0,-0.1673,-0.2233,-0.205,-0.0556,-0.0,-0.0,-0.0,-0.0,-0.0,0.1726,0.2492,0.2288,0.0755,-0.0,-0.0,-0.0,0.1128,0.2844,0.3198,0.3204,0.3046,0.3028,0.3025,0.304,0.3035,0.302,0.2998,0.302,0.3011,0.2971,0.2189,0.1271,-0.0,-0.0,-0.0,-0.0,-0.0,-0.0,-0.0,-0.0,-0.0,-0.0,-0.0,-0.0,-0.0,-0.0,-0.0,-0.0,-0.0,-0.0,-0.0,-0.1687,-0.2766,-0.2985,-0.3198,-0.3408,-0.3397,-0.3337,-0.3283,-0.3255,-0.3247,-0.3239,-0.3234,-0.3238,-0.324,-0.3242,-0.3268,-0.4105,-0.5542,-0.5788,-0.664,-0.8486,-0.8906,-0.915,-1.0036,-1.1517,-1.2813,-1.3752,-1.55,-1.6992,-1.6985,-1.6978,-1.6985,-1.7012,-1.7005,-1.6992,-1.7026,-1.7107,-1.7202,-1.7263,-1.7385,-1.7521,-1.765,-1.7697,-1.7731,-1.7833,-1.7853,-1.7853,-1.786,-1.786,-1.786,-1.786,-1.786,-1.786,-1.7867,-1.7982,-1.803,-0.0,-0.0,-0.0,-0.0,-0.0,-0.0,-0.0,-0.0,-0.0188,-0.0189,-0.0,-0.0,-0.0,-0.0,-0.0,-0.0,-0.0,-0.0,-0.0,-0.0,-0.0,-0.0,-0.0,-0.0,0.1163,0.2926,0.3096,0.3071,0.3058,0.3051,0.3036,0.301,0.2984,0.2972,0.2968,0.2972,0.2981,0.3001,0.2971,0.1847,-0.0,-0.0,-0.0,-0.0,-0.0,-0.0,-0.0,-0.0,-0.0,-0.0,-0.0,-0.0,-0.0,-0.0,-0.0,-0.0,-0.0,-0.0,-0.0,-0.021,-0.0846,-0.1704,-0.2772,-0.3401,-0.3377,-0.3363,-0.3345,-0.3314,-0.3287,-0.3261,-0.3236,-0.3255,-0.327,-0.3273,-0.3299,-0.3524,-0.3734,-0.3553,-0.4396,-0.6635,-0.689,-0.7549,-0.9229,-1.0069,-1.1149,-1.3137,-1.5084,-1.6584,-1.6564,-1.6571,-1.6828,-1.7107,-1.7073,-1.706,-1.7148,-1.7182,-1.7317,-1.7528,-1.7609,-1.7684,-1.7779,-1.7826,-1.786,-1.7887,-1.7867,-1.7867,-1.788,-1.786,-1.786,-1.7867,-1.7867,-1.7874,-1.788,-1.8009,-1.805,0.572,0.3618,0.3616,0.2088,0.0756,0.5087,0.7175,0.7011,0.4543,0.3603,0.3608,0.3547,0.2248,-0.0,-0.0,-0.0,-0.0,-0.0,-0.0,-0.0,-0.0,-0.0,-0.0,-0.0,0.0778,0.2159,0.2934,0.3118,0.3104,0.3088,0.3063,0.3036,0.3021,0.3006,0.2991,0.3006,0.3013,0.3006,0.3013,0.2638,0.1883,0.0562,-0.0,-0.0,-0.0,-0.0,-0.0,-0.0,-0.0,-0.0,-0.0,-0.0,-0.0,-0.0,-0.0,-0.0,-0.0,-0.0,-0.0,-0.0,-0.0212,-0.0639,-0.1705,-0.2554,-0.3395,-0.3393,-0.3381,-0.335,-0.332,-0.3296,-0.3285,-0.3295,-0.3302,-0.3307,-0.3329,-0.3348,-0.3348,-0.3374,-0.3809,-0.464,-0.4652,-0.5084,-0.6137,-0.7613,-0.9526,-1.1249,-1.318,-1.4241,-1.4862,-1.5133,-1.5842,-1.675,-1.7209,-1.7263,-1.7324,-1.7412,-1.7514,-1.7623,-1.7724,-1.7812,-1.784,-1.786,-1.7887,-1.7975,-1.7921,-1.7921,-1.7996,-1.7907,-1.786,-1.7887,-1.7962,-1.7996,-1.7996,-1.8186,-1.8253,1.0502,0.7996,0.7802,0.6093,0.4004,0.9759,1.2275,1.1889,0.8988,0.7823,0.7799,0.7743,0.6241,0.3428,0.2281,0.1141,-0.0,-0.0,-0.0,-0.0,0.2278,-0.0,0.3494,0.2142,0.2155,0.2961,0.3749,0.3741,0.3142,0.3122,0.3099,0.308,0.3077,0.3062,0.3037,0.3055,0.305,0.3024,0.3041,0.3052,0.2859,0.171,0.0566,-0.0,-0.0,-0.0,-0.0,-0.0,-0.0,-0.0,-0.0,-0.0,-0.0,-0.0,-0.0,-0.0,-0.0,-0.0,-0.0,-0.0,-0.0,-0.0,-0.0853,-0.1918,-0.2985,-0.3411,-0.3403,-0.3382,-0.3358,-0.3343,-0.3322,-0.3329,-0.3333,-0.3335,-0.336,-0.3378,-0.3381,-0.34,-0.3411,-0.3411,-0.362,-0.3411,-0.3624,-0.5322,-0.7231,-0.8925,-0.956,-1.1285,-1.2787,-1.3503,-1.4429,-1.6882,-1.7433,-1.748,-1.7494,-1.7548,-1.765,-1.7724,-1.7806,-1.7846,-1.786,-1.786,-1.7867,-1.7928,-1.7914,-1.7928,-1.7975,-1.7921,-1.7968,-1.8002,-1.8077,-1.8131,-1.8077,-1.8308,-1.8362,1.2037,1.1847,1.1842,1.1523,1.162,1.2401,1.2598,1.2203,1.1807,1.175,1.1657,1.1636,1.1641,1.0872,0.736,0.3769,-0.0,-0.0,-0.0,-0.0,0.8085,1.2089,1.202,0.8113,0.618,0.6022,0.6188,0.5349,0.3343,0.3142,0.3141,0.3137,0.3134,0.312,0.3093,0.3091,0.308,0.3051,0.3051,0.3052,0.3055,0.2886,0.1922,-0.0,-0.0,-0.0,-0.0,-0.0,-0.0,-0.0,-0.0,-0.0,-0.0,-0.0,-0.0,-0.0,-0.0,-0.0,-0.0,-0.0,-0.0,-0.0,-0.0,-0.1066,-0.2768,-0.3194,-0.3405,-0.3407,-0.3399,-0.3377,-0.3339,-0.3352,-0.3363,-0.3366,-0.339,-0.3405,-0.3408,-0.3408,-0.3411,-0.3411,-0.3411,-0.3411,-0.3411,-0.3411,-0.4898,-0.5957,-0.5313,-0.5964,-1.0734,-1.2282,-1.3243,-1.5802,-1.7213,-1.7677,-1.765,-1.767,-1.7724,-1.7785,-1.7826,-1.786,-1.786,-1.7867,-1.7874,-1.7907,-1.7962,-1.7982,-1.7955,-1.8023,-1.8158,-1.8226,-1.8247,-1.8267,-1.8172,-1.8247,-1.8335,1.2433,1.2422,1.2229,1.2256,1.2288,1.2687,1.2886,1.2676,1.2406,1.2352,1.2297,1.2227,1.2188,1.2188,1.0611,0.929,0.7423,0.247,-0.0,-0.0,0.8611,1.2604,1.2792,1.1245,0.9744,0.865,0.8442,0.7788,0.6135,0.4151,0.3744,0.432,0.3728,0.3125,0.3101,0.3097,0.3082,0.3055,0.3052,0.3052,0.3056,0.3081,0.2706,0.212,0.0782,-0.0,-0.0,-0.0,-0.0,-0.0,-0.0,-0.0,-0.0,-0.0,-0.0,-0.0,-0.0,-0.0,-0.0,-0.0,-0.0,-0.0,-0.0,-0.0,-0.127,-0.2113,-0.2748,-0.3171,-0.3382,-0.3375,-0.3385,-0.339,-0.3396,-0.3397,-0.3404,-0.3411,-0.3411,-0.3411,-0.3411,-0.3411,-0.3411,-0.3411,-0.3411,-0.3411,-0.3624,-0.4263,-0.3851,-0.5371,-0.7763,-0.7385,-0.7451,-1.1242,-1.5116,-1.788,-1.7833,-1.7806,-1.7812,-1.7833,-1.786,-1.786,-1.786,-1.786,-1.7874,-1.7941,-1.8009,-1.803,-1.8002,-1.805,-1.8199,-1.8152,-1.8206,-1.8328,-1.8267,-1.8369,-1.847,1.2547,1.2536,1.2336,1.2358,1.239,1.2786,1.2987,1.2775,1.2659,1.2395,1.2341,1.2227,1.2172,1.2172,1.2172,1.2183,1.1636,0.6288,-0.0,0.4393,0.9824,1.2477,1.2819,1.2869,1.1961,1.0066,0.9476,0.8836,0.7987,0.5779,0.5365,0.6333,0.4352,0.3544,0.3713,0.3311,0.3097,0.3073,0.3067,0.3067,0.3071,0.3107,0.3127,0.2938,0.1786,0.0599,-0.0,-0.0,-0.0,-0.0,-0.0,-0.0,-0.0,-0.0,-0.0,-0.0,-0.0,-0.0,-0.0,-0.0,-0.0,-0.0,-0.0,-0.0,-0.0,-0.0845,-0.1899,-0.2949,-0.3367,-0.3374,-0.3381,-0.3389,-0.34,-0.3408,-0.3411,-0.3411,-0.3411,-0.3411,-0.3411,-0.3411,-0.3411,-0.3411,-0.3411,-0.3411,-0.3416,-0.3423,-0.3446,-0.4323,-0.5441,-0.4387,-0.2655,-0.5979,-1.3177,-1.5471,-1.5892,-1.5856,-1.7398,-1.7646,-1.7874,-1.7874,-1.7867,-1.7867,-1.7887,-1.7975,-1.8023,-1.8043,-1.807,-1.8097,-1.807,-1.8016,-1.8165,-1.8342,-1.8389,-1.8504,-1.8559,1.2547,1.2558,1.2542,1.2417,1.2502,1.271,1.2908,1.2891,1.2574,1.246,1.2368,1.2232,1.2178,1.2183,1.2194,1.2183,1.2037,1.1166,1.1008,1.1225,1.2184,1.2486,1.2524,1.2797,1.2248,1.0672,0.9063,0.846,0.845,0.8245,0.8242,0.7644,0.5023,0.4197,0.5561,0.3941,0.3129,0.3104,0.3097,0.3097,0.3104,0.3152,0.318,0.3186,0.3012,0.2011,-0.0,-0.0,-0.0,-0.0,-0.0,-0.0,-0.0,-0.0,-0.0,-0.0,-0.0,-0.0,-0.0,-0.0,-0.0,-0.0,-0.0,-0.0,-0.0,-0.0,-0.0847,-0.2525,-0.315,-0.3356,-0.334,-0.3355,-0.338,-0.3405,-0.3408,-0.3411,-0.3411,-0.3411,-0.3411,-0.3411,-0.3411,-0.3411,-0.3412,-0.3416,-0.3427,-0.3446,-0.303,-0.3267,-0.3744,-0.31,-0.2223,-0.2898,-0.7819,-1.1852,-1.2757,-1.3652,-1.588,-1.7444,-1.7887,-1.7894,-1.7887,-1.788,-1.7874,-1.7935,-1.7975,-1.8002,-1.8057,-1.8084,-1.8111,-1.8104,-1.8267,-1.8348,-1.8409,-1.8477,-1.8565,1.2781,1.2776,1.2776,1.2792,1.283,1.283,1.283,1.2808,1.2623,1.2515,1.2444,1.2259,1.2216,1.2286,1.2297,1.2341,1.2422,1.2272,1.2251,1.2417,1.2731,1.2847,1.2716,1.2748,1.2604,1.2069,1.1678,1.1478,1.1278,1.1273,1.0872,0.9464,0.6843,0.5611,0.5571,0.397,0.316,0.3133,0.3129,0.3129,0.3131,0.3168,0.3189,0.3191,0.3216,0.2822,0.2213,0.0807,-0.0,-0.0,-0.0,-0.0,-0.0,-0.0,-0.0,-0.0,-0.0,-0.0,-0.0,-0.0,-0.0,-0.0,-0.0,-0.0,-0.0,-0.0,-0.0,-0.0,-0.2294,-0.3336,-0.3351,-0.336,-0.3371,-0.338,-0.3399,-0.3411,-0.3411,-0.3411,-0.3411,-0.3411,-0.3411,-0.3411,-0.3416,-0.3425,-0.3445,-0.3028,-0.2181,-0.1543,-0.2659,-0.2006,-0.1115,-0.089,-0.512,-0.0,-0.8889,-1.0452,-1.2689,-1.5156,-1.6292,-1.6317,-1.6767,-1.7907,-1.7901,-1.7894,-1.7928,-1.7962,-1.8023,-1.805,-1.807,-1.8138,-1.8226,-1.8287,-1.8335,-1.843,-1.8552,1.289,1.289,1.289,1.289,1.289,1.289,1.289,1.2863,1.2683,1.2602,1.2558,1.2395,1.2346,1.2411,1.2422,1.246,1.2531,1.2336,1.232,1.2493,1.2753,1.2863,1.2957,1.2776,1.2808,1.2873,1.289,1.289,1.289,1.289,1.2284,1.1073,0.8854,0.723,0.6393,0.4981,0.377,0.3359,0.316,0.316,0.3165,0.3189,0.3204,0.3206,0.3221,0.3236,0.3246,0.162,0.0607,-0.0,-0.0,-0.0,-0.0,-0.0,-0.0,-0.0,-0.0,-0.0,-0.0,-0.0,-0.0,-0.0,-0.0,-0.0,-0.0,-0.0,-0.0,-0.0,-0.1246,-0.2493,-0.3122,-0.3344,-0.3352,-0.3366,-0.3395,-0.341,-0.3411,-0.3411,-0.3411,-0.3411,-0.3411,-0.3411,-0.3418,-0.3438,-0.3245,-0.2607,-0.1318,-0.0222,-0.1559,-0.0895,-0.0,-0.0,-0.0,-0.0,-0.0,-0.7286,-0.9749,-1.2209,-1.4686,-1.4271,-1.407,-1.6805,-1.7948,-1.7907,-1.7914,-1.7901,-1.7941,-1.7962,-1.7989,-1.8084,-1.8172,-1.8233,-1.8301,-1.847,-1.8599,1.3079,1.2884,1.289,1.2884,1.2884,1.289,1.289,1.2868,1.2754,1.2694,1.2667,1.2558,1.2526,1.2536,1.2542,1.2564,1.2558,1.2536,1.2406,1.2465,1.2694,1.2935,1.2852,1.2868,1.2873,1.2884,1.289,1.289,1.289,1.289,1.289,1.2484,1.0667,0.926,0.8038,0.6592,0.4981,0.3788,0.3589,0.3389,0.3191,0.3217,0.3232,0.3234,0.3239,0.3254,0.3272,0.2651,0.1424,-0.0,-0.0,-0.0,-0.0,-0.0,-0.0,-0.0,-0.0,-0.0,-0.0,-0.0,-0.0,-0.0,-0.0,-0.0,-0.0,-0.0,-0.0,-0.0,-0.0,-0.1037,-0.2685,-0.3315,-0.3343,-0.3369,-0.3396,-0.341,-0.3198,-0.3198,-0.3411,-0.3411,-0.3411,-0.3414,-0.3418,-0.3445,-0.304,-0.2188,-0.0,-0.0,-0.0,-0.0,-0.0,-0.0,-0.0,-0.0,-0.0,-0.0,-0.0,-0.6861,-0.0,-0.0,-0.0,-1.3415,-1.7288,-1.7477,-1.7894,-1.7874,-1.7874,-1.7901,-1.7941,-1.8009,-1.8091,-1.8165,-1.8321,-1.8518,-1.8674,1.3994,1.4077,1.3279,1.2879,1.2879,1.2884,1.289,1.2873,1.2759,1.2716,1.2683,1.2585,1.2591,1.2656,1.2661,1.2705,1.2727,1.2814,1.2656,1.2583,1.2651,1.2913,1.2857,1.289,1.289,1.289,1.289,1.289,1.289,1.289,1.289,1.289,1.1273,1.0271,0.9657,0.8235,0.6628,0.5226,0.5023,0.4222,0.3223,0.3247,0.3262,0.3265,0.3284,0.3298,0.3311,0.3116,0.2061,-0.0,-0.0,-0.0,-0.0,-0.0,-0.0,-0.0,-0.0,-0.0,-0.0,-0.0,-0.0,-0.0,-0.0,-0.0,-0.0,-0.0,-0.0,-0.0,-0.0,-0.0838,-0.2717,-0.314,-0.3369,-0.3395,-0.3407,-0.2985,-0.2558,-0.2985,-0.3411,-0.3411,-0.3412,-0.3423,-0.3442,-0.3471,-0.3282,-0.2647,-0.0,-0.0,-0.0,-0.0,-0.0,-0.0,-0.0,-0.0,-0.0,-0.0,-0.0,-0.0,-0.0,-0.0,-0.0,-0.8014,-1.2733,-1.6342,-1.7458,-1.7887,-1.7867,-1.7874,-1.7921,-1.7955,-1.8104,-1.8233,-1.8423,-1.8613,-1.8776,1.4409,1.4476,1.3878,1.3267,1.3062,1.3079,1.3084,1.2868,1.2814,1.2781,1.2765,1.2716,1.2721,1.2776,1.2781,1.2819,1.2857,1.2897,1.2716,1.2625,1.2748,1.2974,1.2868,1.309,1.309,1.289,1.309,1.309,1.309,1.309,1.309,1.289,1.2284,1.1478,1.0471,0.9665,0.8259,0.6852,0.6047,0.4847,0.345,0.3265,0.3283,0.3292,0.3313,0.3321,0.3325,0.335,0.2293,-0.0,-0.0,-0.0,-0.0,-0.0,-0.0,-0.0,-0.0,-0.0,-0.0,-0.0,-0.0,-0.0,-0.0,-0.0,-0.0,-0.0,-0.0,-0.0,-0.0,-0.0,-0.1684,-0.2744,-0.2756,-0.2129,-0.2772,-0.2772,-0.1918,-0.2345,-0.2772,-0.32,-0.3423,-0.3435,-0.3457,-0.3276,-0.3304,-0.2882,-0.1339,-0.0,-0.0,-0.0,-0.0,-0.0,-0.0,-0.0,-0.0,-0.0,-0.0,-0.0,-0.0,-0.0,-0.0,-0.6238,-0.9813,-1.4542,-1.6336,-1.7894,-1.7874,-1.7867,-1.7887,-1.7968,-1.8138,-1.8301,-1.8477,-1.8654,-1.8816,1.4663,1.4676,1.4676,1.4065,1.3456,1.3678,1.3484,1.2879,1.3073,1.2879,1.2873,1.2884,1.2846,1.2873,1.2825,1.2852,1.3029,1.2897,1.3144,1.3013,1.3234,1.3267,1.3279,1.349,1.3484,1.3284,1.369,1.349,1.3484,1.3684,1.349,1.329,1.3284,1.2484,1.1278,1.0872,0.987,0.846,0.7254,0.5861,0.4472,0.4084,0.3694,0.3302,0.3324,0.333,0.3337,0.3145,0.2308,-0.0,-0.0,-0.0,-0.0,-0.0,-0.0,-0.0,-0.0,-0.0,-0.0,-0.0,-0.0,-0.0,-0.0,-0.0,-0.0,-0.0,-0.0,-0.0,-0.0,-0.0,-0.0422,-0.191,-0.1916,-0.1066,-0.1918,-0.2345,-0.1918,-0.1492,-0.1918,-0.32,-0.3438,-0.3454,-0.3258,-0.3289,-0.3327,-0.2003,-0.0,-0.0,-0.0,-0.0,-0.0,-0.0,-0.0,-0.0,-0.0,-0.0,-0.0,-0.0,-0.0,-0.0,-0.0,-0.8727,-0.9839,-1.2302,-1.612,-1.7901,-1.7874,-1.7874,-1.7894,-1.7975,-1.8138,-1.8301,-1.8464,-1.864,-1.8816,1.5572,1.5678,1.528,1.528,1.528,1.4682,1.3878,1.3073,1.3284,1.329,1.309,1.289,1.2835,1.2748,1.2952,1.2891,1.3217,1.3183,1.3614,1.5144,1.4446,1.4271,1.4077,1.3878,1.3884,1.4077,1.4277,1.4277,1.4277,1.4089,1.4083,1.3695,1.3707,1.329,1.2489,1.2284,1.1678,1.0271,0.9464,0.8471,0.6887,0.5711,0.4511,0.3501,0.3332,0.3355,0.3362,0.3386,0.2752,0.1685,-0.0,-0.0,-0.0,-0.0,-0.0,-0.0,-0.0,-0.0,-0.0,-0.0,-0.0,-0.0,-0.0,-0.0,-0.0,-0.0,-0.0,-0.0,-0.0,-0.0,-0.0,-0.0,-0.0,-0.0,-0.0,-0.0,-0.0,-0.0,-0.1279,-0.2565,-0.3226,-0.3034,-0.2399,-0.2862,-0.2445,-0.1117,-0.0,-0.0,-0.0,-0.0,-0.0,-0.0,-0.0,-0.0,-0.0,-0.0,-0.0,-0.0,-0.0,-1.05,-1.1214,-1.2121,-1.345,-1.4792,-1.6818,-1.7693,-1.7867,-1.7948,-1.7982,-1.8063,-1.8152,-1.8335,-1.8511,-1.8667,-1.8877,1.594,1.6076,1.5884,1.5884,1.589,1.528,1.4682,1.4283,1.4083,1.3884,1.3684,1.3684,1.3609,1.3499,1.3488,1.3626,1.3538,1.3756,1.4422,1.5723,1.5427,1.5042,1.4787,1.4601,1.4415,1.4663,1.4875,1.4676,1.4688,1.4738,1.4787,1.4178,1.4373,1.4184,1.3352,1.3318,1.2684,1.1678,1.0872,1.0087,0.9128,0.7776,0.5586,0.3745,0.3366,0.3385,0.339,0.3401,0.3189,0.2756,0.1905,0.1058,-0.0,-0.0,-0.0,-0.0,-0.0,-0.0,-0.0,-0.0,-0.0,-0.0,-0.0,-0.0,-0.0,-0.0,-0.0,-0.0,-0.0,-0.0,-0.0,-0.0,-0.0,-0.0,-0.0,-0.0,-0.0,-0.0,-0.0427,-0.1716,-0.2595,-0.2837,-0.286,-0.2658,-0.0,-0.0,-0.0,-0.0,-0.0,-0.0,-0.0,-0.0,-0.0,-0.0,-0.0,-0.0,-0.0,-0.0,-0.0,-1.4826,-1.5512,-1.6416,-1.7308,-1.7739,-1.7713,-1.7901,-1.788,-1.7975,-1.8057,-1.8097,-1.8206,-1.8396,-1.8606,-1.8823,-1.904,1.594,1.6083,1.6083,1.6083,1.6083,1.5678,1.5685,1.5897,1.5087,1.4682,1.4476,1.4476,1.4192,1.4275,1.4244,1.4171,1.4097,1.4523,1.5165,1.5845,1.5927,1.5519,1.5257,1.5054,1.5106,1.4831,1.5228,1.5036,1.51,1.5189,1.5201,1.4837,1.5044,1.4812,1.4202,1.3747,1.329,1.2684,1.1678,1.1101,1.0564,0.9424,0.725,0.5253,0.5074,0.4244,0.3828,0.3623,0.3835,0.3411,0.3411,0.2345,0.0853,-0.0,-0.0,-0.0,-0.0,-0.0,-0.0,-0.0,-0.0,-0.0,-0.0,-0.0,-0.0,-0.0,-0.0,-0.0,-0.0,-0.0,-0.0,-0.0,-0.0,-0.0,-0.0,-0.0,-0.0,-0.0,-0.0,-0.0431,-0.1521,-0.1971,-0.2208,-0.0,-0.0,-0.0,-0.0,-0.0,-0.0,-0.0,-0.0,-0.0,-0.0,-0.0,-0.0,-0.0,-0.0,-1.0928,-1.7104,-1.7557,-1.7996,-1.7962,-1.7941,-1.7935,-1.7907,-1.7887,-1.7928,-1.8043,-1.8104,-1.8131,-1.8267,-1.847,-1.8715,-1.8986,-1.9162,1.594,1.6083,1.6083,1.6083,1.6083,1.6076,1.609,1.6096,1.589,1.5286,1.4676,1.447,1.4533,1.4171,1.4116,1.403,1.413,1.4738,1.5195,1.5676,1.5737,1.5522,1.5495,1.5482,1.5555,1.5656,1.5703,1.575,1.5658,1.5911,1.5564,1.5125,1.5131,1.4938,1.4543,1.369,1.349,1.3513,1.2706,1.2326,1.1959,1.0789,0.9451,0.7729,0.8213,0.7197,0.489,0.4898,0.49,0.3625,0.3411,0.2772,0.1492,0.0639,-0.0,-0.0,-0.0,-0.0,-0.0,-0.0,-0.0,-0.0,-0.0,-0.0,-0.0,-0.0,-0.0,-0.0,-0.0,-0.0,-0.0,-0.0,-0.0,-0.0,-0.0,-0.0,-0.0,-0.0,-0.0,-0.0,-0.0,-0.1098,-0.1329,-0.0,-0.0,-0.0,-0.0,-0.0,-0.0,-0.0,-0.0,-0.0,-0.0,-0.0,-0.0,-0.0,-1.5383,-1.4708,-1.7699,-1.751,-1.7941,-1.7901,-1.788,-1.7894,-1.7914,-1.7907,-1.7989,-1.8091,-1.8179,-1.8226,-1.8382,-1.8545,-1.8755,-1.8959,-1.9088,1.594,1.6076,1.6083,1.6083,1.6083,1.6083,1.6083,1.609,1.609,1.5884,1.5453,1.5196,1.5054,1.488,1.477,1.4661,1.476,1.4997,1.5254,1.5527,1.5401,1.5388,1.5533,1.552,1.5615,1.5703,1.575,1.5872,1.6069,1.6171,1.5971,1.5797,1.579,1.5797,1.5583,1.5131,1.4131,1.396,1.3581,1.3206,1.3069,1.2084,1.1395,1.1521,1.1386,1.0602,0.9144,0.6174,0.5324,0.3834,0.3411,0.2985,0.2345,0.1492,0.0639,-0.0,-0.0,-0.0,-0.0,-0.0,-0.0,-0.0,-0.0,-0.0,-0.0,-0.0,-0.0,-0.0,-0.0,-0.0,-0.0,-0.0,-0.0,-0.0,-0.0,-0.0,-0.0,-0.0,-0.0,-0.0,-0.0,-0.0,-0.0891,-0.0,-0.0,-0.0,-0.0,-0.0,-0.0,-0.0,-0.0,-0.0,-0.0,-0.0,-0.0,-0.0,-1.7184,-1.7846,-1.7867,-1.7901,-1.7907,-1.788,-1.7874,-1.788,-1.7894,-1.7907,-1.7955,-1.803,-1.8172,-1.8321,-1.845,-1.8586,-1.8755,-1.8918,-1.9067,1.5947,1.6083,1.6083,1.6083,1.6076,1.6042,1.6029,1.6029,1.5995,1.5974,1.5974,1.5866,1.573,1.5581,1.5438,1.5296,1.5194,1.5127,1.535,1.5384,1.5267,1.5267,1.5398,1.5391,1.5466,1.5642,1.5662,1.5791,1.6049,1.6171,1.6246,1.6225,1.6252,1.6273,1.6225,1.5531,1.4982,1.444,1.3672,1.3531,1.3238,1.3145,1.3043,1.358,1.3613,1.3418,1.2364,0.9367,0.6384,0.4896,0.4048,0.3837,0.3411,0.2558,0.1492,-0.0,-0.0,-0.0,-0.0,-0.0,-0.0,-0.0,-0.0,-0.0,-0.0,-0.0,-0.0,-0.0,-0.0,-0.0,-0.0,-0.0,-0.0,-0.0,-0.0,-0.0,-0.0,-0.0,-0.0,-0.0,-0.0,-0.0,-0.0,-0.0,-0.0,-0.0,-0.0,-0.0,-0.0,-0.0,-0.0,-0.0,-0.0,-0.0,-0.0,-0.0,-1.4498,-1.7806,-1.7846,-1.7894,-1.7887,-1.7867,-1.7867,-1.7874,-1.7874,-1.7887,-1.7928,-1.803,-1.8226,-1.8382,-1.8491,-1.864,-1.8837,-1.8993,-1.9135,1.5947,1.6083,1.6083,1.6083,1.6062,1.6144,1.5886,1.5669,1.5764,1.5696,1.573,1.5676,1.5581,1.5432,1.5289,1.5208,1.5201,1.5208,1.5235,1.5248,1.5269,1.5276,1.5221,1.5208,1.5411,1.5608,1.5649,1.5811,1.6029,1.6117,1.611,1.611,1.6123,1.6117,1.6137,1.5505,1.4756,1.4458,1.3683,1.3344,1.3254,1.3368,1.322,1.3268,1.3548,1.3607,1.3401,1.1055,0.872,0.5962,0.5539,0.49,0.3624,0.3411,0.1918,-0.0,-0.0,-0.0,-0.0,-0.0,-0.0,-0.0,-0.0,-0.0,-0.0,-0.0,-0.0,-0.0,-0.0,-0.0,-0.0,-0.0,-0.0,-0.0,-0.0,-0.0,-0.0,-0.0,-0.0,-0.0,-0.0,-0.0,-0.0,-0.0,-0.0,-0.0,-0.0,-0.0,-0.0,-0.0,-0.0,-0.0,-0.0,-0.0,-0.0,-0.0,-1.2714,-1.7118,-1.7833,-1.788,-1.7874,-1.786,-1.786,-1.7867,-1.786,-1.7894,-1.7955,-1.8097,-1.8308,-1.843,-1.8511,-1.8708,-1.8938,-1.9074,-1.9196,1.6022,1.6083,1.6083,1.6083,1.6062,1.6124,1.5852,1.542,1.5308,1.5442,1.5615,1.554,1.5425,1.5289,1.5201,1.5181,1.5181,1.5181,1.5181,1.5181,1.5181,1.5181,1.5215,1.5276,1.5445,1.5594,1.5737,1.5872,1.6022,1.6062,1.6049,1.6179,1.6042,1.609,1.6083,1.5685,1.5214,1.4554,1.3854,1.333,1.3412,1.3433,1.3423,1.3423,1.3537,1.3558,1.3327,1.1887,0.9988,0.7659,0.66,0.5113,0.3624,0.2772,0.2131,-0.0,-0.0,-0.0,-0.0,-0.0,-0.0,-0.0,-0.0,-0.0,-0.0,-0.0,-0.0,-0.0,-0.0,-0.0,-0.0,-0.0,-0.0,-0.0,-0.0,-0.0,-0.0,-0.0,-0.0,-0.0,-0.0,-0.0,-0.0,-0.0,-0.0,-0.0,-0.0,-0.0,-0.0,-0.0,-0.0,-0.0,-0.0,-0.0,-0.0,-0.5787,-1.1807,-1.6022,-1.7833,-1.7867,-1.7867,-1.786,-1.786,-1.786,-1.786,-1.7907,-1.7982,-1.8097,-1.8253,-1.8389,-1.8525,-1.8715,-1.8911,-1.9094,-1.9217,1.6029,1.6029,1.6022,1.6029,1.6206,1.6028,1.5737,1.5314,1.5182,1.5321,1.5499,1.5404,1.5289,1.5201,1.5187,1.5181,1.5181,1.5181,1.5181,1.5181,1.5181,1.5181,1.5208,1.5303,1.5438,1.5635,1.5649,1.5784,1.5906,1.5988,1.5974,1.611,1.6035,1.6076,1.6083,1.5904,1.5616,1.4855,1.3962,1.3647,1.3714,1.3664,1.362,1.3631,1.3681,1.352,1.3455,1.265,1.0796,0.8504,0.7447,0.5962,0.3837,0.2558,0.2345,0.2345,0.1279,-0.0,-0.0,-0.0,-0.0,-0.0,-0.0,-0.0,-0.0,-0.0,-0.0,-0.0,-0.0,-0.0,-0.0,-0.0,-0.0,-0.0,-0.0,-0.0,-0.0,-0.0,-0.0,-0.0,-0.0,-0.0,-0.0,-0.0,-0.0,-0.0,-0.0,-0.0,-0.0,-0.0,-0.0,-0.0,-0.0,-0.0,-0.0,-0.0,-0.0,-1.4929,-1.6962,-1.7867,-1.7867,-1.7867,-1.786,-1.786,-1.786,-1.788,-1.7921,-1.805,-1.8186,-1.8348,-1.8511,-1.8667,-1.885,-1.9047,-1.9196,1.5872,1.5872,1.5866,1.6062,1.6048,1.6152,1.565,1.5267,1.5107,1.5242,1.5255,1.5215,1.5208,1.5187,1.5181,1.5181,1.5181,1.5181,1.5181,1.5181,1.5181,1.5181,1.5208,1.5269,1.5377,1.556,1.5615,1.5635,1.5689,1.5872,1.5947,1.6056,1.6056,1.6069,1.6096,1.5924,1.5636,1.4837,1.3939,1.38,1.3839,1.3811,1.3559,1.3504,1.357,1.3428,1.3625,1.3214,1.1797,0.8907,0.8276,0.6382,0.3834,0.2557,0.2558,0.2345,0.1279,-0.0,-0.0,-0.0,-0.0,-0.0,-0.0,-0.0,-0.0,-0.0,-0.0,-0.0,-0.0,-0.0,-0.0,-0.0,-0.0,-0.0,-0.0,-0.0,-0.0,-0.0,-0.0,-0.0,-0.0,-0.0,-0.0,-0.0,-0.0,-0.0,-0.0,-0.0,-0.0,-0.0,-0.0,-0.0,-0.0,-0.0,-0.0,-0.0,-0.0,-1.2496,-1.633,-1.7431,-1.7867,-1.7867,-1.786,-1.786,-1.786,-1.786,-1.7901,-1.8084,-1.824,-1.8355,-1.8491,-1.8633,-1.8823,-1.904,-1.9135,1.5723,1.5716,1.5622,1.5635,1.5904,1.5698,1.5609,1.5194,1.5248,1.5181,1.5181,1.5181,1.5181,1.5181,1.5181,1.5181,1.5181,1.5181,1.5181,1.5181,1.5181,1.5181,1.5221,1.5337,1.5493,1.5533,1.5581,1.5635,1.5662,1.5771,1.6055,1.6144,1.6029,1.6076,1.6096,1.5964,1.5486,1.5139,1.4416,1.3843,1.3911,1.3649,1.3393,1.357,1.3454,1.3259,1.3227,1.3281,1.1909,1.0303,0.9067,0.6563,0.4255,0.2981,0.2558,0.2557,0.1065,-0.0,-0.0,-0.0,-0.0,-0.0,-0.0,-0.0,-0.0,-0.0,-0.0,-0.0,-0.0,-0.0,-0.0,-0.0,-0.0,-0.0,-0.0,-0.0,-0.0,-0.0,-0.0,-0.0,-0.0,-0.0,-0.0,-0.0,-0.0,-0.0,-0.0,-0.0,-0.0,-0.0,-0.0,-0.0,-0.0,-0.0,-0.0,-0.0,-0.0,-0.9386,-1.5682,-1.7008,-1.788,-1.7867,-1.786,-1.786,-1.786,-1.786,-1.7948,-1.8152,-1.828,-1.8348,-1.845,-1.8572,-1.8789,-1.9013,-1.9033,1.5574,1.5554,1.5411,1.5432,1.5547,1.5602,1.5343,1.5323,1.5228,1.5181,1.5181,1.5181,1.5181,1.5181,1.5181,1.5181,1.5181,1.5181,1.5181,1.5181,1.5181,1.5181,1.5255,1.5343,1.5418,1.5452,1.552,1.5581,1.5649,1.5744,1.5778,1.5845,1.5974,1.6062,1.5917,1.5817,1.5512,1.5544,1.4708,1.4177,1.4288,1.3769,1.3289,1.3497,1.3156,1.3156,1.3124,1.2957,1.242,1.0635,0.9016,0.6952,0.508,0.3615,0.2983,0.213,0.1489,0.0849,-0.0,-0.0,-0.0,-0.0,-0.0,-0.0,-0.0,-0.0,-0.0,-0.0,-0.0,-0.0,-0.0,-0.0,-0.0,-0.0,-0.0,-0.0,-0.0,-0.0,-0.0,-0.0,-0.0,-0.0,-0.0,-0.0,-0.0,-0.0,-0.0,-0.0,-0.0,-0.0,-0.0,-0.0,-0.0,-0.0,-0.0,-0.0,-0.0,-0.8491,-1.4097,-1.7014,-1.7894,-1.7874,-1.786,-1.786,-1.786,-1.786,-1.7928,-1.8043,-1.8179,-1.8308,-1.847,-1.8681,-1.8708,-1.8898,-1.8857,1.5411,1.5398,1.5255,1.5282,1.5588,1.5255,1.5194,1.5187,1.5174,1.5167,1.5181,1.5181,1.5181,1.5181,1.5181,1.5181,1.5181,1.5181,1.5181,1.5181,1.5181,1.5181,1.5201,1.5255,1.5343,1.5357,1.5391,1.5466,1.5594,1.5622,1.5635,1.5723,1.5886,1.6062,1.609,1.5623,1.576,1.6259,1.512,1.5035,1.4675,1.4153,1.3486,1.3047,1.3058,1.3053,1.3047,1.3047,1.2313,1.1171,0.9165,0.7533,0.6093,0.4232,0.3397,0.3188,0.317,0.2107,-0.0,-0.0,-0.0,-0.0,-0.0,-0.0,-0.0,-0.0,-0.0,-0.0,-0.0,-0.0,-0.0,-0.0,-0.0,-0.0,-0.0,-0.0,-0.0,-0.0,-0.0,-0.0,-0.0,-0.0,-0.0,-0.0,-0.0,-0.0,-0.0,-0.0,-0.0,-0.0,-0.0,-0.0,-0.0,-0.0,-0.0,-0.0,-0.0,-0.0,-1.2747,-1.6342,-1.7901,-1.7874,-1.786,-1.786,-1.786,-1.786,-1.7867,-1.7887,-1.8084,-1.8308,-1.864,-1.8823,-1.881,-1.8755,-1.8721,1.5174,1.5255,1.5201,1.5208,1.5248,1.5208,1.5133,1.4859,1.5045,1.5092,1.5167,1.5181,1.5181,1.5181,1.5181,1.5181,1.5181,1.5181,1.5181,1.5181,1.5181,1.5181,1.5201,1.5255,1.5296,1.5282,1.5276,1.5282,1.5323,1.5445,1.5493,1.5567,1.5811,1.6172,1.6062,1.5944,1.5991,1.6031,1.5649,1.5101,1.4905,1.4279,1.3638,1.2971,1.2971,1.2966,1.2971,1.2977,1.2616,1.1681,0.9902,0.7867,0.6862,0.5027,0.3355,0.3359,0.3351,0.2315,-0.0,-0.0,-0.0,-0.0,-0.0,-0.0,-0.0,-0.0,-0.0,-0.0,-0.0,-0.0,-0.0,-0.0,-0.0,-0.0,-0.0,-0.0,-0.0,-0.0,-0.0,-0.0,-0.0,-0.0,-0.0,-0.0,-0.0,-0.0,-0.0,-0.0,-0.0,-0.0,-0.0,-0.0,-0.0,-0.0,-0.0,-0.0,-0.0,-0.0,-1.2975,-1.704,-1.7914,-1.7874,-1.786,-1.786,-1.786,-1.786,-1.7874,-1.7914,-1.8091,-1.8335,-1.8565,-1.8755,-1.8762,-1.8674,-1.8599,1.4977,1.5099,1.5052,1.5065,1.5113,1.516,1.4932,1.4845,1.4997,1.5052,1.5153,1.5133,1.514,1.5167,1.5181,1.5181,1.5181,1.5181,1.5181,1.5181,1.5181,1.5181,1.5221,1.5269,1.5248,1.5228,1.5262,1.5296,1.5309,1.5371,1.5486,1.5628,1.5945,1.5934,1.6035,1.609,1.6137,1.6178,1.5837,1.5447,1.5057,1.444,1.3817,1.3402,1.2971,1.2912,1.2928,1.2933,1.2922,1.1984,1.0401,0.8188,0.7208,0.5379,0.3525,0.3329,0.2702,0.1877,-0.0,-0.0,-0.0,-0.0,-0.0,-0.0,-0.0,-0.0,-0.0,-0.0,-0.0,-0.0,-0.0,-0.0,-0.0,-0.0,-0.0,-0.0,-0.0,-0.0,-0.0,-0.0,-0.0,-0.0,-0.0,-0.0,-0.0,-0.0,-0.0,-0.0,-0.0,-0.0,-0.0,-0.0,-0.0,-0.0,-0.0,-0.0,-0.0,-0.0,-1.2975,-1.7504,-1.7907,-1.786,-1.786,-1.786,-1.786,-1.7867,-1.7887,-1.7962,-1.8057,-1.8158,-1.8294,-1.8477,-1.864,-1.8586,-1.847,1.4821,1.493,1.4801,1.4835,1.497,1.5086,1.4946,1.4752,1.4825,1.5038,1.516,1.5031,1.5045,1.5153,1.5167,1.5153,1.5167,1.5167,1.5181,1.5181,1.5181,1.5181,1.5181,1.5194,1.5201,1.5194,1.5208,1.5276,1.5371,1.5357,1.5506,1.5689,1.5716,1.5845,1.5947,1.6035,1.6103,1.6164,1.6004,1.5843,1.5486,1.4843,1.4071,1.3469,1.3042,1.3004,1.2999,1.2977,1.2922,1.1934,0.9949,0.876,0.7167,0.4949,0.3932,0.3104,0.2265,0.1233,-0.0,-0.0,-0.0,-0.0,-0.0,-0.0,-0.0,-0.0,-0.0,-0.0,-0.0,-0.0,-0.0,-0.0,-0.0,-0.0,-0.0,-0.0,-0.0,-0.0,-0.0,-0.0,-0.0,-0.0,-0.0,-0.0,-0.0,-0.0,-0.0,-0.0,-0.0,-0.0,-0.0,-0.0,-0.0,-0.0,-0.0,-0.0,-0.0,-0.0,-1.387,-1.7955,-1.7907,-1.786,-1.786,-1.786,-1.786,-1.7867,-1.788,-1.7894,-1.7935,-1.803,-1.8118,-1.8274,-1.847,-1.8403,-1.8301,1.4665,1.4794,1.476,1.4767,1.4624,1.4664,1.4685,1.4671,1.4821,1.4889,1.5025,1.4991,1.4977,1.5031,1.5031,1.5038,1.5072,1.5126,1.5167,1.5181,1.5181,1.5181,1.5181,1.5181,1.5181,1.5181,1.5187,1.5208,1.5235,1.5262,1.5282,1.5357,1.5574,1.5676,1.5791,1.5879,1.6022,1.613,1.5777,1.5824,1.5499,1.4678,1.3909,1.3294,1.3113,1.308,1.3058,1.3026,1.2971,1.232,0.9693,0.8093,0.7894,0.5079,0.3261,0.308,0.225,-0.0,-0.0,-0.0,-0.0,-0.0,-0.0,-0.0,-0.0,-0.0,-0.0,-0.0,-0.0,-0.0,-0.0,-0.0,-0.0,-0.0,-0.0,-0.0,-0.0,-0.0,-0.0,-0.0,-0.0,-0.0,-0.0,-0.0,-0.0,-0.0,-0.0,-0.0,-0.0,-0.0,-0.0,-0.0,-0.0,-0.0,-0.0,-0.0,-0.0,-1.0866,-1.4946,-1.7935,-1.7894,-1.786,-1.786,-1.786,-1.786,-1.786,-1.7867,-1.788,-1.7901,-1.7887,-1.7962,-1.8124,-1.8247,-1.8213,-1.8186,1.4516,1.4631,1.459,1.4563,1.4563,1.4737,1.4744,1.457,1.4624,1.4733,1.4862,1.4808,1.4821,1.4889,1.5121,1.5348,1.5361,1.53,1.5368,1.5563,1.5362,1.5181,1.5181,1.5181,1.5181,1.5181,1.5181,1.5187,1.5194,1.5255,1.5289,1.533,1.5466,1.5608,1.5757,1.59,1.6001,1.589,1.5744,1.5551,1.5001,1.4458,1.3655,1.3294,1.3124,1.3102,1.3118,1.308,1.2982,1.2537,0.9903,0.8259,0.7455,0.5045,0.3236,0.3053,0.2438,0.1225,-0.0,-0.0,-0.0,-0.0,-0.0,-0.0,-0.0,-0.0,-0.0,-0.0,-0.0,-0.0,-0.0,-0.0,-0.0,-0.0,-0.0,-0.0,-0.0,-0.0,-0.0,-0.0,-0.0,-0.0,-0.0,-0.0,-0.0,-0.0,-0.0,-0.0,-0.0,-0.0,-0.0,-0.0,-0.0,-0.0,-0.0,-0.0,-0.8397,-1.0616,-1.5575,-1.786,-1.7853,-1.786,-1.786,-1.786,-1.786,-1.786,-1.786,-1.786,-1.7874,-1.786,-1.786,-1.7975,-1.8091,-1.8124,-1.8104,1.4373,1.4489,1.4353,1.4326,1.4306,1.4666,1.4673,1.4496,1.4448,1.4584,1.4679,1.4584,1.4611,1.4726,1.5181,1.5434,1.5498,1.561,1.5716,1.6119,1.5327,1.514,1.5174,1.5167,1.5153,1.5167,1.5181,1.5181,1.5215,1.5255,1.5316,1.5411,1.5608,1.573,1.5778,1.5913,1.6008,1.6076,1.5499,1.51,1.4694,1.4119,1.3558,1.3441,1.3239,1.3015,1.3316,1.3272,1.295,1.1964,1.0331,0.8263,0.6248,0.5043,0.3636,0.3033,0.2629,0.1831,0.0821,-0.0,-0.0,-0.0,-0.0,-0.0,-0.0,-0.0,-0.0,-0.0,-0.0,-0.0,-0.0,-0.0,-0.0,-0.0,-0.0,-0.0,-0.0,-0.0,-0.0,-0.0,-0.0,-0.0,-0.0,-0.0,-0.0,-0.0,-0.0,-0.0,-0.0,-0.0,-0.0,-0.0,-0.0,-0.0,-0.0,-0.0,-0.0,-1.0144,-1.4855,-1.7806,-1.7806,-1.7826,-1.786,-1.786,-1.786,-1.786,-1.786,-1.786,-1.786,-1.786,-1.786,-1.786,-1.7921,-1.8002,-1.8009,1.4319,1.4346,1.4312,1.4299,1.4299,1.4476,1.4843,1.5219,1.4694,1.4434,1.4543,1.4529,1.4523,1.475,1.5174,1.5426,1.5561,1.6258,1.6212,1.5853,1.5265,1.5059,1.5126,1.5052,1.5086,1.5153,1.5181,1.5181,1.5194,1.5228,1.5248,1.5262,1.5479,1.5622,1.5723,1.5866,1.5988,1.6076,1.5678,1.5061,1.4452,1.396,1.3649,1.3272,1.3058,1.3069,1.3113,1.3064,1.2971,1.2331,0.9685,0.7053,0.4438,0.3633,0.3232,0.3234,0.3032,0.2641,0.2044,0.1029,-0.0,-0.0,-0.0,-0.0,-0.0,-0.0,-0.0,-0.0,-0.0,-0.0,-0.0,-0.0,-0.0,-0.0,-0.0,-0.0,-0.0,-0.0,-0.0,-0.0,-0.0,-0.0,-0.0,-0.0,-0.0,-0.0,-0.0,-0.0,-0.0,-0.0,-0.0,-0.0,-0.0,-0.0,-0.0,-0.0,-0.0,-0.0,-1.1668,-1.4798,-1.7532,-1.7812,-1.786,-1.786,-1.786,-1.786,-1.786,-1.786,-1.786,-1.786,-1.786,-1.786,-1.786,-1.7921,-1.7914,1.4299,1.4299,1.4299,1.4299,1.4299,1.4476,1.4836,1.5027,1.4659,1.4517,1.4407,1.4421,1.4599,1.4792,1.5377,1.5665,1.6,1.6865,1.6827,1.6317,1.5334,1.4916,1.4731,1.4916,1.4984,1.5059,1.5153,1.5181,1.5174,1.5187,1.5194,1.5221,1.5377,1.5547,1.5669,1.5825,1.5981,1.6076,1.5665,1.5228,1.4601,1.4101,1.3535,1.3156,1.295,1.2999,1.284,1.2999,1.295,1.2114,0.9899,0.6654,0.4438,0.323,0.3231,0.3231,0.3235,0.3246,0.2654,0.1848,0.0413,-0.0,-0.0,-0.0,-0.0,-0.0,-0.0,-0.0,-0.0,-0.0,-0.0,-0.0,-0.0,-0.0,-0.0,-0.0,-0.0,-0.0,-0.0,-0.0,-0.0,-0.0,-0.0,-0.0,-0.0,-0.0,-0.0,-0.0,-0.0,-0.0,-0.0,-0.0,-0.0,-0.0,-0.0,-0.0,-0.0,-0.0,-0.0,-1.3455,-1.6885,-1.7599,-1.786,-1.786,-1.786,-1.786,-1.786,-1.786,-1.786,-1.786,-1.786,-1.786,-1.786,-1.786,-1.7874,1.4299,1.4299,1.4299,1.4299,1.4299,1.4646,1.4646,1.4476,1.4646,1.4646,1.4312,1.4312,1.4646,1.5049,1.5661,1.6003,1.6303,1.6907,1.7032,1.6353,1.5146,1.478,1.4577,1.4551,1.4821,1.4936,1.5059,1.5106,1.5126,1.5153,1.5201,1.5248,1.5418,1.5628,1.5703,1.5866,1.6029,1.6008,1.5777,1.5532,1.4947,1.418,1.358,1.3144,1.2721,1.283,1.2695,1.2917,1.2884,1.1899,1.0108,0.6864,0.444,0.3231,0.3231,0.3231,0.3231,0.3246,0.3058,0.2451,0.1238,-0.0,-0.0,-0.0,-0.0,-0.0,-0.0,-0.0,-0.0,-0.0,-0.0,-0.0,-0.0,-0.0,-0.0,-0.0,-0.0,-0.0,-0.0,-0.0,-0.0,-0.0,-0.0,-0.0,-0.0,-0.0,-0.0,-0.0,-0.0,-0.0,-0.0,-0.0,-0.0,-0.0,-0.0,-0.0,-0.0,-0.0,-0.6978,-1.212,-1.6237,-1.7385,-1.786,-1.786,-1.786,-1.7853,-1.786,-1.786,-1.786,-1.7853,-1.786,-1.786,-1.786,-1.786,-1.786,1.4299,1.4299,1.4299,1.4292,1.4278,1.4469,1.4285,1.4278,1.4469,1.4299,1.4299,1.4299,1.4653,1.4992,1.5888,1.6194,1.619,1.658,1.6484,1.6029,1.4986,1.4464,1.4295,1.4437,1.4665,1.4794,1.4936,1.4997,1.5086,1.5147,1.5187,1.5201,1.5479,1.5581,1.552,1.571,1.59,1.5879,1.5811,1.5542,1.5367,1.4624,1.3702,1.3296,1.2705,1.2599,1.2658,1.2674,1.2884,1.2294,1.0493,0.7059,0.4442,0.303,0.303,0.2828,0.303,0.3034,0.2842,0.2843,-0.0,-0.0,-0.0,-0.0,-0.0,-0.0,-0.0,-0.0,-0.0,-0.0,-0.0,-0.0,-0.0,-0.0,-0.0,-0.0,-0.0,-0.0,-0.0,-0.0,-0.0,-0.0,-0.0,-0.0,-0.0,-0.0,-0.0,-0.0,-0.0,-0.0,-0.0,-0.0,-0.0,-0.0,-0.0,-0.0,-0.0,-0.0,-0.5002,-1.0534,-1.4613,-1.7378,-1.7853,-1.7819,-1.7833,-1.784,-1.7846,-1.7819,-1.7833,-1.7826,-1.7853,-1.786,-1.7846,-1.7819,-1.7779]},{"header":{"parameterUnit":"m.s-1","parameterCategory":1,"la1":31.0,"la2":29.5877,"lo1":-88.7671,"lo2":-86.6584,"dy":0.0162,"dx":0.0185,"nx":115,"ny":88,"refTime":"2024-09-27T12:00:00:Z","depth":0,"parameterNumber":3,"parameterNumberName":"V-component_of_WINDS"},"data":[0.0,0.0,0.0,0.0,0.0,0.0,0.0,0.0,0.0,0.0,0.0,0.0,0.0,0.0,0.0,0.0,0.0,0.0,0.0,0.0,0.0,0.0,0.0,0.0,0.0,0.0,0.0,0.0,0.0,0.0,0.0,0.0,0.0,0.0,0.0,0.0,0.0,0.0,0.0,0.0,0.0,0.0,0.0,0.0,0.0,0.0,0.0,0.0,0.0,0.0,0.0,0.0,0.0,0.0,0.0,0.0,0.0,0.0,0.0,0.0,0.0,0.0,0.0,0.0,0.0,0.0,0.0,0.0,0.0,0.0,0.0,0.0,0.0,0.0,0.0,0.0,0.0,0.0,0.0,0.0,0.0,0.0,0.0,0.0,0.0,0.0,0.0,0.0,0.0,0.0,0.0,0.0,0.0,0.0,0.0,0.0,0.0,0.0,0.0,0.0,0.0,0.0,0.0,0.0,0.0,0.0,0.0,0.0,0.0,0.0,0.0,0.0,0.0,0.0,0.0,0.0,0.0,0.0,0.0,0.0,0.0,0.0,0.0,0.0,0.0,0.0,0.0,0.0,0.0,0.0,0.0,0.0,0.0,0.0,0.0,0.0,0.0,0.0,0.0,0.0,0.0,0.0,0.0,0.0,0.0,0.0,0.0,0.0,0.0,0.0,0.0,0.0,0.0,0.0,0.0,0.0,0.0,0.0,0.0,0.0,0.0,0.0,0.0,0.0,0.0,0.0,0.0,0.0,0.0,0.0,0.0,0.0,0.0,0.0,0.0,0.0,0.0,0.0,0.0,0.0,0.0,0.0,0.0,0.0,0.0,0.0,0.0,0.0,0.0,0.0,0.0,0.0,0.0,0.0,0.0,0.0,0.0,0.0,0.0,0.0,0.0,0.0,0.0,0.0,0.0,0.0,0.0,0.0,0.0,0.0,0.0,0.0,0.0,0.0,0.0,0.0,0.0,0.0,0.0,0.0,0.0,0.0,0.0,0.0,0.0,0.0,0.0,0.0,0.0,0.0,0.0,0.0,0.0,0.0,0.0,0.0,0.0,0.0,0.0,0.0,0.0,0.0,0.0,0.0,0.0,0.0,0.0,0.0,0.0,0.0,0.0,0.0,0.0,0.0,0.0,0.0,0.0,0.0,0.0,0.0,0.0,0.0,0.0,0.0,0.0,0.0,0.0,0.0,0.0,0.0,0.0,0.0,0.0,0.0,0.0,0.0,0.0,0.0,0.0,0.0,0.0,0.0,0.0,0.0,0.0,0.0,0.0,0.0,0.0,0.0,0.0,0.0,0.0,0.0,0.0,0.0,0.0,0.0,0.0,0.0,0.0,0.0,0.0,0.0,0.0,0.0,0.0,0.0,0.0,0.0,0.0,0.0,0.0,0.0,0.0,0.0,0.0,0.0,0.0,0.0,0.0,0.0,0.0,0.0,0.0,0.0,0.0,0.0,0.0,0.0,0.0,0.0,0.0,0.0,0.0,0.0,0.0,0.0,0.0,0.0,0.0,0.0,0.0,0.0,0.0,0.0,0.0,0.0,0.0,0.0,0.0,0.0,0.0,0.0,0.0,0.0,0.0,0.0,0.0,0.0,0.0,0.0,0.0,0.0,0.0,0.0,0.0,0.0,0.0,0.0,0.0,0.0,0.0,0.0,0.0,0.0,0.0,0.0,0.0,0.0,0.0,0.0,0.0,0.0,0.0,0.0,0.0,0.0,0.0,0.0,0.0,0.0,0.0,0.0,0.0,0.0,0.0,0.0,0.0,0.0,0.0,0.0,0.0,0.0,0.0,0.0,0.0,0.0,0.0,0.0,0.0,0.0,0.0,0.0,0.0,0.0,0.0,0.0,0.0,0.0,0.0,0.0,0.0,0.0,0.0,0.0,0.0,0.0,0.0,0.0,0.0,0.0,0.0,0.0,0.0,0.0,0.0,0.0,0.0,0.0,0.0,0.0,0.0,0.0,0.0,0.0,0.0,0.0,0.0,0.0,0.0,0.0,0.0,0.0,0.0,0.0,0.0,0.0,0.0,0.0,0.0,0.0,0.0,0.0,0.0,0.0,0.0,0.0,0.0,0.0,0.0,0.0,0.0,0.0,0.0,0.0,0.0,0.0,0.0,0.0,0.0,0.0,0.0,0.0,0.0,0.0,0.0,0.0,0.0,0.0,0.0,0.0,0.0,0.0,0.0,0.0,0.0,0.0,0.0,0.0,0.0,0.0,0.0,0.0,0.0,0.0,0.0,0.0,0.0,0.0,0.0,0.0,0.0,0.0,0.0,0.0,0.0,0.0,0.0,0.0,0.0,0.0,0.0,0.0,0.0,0.0,0.0,0.0,0.0,0.0,0.0,0.0,0.0,0.0,0.0,0.0,0.0,0.0,0.0,0.0,0.0,0.0,0.0,0.0,0.0,0.0,0.0,0.0,0.0,0.0,0.0,0.0,0.0,0.0,0.0,0.0,0.0,0.0,0.0,0.0,0.0,0.0,0.0,0.0,0.0,0.0,0.0,0.0,0.0,0.0,0.0,0.0,0.0,0.0,0.0,0.0,0.0,0.0,0.0,0.0,0.0,0.0,0.0,0.0,0.0,0.0,0.0,0.0,0.0,0.0,0.0,0.0,0.0,0.0,0.0,0.0,0.0,0.0,0.0,0.0,0.0,0.0,0.0,0.0,0.0,0.0,0.0,0.0,0.0,0.0,0.0,0.0,0.0,0.0,0.0,0.0,0.0,0.0,0.0,0.0,0.0,0.0,0.0,0.0,0.0,0.0,0.0,0.0,0.0,0.0,0.0,0.0,0.0,0.0,0.0,0.0,0.0,0.0,0.0,0.0,0.0,0.0,0.0,0.0,0.0,0.0,0.0,0.0,0.0,0.0,0.0,0.0,0.0,0.0,0.0,0.0,0.0,0.0,0.0,0.0,0.0,0.0,0.0,0.0,0.0,0.0,0.0,0.0,0.0,0.0,0.0,0.0,0.0,0.0,0.0,0.0,0.0,0.0,0.0,0.0,0.0,0.0,0.0,0.0,0.0,0.0,0.0,0.0,0.0,0.0,0.0,0.0,0.0,0.0,0.0,0.0,0.0,0.0,0.0,0.0,0.0,0.0,0.0,0.0,0.0,0.0,0.0,0.0,0.0,0.0,0.0,0.0,0.0,0.0,0.0,0.0,0.0,0.0,0.0,0.0,0.0,0.0,0.0,0.0,0.0,0.0,0.0,0.0,0.0,0.0,0.0,0.0,0.0,0.0,0.0,0.0,0.0,0.0,0.0,0.0,0.0,0.0,0.0,0.0,0.0,0.0,0.0,0.0,0.0,0.0,0.0,0.0,0.0,0.0,0.0,0.0,0.0,0.0,0.0,0.0,0.0,0.0,0.0,0.0,0.0,0.0,0.0,0.0,0.0,0.0,0.0,0.0,0.0,0.0,0.0,0.0,0.0,0.0,0.0,0.0,0.0,0.0,0.0,0.0,0.0,0.0,0.0,0.0,0.0,0.0,0.0,0.0,0.0,0.0,0.0,0.0,0.0,0.0,0.0,0.0,0.0,0.0,0.0,0.0,0.0,0.0,0.0,0.0,0.0,0.0,0.0,0.0,0.0,0.0,0.0,0.0,0.0,0.0,0.0,0.0,0.0,0.0,0.0,0.0,0.0,0.0,0.0,0.0,0.0,0.0,0.0,0.0,0.0,0.0,0.0,0.0,0.0,0.0,0.0,0.0,0.0,0.0,0.0,0.0,0.0,0.0,0.0,0.0,0.0,0.0,0.0,0.0,0.0,0.0,0.0,0.0,0.0,0.0,0.0,0.0,0.0,0.0,0.0,0.0,0.0,0.0,0.0,0.0,0.0,0.0,0.0,0.0,0.0,0.0,0.0,0.0,0.0,0.0,0.0,0.0,0.0,0.0,0.0,0.0,0.0,0.0,0.0,0.0,0.0,0.0,0.0,0.0,0.0,0.0,0.0,0.0,0.0,0.0,0.0,0.0,0.0,0.0,0.0,0.0,0.0,0.0,0.0,0.0,0.0,0.0,0.0,0.0,0.0,0.0,0.0,0.0,0.0,0.0,0.0,0.0,0.0,0.0,0.0,0.0,0.0,0.0,0.0,0.0,0.0,0.0,0.0,0.0,0.0,0.0,0.0,0.0,0.0,0.0,0.0,0.0,0.0,0.0,0.0,0.0,0.0,0.0,0.0,0.0,0.0,0.0,0.0,0.0,0.0,0.0,0.0,0.0,0.0,0.0,0.0,0.0,0.0,0.0,-6.1719,0.0,0.0,0.0,-6.1707,0.0,0.0,0.0,0.0,0.0,0.0,0.0,0.0,0.0,0.0,0.0,0.0,0.0,0.0,0.0,0.0,0.0,0.0,0.0,0.0,0.0,0.0,0.0,0.0,0.0,0.0,0.0,0.0,0.0,0.0,0.0,0.0,0.0,0.0,0.0,0.0,0.0,0.0,0.0,0.0,0.0,0.0,0.0,0.0,0.0,0.0,0.0,0.0,0.0,0.0,0.0,0.0,0.0,0.0,0.0,0.0,0.0,0.0,0.0,0.0,0.0,0.0,0.0,0.0,0.0,0.0,0.0,0.0,0.0,0.0,0.0,0.0,0.0,0.0,0.0,0.0,0.0,0.0,0.0,0.0,0.0,0.0,0.0,0.0,0.0,0.0,0.0,0.0,0.0,0.0,0.0,0.0,0.0,0.0,0.0,0.0,0.0,0.0,0.0,0.0,0.0,0.0,0.0,0.0,0.0,0.0,0.0,0.0,0.0,0.0,-6.1709,-6.1705,-6.1658,-6.1664,-6.1662,0.0,0.0,0.0,0.0,0.0,0.0,0.0,0.0,0.0,0.0,0.0,0.0,0.0,0.0,0.0,0.0,0.0,0.0,0.0,0.0,0.0,0.0,0.0,0.0,0.0,0.0,0.0,0.0,0.0,0.0,0.0,0.0,0.0,0.0,0.0,0.0,0.0,0.0,0.0,0.0,0.0,0.0,0.0,0.0,0.0,0.0,0.0,0.0,0.0,0.0,0.0,0.0,0.0,0.0,0.0,0.0,0.0,0.0,0.0,0.0,0.0,0.0,0.0,0.0,0.0,0.0,0.0,0.0,0.0,0.0,0.0,0.0,0.0,0.0,0.0,0.0,0.0,0.0,0.0,0.0,0.0,0.0,0.0,0.0,0.0,0.0,0.0,0.0,0.0,0.0,0.0,0.0,0.0,0.0,0.0,0.0,0.0,0.0,0.0,0.0,0.0,0.0,0.0,0.0,0.0,0.0,0.0,0.0,0.0,0.0,0.0,0.0,-6.2611,-6.2391,-6.216,0.0,0.0,0.0,0.0,0.0,0.0,0.0,0.0,0.0,0.0,0.0,0.0,0.0,0.0,0.0,0.0,0.0,0.0,0.0,0.0,0.0,0.0,0.0,0.0,0.0,0.0,0.0,0.0,0.0,0.0,0.0,0.0,0.0,0.0,0.0,0.0,0.0,0.0,0.0,0.0,0.0,0.0,0.0,0.0,0.0,0.0,0.0,0.0,0.0,0.0,0.0,0.0,0.0,0.0,0.0,0.0,0.0,0.0,0.0,0.0,0.0,0.0,0.0,0.0,0.0,0.0,0.0,0.0,0.0,0.0,0.0,0.0,0.0,0.0,0.0,0.0,0.0,0.0,0.0,0.0,0.0,0.0,0.0,0.0,0.0,0.0,0.0,0.0,0.0,0.0,0.0,0.0,0.0,0.0,0.0,0.0,0.0,0.0,0.0,0.0,0.0,0.0,0.0,0.0,0.0,0.0,0.0,0.0,0.0,0.0,-6.4021,-6.6348,-6.5606,0.0,-6.395,0.0,0.0,0.0,0.0,0.0,0.0,0.0,0.0,0.0,0.0,0.0,0.0,0.0,0.0,0.0,0.0,0.0,0.0,0.0,0.0,0.0,0.0,0.0,0.0,0.0,0.0,0.0,0.0,0.0,0.0,0.0,0.0,0.0,0.0,0.0,0.0,0.0,0.0,0.0,0.0,0.0,0.0,0.0,0.0,0.0,0.0,0.0,0.0,0.0,0.0,0.0,0.0,0.0,0.0,0.0,0.0,0.0,0.0,0.0,0.0,0.0,0.0,0.0,0.0,0.0,0.0,0.0,0.0,0.0,0.0,0.0,0.0,0.0,0.0,0.0,0.0,0.0,0.0,0.0,0.0,0.0,0.0,0.0,0.0,0.0,0.0,0.0,0.0,0.0,0.0,0.0,0.0,0.0,0.0,0.0,0.0,0.0,0.0,0.0,0.0,0.0,0.0,0.0,0.0,0.0,0.0,0.0,0.0,0.0,0.0,-6.4758,-6.5312,-6.4372,-6.4197,0.0,0.0,0.0,0.0,0.0,0.0,0.0,0.0,0.0,0.0,0.0,0.0,0.0,0.0,0.0,0.0,0.0,0.0,0.0,0.0,0.0,0.0,0.0,0.0,0.0,0.0,0.0,0.0,0.0,0.0,0.0,0.0,0.0,0.0,0.0,0.0,0.0,0.0,0.0,0.0,0.0,0.0,0.0,0.0,0.0,0.0,0.0,0.0,0.0,0.0,0.0,0.0,0.0,0.0,0.0,0.0,0.0,0.0,0.0,0.0,0.0,0.0,0.0,0.0,0.0,0.0,0.0,0.0,0.0,0.0,0.0,0.0,0.0,0.0,0.0,0.0,0.0,0.0,0.0,0.0,0.0,0.0,0.0,0.0,0.0,0.0,0.0,0.0,0.0,0.0,0.0,0.0,0.0,0.0,0.0,0.0,0.0,0.0,0.0,0.0,0.0,0.0,0.0,0.0,0.0,0.0,0.0,0.0,0.0,0.0,-6.5038,-6.5351,-6.4905,-6.4462,-6.4336,-6.4606,0.0,0.0,0.0,0.0,0.0,0.0,0.0,0.0,0.0,0.0,0.0,0.0,0.0,0.0,0.0,0.0,0.0,0.0,0.0,0.0,0.0,0.0,0.0,0.0,0.0,0.0,0.0,0.0,0.0,0.0,0.0,0.0,0.0,0.0,0.0,0.0,0.0,0.0,0.0,0.0,0.0,0.0,0.0,0.0,0.0,0.0,0.0,0.0,0.0,0.0,0.0,0.0,0.0,0.0,0.0,0.0,0.0,0.0,0.0,0.0,0.0,0.0,0.0,0.0,0.0,0.0,0.0,0.0,0.0,0.0,0.0,0.0,0.0,0.0,0.0,0.0,0.0,0.0,0.0,0.0,0.0,0.0,0.0,0.0,0.0,0.0,0.0,0.0,0.0,0.0,0.0,0.0,0.0,0.0,0.0,0.0,0.0,0.0,0.0,0.0,0.0,0.0,0.0,0.0,0.0,0.0,0.0,0.0,-6.6429,-6.5915,-6.592,-6.6693,-6.7422,-6.6285,0.0,0.0,0.0,0.0,0.0,0.0,0.0,0.0,0.0,0.0,0.0,0.0,0.0,0.0,0.0,0.0,0.0,0.0,0.0,0.0,0.0,0.0,0.0,0.0,0.0,0.0,0.0,0.0,0.0,0.0,0.0,0.0,0.0,0.0,0.0,0.0,0.0,0.0,0.0,0.0,0.0,0.0,0.0,0.0,0.0,0.0,0.0,0.0,0.0,0.0,0.0,0.0,0.0,0.0,0.0,0.0,0.0,0.0,0.0,0.0,0.0,0.0,0.0,0.0,0.0,0.0,0.0,0.0,0.0,0.0,0.0,0.0,0.0,0.0,0.0,0.0,0.0,0.0,0.0,0.0,0.0,0.0,0.0,0.0,0.0,0.0,0.0,0.0,0.0,0.0,0.0,0.0,0.0,0.0,0.0,0.0,0.0,0.0,0.0,0.0,0.0,0.0,0.0,0.0,0.0,0.0,0.0,0.0,0.0,-6.4306,-6.4067,-6.5379,-6.8216,-6.4998,-6.351,0.0,0.0,0.0,0.0,0.0,0.0,0.0,0.0,0.0,0.0,0.0,0.0,0.0,0.0,0.0,0.0,0.0,0.0,0.0,0.0,0.0,0.0,0.0,0.0,0.0,0.0,0.0,0.0,0.0,0.0,0.0,0.0,0.0,0.0,0.0,0.0,0.0,0.0,0.0,0.0,0.0,0.0,0.0,0.0,0.0,0.0,0.0,0.0,0.0,0.0,0.0,0.0,0.0,0.0,0.0,0.0,0.0,0.0,0.0,0.0,0.0,0.0,0.0,0.0,0.0,0.0,0.0,0.0,0.0,0.0,0.0,0.0,0.0,0.0,0.0,0.0,0.0,0.0,0.0,0.0,0.0,0.0,0.0,0.0,0.0,0.0,0.0,0.0,0.0,0.0,0.0,0.0,0.0,0.0,0.0,0.0,0.0,0.0,0.0,0.0,0.0,0.0,0.0,0.0,0.0,0.0,0.0,0.0,0.0,-6.3771,0.0,-6.496,-6.7039,-6.3855,-6.2305,0.0,0.0,0.0,0.0,0.0,0.0,0.0,0.0,0.0,0.0,0.0,0.0,0.0,0.0,0.0,0.0,0.0,0.0,0.0,0.0,0.0,0.0,0.0,0.0,0.0,0.0,0.0,0.0,0.0,0.0,0.0,0.0,0.0,0.0,0.0,0.0,0.0,0.0,0.0,0.0,0.0,0.0,0.0,0.0,0.0,0.0,0.0,0.0,0.0,0.0,0.0,0.0,0.0,0.0,0.0,0.0,0.0,0.0,0.0,0.0,0.0,0.0,0.0,0.0,0.0,0.0,0.0,0.0,0.0,0.0,0.0,0.0,0.0,0.0,0.0,0.0,0.0,0.0,0.0,0.0,0.0,0.0,0.0,0.0,0.0,0.0,0.0,0.0,0.0,0.0,0.0,0.0,0.0,0.0,0.0,0.0,0.0,0.0,0.0,0.0,0.0,0.0,0.0,0.0,0.0,0.0,0.0,0.0,-6.3771,-6.5312,-6.5372,-6.4687,-6.3169,-6.4536,-6.3068,0.0,0.0,0.0,0.0,0.0,0.0,0.0,0.0,0.0,0.0,0.0,0.0,0.0,0.0,0.0,0.0,0.0,0.0,0.0,0.0,0.0,0.0,0.0,0.0,0.0,0.0,0.0,0.0,0.0,0.0,0.0,0.0,0.0,0.0,0.0,0.0,0.0,0.0,0.0,0.0,0.0,0.0,0.0,0.0,0.0,0.0,0.0,0.0,0.0,0.0,0.0,0.0,0.0,0.0,0.0,0.0,0.0,0.0,0.0,0.0,0.0,0.0,0.0,0.0,0.0,0.0,0.0,0.0,0.0,0.0,0.0,0.0,0.0,0.0,0.0,0.0,0.0,0.0,0.0,0.0,0.0,0.0,0.0,0.0,0.0,0.0,0.0,0.0,0.0,0.0,0.0,0.0,0.0,0.0,0.0,0.0,0.0,0.0,0.0,0.0,0.0,0.0,0.0,0.0,0.0,0.0,0.0,0.0,0.0,-6.3787,-6.3756,-6.4092,-6.4648,-6.2935,-6.1818,0.0,0.0,0.0,0.0,0.0,0.0,0.0,0.0,0.0,0.0,0.0,0.0,0.0,0.0,0.0,0.0,0.0,0.0,0.0,0.0,0.0,0.0,0.0,0.0,0.0,0.0,0.0,0.0,0.0,0.0,0.0,0.0,0.0,0.0,0.0,0.0,0.0,0.0,0.0,0.0,0.0,0.0,0.0,0.0,0.0,0.0,0.0,0.0,0.0,0.0,0.0,0.0,0.0,0.0,0.0,0.0,0.0,0.0,0.0,0.0,0.0,0.0,0.0,0.0,0.0,0.0,0.0,0.0,0.0,0.0,0.0,0.0,0.0,0.0,0.0,0.0,0.0,0.0,0.0,0.0,0.0,0.0,0.0,0.0,0.0,0.0,0.0,0.0,0.0,0.0,0.0,0.0,0.0,0.0,0.0,0.0,0.0,0.0,0.0,0.0,0.0,0.0,0.0,0.0,0.0,0.0,0.0,0.0,0.0,-6.3974,-6.4569,-6.4762,-6.4528,-6.3377,-6.2349,-6.1555,0.0,0.0,0.0,0.0,0.0,0.0,0.0,0.0,0.0,0.0,0.0,0.0,0.0,0.0,0.0,0.0,0.0,0.0,0.0,0.0,0.0,0.0,0.0,0.0,0.0,0.0,0.0,0.0,0.0,0.0,0.0,0.0,0.0,0.0,0.0,0.0,0.0,0.0,0.0,0.0,0.0,0.0,0.0,0.0,0.0,0.0,0.0,0.0,0.0,0.0,0.0,0.0,0.0,0.0,0.0,0.0,0.0,0.0,0.0,0.0,0.0,0.0,0.0,0.0,0.0,0.0,0.0,0.0,0.0,0.0,0.0,0.0,0.0,0.0,0.0,0.0,0.0,0.0,0.0,0.0,0.0,0.0,0.0,0.0,0.0,0.0,0.0,0.0,0.0,0.0,0.0,0.0,0.0,0.0,0.0,0.0,0.0,0.0,0.0,0.0,0.0,0.0,0.0,0.0,0.0,0.0,0.0,0.0,-6.5426,-6.7257,-6.6633,-6.3419,-6.5511,-6.4457,0.0,0.0,0.0,0.0,0.0,0.0,0.0,0.0,0.0,0.0,0.0,0.0,0.0,0.0,0.0,0.0,0.0,0.0,0.0,0.0,0.0,0.0,0.0,0.0,0.0,0.0,0.0,0.0,0.0,0.0,0.0,0.0,0.0,0.0,0.0,0.0,0.0,0.0,0.0,0.0,0.0,0.0,0.0,0.0,0.0,0.0,0.0,0.0,0.0,0.0,0.0,0.0,0.0,0.0,0.0,0.0,0.0,0.0,0.0,0.0,0.0,0.0,0.0,0.0,0.0,0.0,0.0,0.0,0.0,0.0,0.0,0.0,0.0,0.0,0.0,0.0,0.0,0.0,0.0,0.0,0.0,0.0,0.0,0.0,0.0,0.0,0.0,0.0,0.0,0.0,0.0,0.0,0.0,0.0,0.0,0.0,0.0,0.0,0.0,0.0,0.0,0.0,0.0,0.0,0.0,0.0,0.0,0.0,0.0,-6.4665,-6.8131,-6.896,-6.6751,-6.6767,-6.5556,0.0,0.0,0.0,0.0,0.0,0.0,0.0,0.0,0.0,0.0,0.0,0.0,0.0,0.0,0.0,0.0,0.0,0.0,0.0,0.0,0.0,0.0,0.0,0.0,0.0,0.0,0.0,0.0,0.0,0.0,0.0,0.0,0.0,0.0,0.0,0.0,0.0,0.0,0.0,0.0,0.0,0.0,0.0,0.0,0.0,0.0,0.0,0.0,0.0,0.0,0.0,0.0,0.0,0.0,0.0,0.0,0.0,0.0,0.0,0.0,0.0,0.0,0.0,0.0,0.0,0.0,0.0,0.0,0.0,0.0,0.0,0.0,0.0,0.0,0.0,0.0,0.0,0.0,0.0,0.0,0.0,0.0,0.0,0.0,0.0,0.0,0.0,0.0,0.0,0.0,0.0,0.0,0.0,0.0,0.0,0.0,0.0,0.0,0.0,0.0,0.0,0.0,0.0,0.0,0.0,0.0,0.0,0.0,-6.4978,-6.5312,-6.8801,-7.0138,-6.9119,-6.9007,-6.7273,0.0,0.0,0.0,0.0,0.0,0.0,0.0,0.0,0.0,0.0,0.0,0.0,0.0,0.0,0.0,0.0,0.0,0.0,0.0,0.0,0.0,0.0,0.0,0.0,0.0,0.0,0.0,0.0,0.0,0.0,0.0,0.0,0.0,0.0,0.0,0.0,0.0,0.0,0.0,0.0,0.0,0.0,0.0,0.0,0.0,0.0,0.0,0.0,0.0,0.0,0.0,0.0,0.0,0.0,0.0,0.0,0.0,0.0,0.0,0.0,0.0,0.0,0.0,0.0,0.0,0.0,0.0,0.0,0.0,0.0,0.0,0.0,0.0,0.0,0.0,0.0,0.0,0.0,0.0,0.0,0.0,0.0,0.0,0.0,0.0,0.0,0.0,0.0,0.0,0.0,0.0,0.0,0.0,0.0,0.0,0.0,0.0,0.0,0.0,0.0,0.0,0.0,0.0,0.0,0.0,0.0,0.0,0.0,-6.6092,-6.6795,-6.938,-7.0723,-7.0628,-7.1277,-6.9022,0.0,0.0,0.0,0.0,0.0,0.0,0.0,0.0,0.0,0.0,0.0,0.0,0.0,0.0,0.0,0.0,0.0,0.0,0.0,0.0,0.0,0.0,0.0,0.0,0.0,0.0,0.0,0.0,0.0,0.0,0.0,0.0,0.0,0.0,0.0,0.0,0.0,0.0,0.0,0.0,0.0,0.0,0.0,0.0,0.0,0.0,0.0,0.0,0.0,0.0,0.0,0.0,0.0,0.0,0.0,0.0,0.0,0.0,0.0,0.0,0.0,0.0,0.0,0.0,0.0,0.0,0.0,0.0,0.0,0.0,0.0,0.0,0.0,0.0,0.0,0.0,0.0,0.0,0.0,0.0,0.0,0.0,0.0,0.0,0.0,0.0,0.0,0.0,0.0,0.0,0.0,0.0,0.0,0.0,0.0,0.0,0.0,0.0,0.0,0.0,0.0,0.0,0.0,0.0,0.0,0.0,0.0,0.0,-6.6634,-6.6868,-6.994,-7.1308,-7.0619,-7.0103,-6.8631,0.0,0.0,0.0,0.0,0.0,0.0,0.0,0.0,0.0,0.0,0.0,0.0,0.0,0.0,0.0,0.0,0.0,0.0,0.0,0.0,0.0,0.0,0.0,0.0,0.0,0.0,0.0,0.0,0.0,0.0,0.0,0.0,0.0,0.0,0.0,0.0,0.0,0.0,0.0,0.0,0.0,0.0,0.0,0.0,0.0,0.0,0.0,0.0,-6.8357,0.0,0.0,0.0,0.0,0.0,0.0,0.0,0.0,0.0,0.0,0.0,0.0,0.0,0.0,0.0,0.0,0.0,0.0,0.0,0.0,0.0,0.0,0.0,0.0,0.0,0.0,0.0,0.0,0.0,0.0,0.0,0.0,0.0,0.0,0.0,0.0,0.0,0.0,0.0,0.0,0.0,0.0,0.0,0.0,0.0,0.0,0.0,0.0,0.0,0.0,0.0,0.0,0.0,0.0,0.0,0.0,0.0,0.0,0.0,-6.7185,-6.8078,-7.0564,-7.1659,-7.1193,-7.0357,-6.908,0.0,0.0,0.0,0.0,0.0,0.0,0.0,0.0,0.0,0.0,0.0,0.0,0.0,0.0,0.0,0.0,0.0,0.0,0.0,0.0,0.0,0.0,0.0,0.0,0.0,0.0,0.0,0.0,0.0,0.0,0.0,0.0,0.0,0.0,0.0,0.0,0.0,0.0,0.0,0.0,0.0,0.0,0.0,0.0,0.0,0.0,0.0,0.0,0.0,0.0,0.0,0.0,0.0,0.0,0.0,0.0,0.0,0.0,0.0,0.0,0.0,0.0,0.0,0.0,0.0,0.0,0.0,0.0,0.0,0.0,0.0,0.0,0.0,0.0,0.0,0.0,0.0,0.0,0.0,0.0,0.0,0.0,0.0,0.0,0.0,0.0,0.0,0.0,0.0,0.0,0.0,0.0,0.0,0.0,0.0,0.0,0.0,0.0,0.0,0.0,0.0,0.0,0.0,0.0,0.0,0.0,0.0,-6.6131,-6.7771,-6.9372,-7.1033,-7.1901,-7.1887,-7.1195,-7.0025,-6.8437,0.0,0.0,0.0,0.0,0.0,0.0,0.0,0.0,0.0,0.0,0.0,0.0,0.0,0.0,0.0,0.0,0.0,0.0,0.0,0.0,0.0,0.0,0.0,0.0,0.0,0.0,0.0,0.0,0.0,0.0,0.0,0.0,0.0,0.0,0.0,0.0,0.0,0.0,-6.6891,-6.8989,0.0,0.0,0.0,0.0,0.0,0.0,0.0,0.0,-6.9731,0.0,0.0,0.0,0.0,0.0,0.0,0.0,0.0,0.0,0.0,0.0,0.0,0.0,0.0,0.0,0.0,0.0,0.0,0.0,0.0,0.0,0.0,0.0,0.0,0.0,0.0,0.0,0.0,0.0,0.0,0.0,0.0,0.0,0.0,0.0,0.0,0.0,0.0,0.0,0.0,0.0,0.0,0.0,0.0,0.0,0.0,0.0,0.0,0.0,0.0,0.0,0.0,0.0,0.0,0.0,0.0,-6.5312,-6.7029,-6.8357,-6.9411,-7.1039,-7.1891,-7.1891,-7.1745,-7.1222,-7.013,0.0,0.0,0.0,0.0,0.0,0.0,0.0,0.0,0.0,0.0,0.0,0.0,0.0,0.0,0.0,0.0,0.0,0.0,0.0,0.0,0.0,0.0,0.0,0.0,0.0,0.0,0.0,0.0,0.0,0.0,0.0,0.0,0.0,0.0,0.0,0.0,0.0,0.0,0.0,-7.236,-7.3437,0.0,0.0,0.0,0.0,0.0,0.0,0.0,0.0,-6.845,0.0,0.0,0.0,0.0,0.0,0.0,0.0,0.0,0.0,0.0,0.0,0.0,0.0,0.0,0.0,0.0,0.0,0.0,0.0,0.0,0.0,0.0,0.0,0.0,0.0,0.0,0.0,0.0,0.0,0.0,0.0,0.0,0.0,0.0,0.0,0.0,0.0,0.0,0.0,0.0,0.0,0.0,0.0,0.0,0.0,0.0,0.0,0.0,0.0,0.0,0.0,0.0,0.0,0.0,0.0,-6.4843,-6.6561,-6.8083,-6.9411,-7.1084,-7.1747,-7.1285,-7.0402,-6.9724,0.0,0.0,0.0,0.0,0.0,0.0,0.0,0.0,0.0,0.0,0.0,0.0,0.0,0.0,0.0,0.0,0.0,0.0,0.0,0.0,0.0,0.0,0.0,0.0,0.0,0.0,0.0,0.0,0.0,0.0,0.0,0.0,0.0,0.0,0.0,0.0,0.0,0.0,0.0,0.0,-7.3034,-7.409,-7.411,0.0,0.0,0.0,0.0,0.0,0.0,-6.9022,-6.8455,0.0,0.0,0.0,0.0,0.0,0.0,0.0,0.0,0.0,0.0,0.0,0.0,0.0,0.0,0.0,0.0,0.0,0.0,0.0,0.0,0.0,0.0,0.0,0.0,0.0,0.0,0.0,0.0,0.0,0.0,0.0,0.0,0.0,0.0,0.0,0.0,0.0,0.0,0.0,0.0,0.0,0.0,0.0,0.0,0.0,0.0,0.0,0.0,0.0,0.0,0.0,0.0,0.0,0.0,0.0,-6.4258,-6.6131,-6.781,-6.9372,-7.1089,-7.1675,-7.0972,-6.9438,-6.845,0.0,0.0,0.0,0.0,0.0,0.0,0.0,0.0,0.0,0.0,0.0,0.0,0.0,0.0,0.0,0.0,0.0,0.0,0.0,0.0,0.0,0.0,0.0,0.0,0.0,0.0,0.0,0.0,0.0,0.0,0.0,0.0,0.0,0.0,0.0,0.0,0.0,0.0,0.0,0.0,0.0,-7.4397,-7.5524,-7.4589,0.0,0.0,0.0,0.0,-7.0233,-7.0276,0.0,0.0,0.0,0.0,0.0,0.0,0.0,0.0,0.0,0.0,0.0,0.0,0.0,0.0,0.0,0.0,0.0,0.0,0.0,0.0,0.0,0.0,0.0,0.0,0.0,0.0,0.0,0.0,0.0,0.0,0.0,0.0,0.0,0.0,0.0,0.0,0.0,0.0,0.0,0.0,0.0,0.0,0.0,0.0,0.0,0.0,0.0,0.0,0.0,0.0,0.0,0.0,0.0,0.0,0.0,0.0,-6.4297,-6.6717,-6.8435,-6.9411,-7.1128,-7.1948,-7.1831,-7.0894,-6.9684,0.0,0.0,0.0,0.0,0.0,0.0,0.0,0.0,0.0,0.0,0.0,0.0,0.0,0.0,0.0,0.0,0.0,0.0,0.0,0.0,0.0,0.0,0.0,0.0,0.0,0.0,0.0,0.0,0.0,0.0,0.0,0.0,0.0,0.0,0.0,0.0,0.0,0.0,0.0,0.0,0.0,-7.5387,-7.4849,-7.5211,-7.5487,0.0,0.0,-7.3777,-7.3865,-7.438,0.0,0.0,0.0,0.0,0.0,0.0,0.0,0.0,0.0,0.0,0.0,0.0,0.0,0.0,0.0,0.0,0.0,0.0,0.0,0.0,0.0,0.0,0.0,0.0,0.0,0.0,0.0,0.0,0.0,0.0,0.0,0.0,0.0,0.0,0.0,0.0,0.0,0.0,0.0,0.0,0.0,0.0,0.0,0.0,0.0,0.0,0.0,0.0,0.0,0.0,0.0,0.0,0.0,0.0,0.0,-6.2677,-6.4336,-6.6795,-6.8513,-6.9411,-7.1128,-7.1753,-7.1285,-6.9489,-6.82,0.0,0.0,0.0,0.0,0.0,0.0,0.0,0.0,0.0,0.0,0.0,0.0,0.0,0.0,0.0,0.0,0.0,0.0,0.0,0.0,0.0,0.0,0.0,0.0,0.0,0.0,0.0,0.0,0.0,0.0,0.0,0.0,0.0,0.0,0.0,0.0,0.0,0.0,0.0,0.0,0.0,0.0,-7.6586,-7.6952,0.0,0.0,0.0,-7.5427,-7.5107,0.0,0.0,0.0,0.0,0.0,0.0,0.0,0.0,0.0,0.0,0.0,0.0,0.0,0.0,0.0,0.0,0.0,0.0,0.0,0.0,0.0,0.0,0.0,0.0,0.0,0.0,0.0,0.0,0.0,0.0,0.0,0.0,0.0,0.0,0.0,0.0,0.0,0.0,0.0,0.0,0.0,0.0,0.0,0.0,0.0,0.0,0.0,0.0,0.0,0.0,0.0,0.0,0.0,0.0,0.0,0.0,0.0,-6.4643,-6.7342,-6.9059,-6.9762,-7.1217,-7.169,-7.103,-6.8757,0.0,0.0,0.0,0.0,0.0,0.0,0.0,0.0,0.0,0.0,0.0,0.0,0.0,0.0,0.0,0.0,0.0,0.0,0.0,0.0,0.0,0.0,0.0,0.0,0.0,0.0,0.0,-5.9511,0.0,0.0,0.0,0.0,0.0,0.0,0.0,0.0,0.0,0.0,0.0,0.0,0.0,0.0,-7.5372,-7.747,-7.8218,-7.8568,0.0,0.0,-7.7067,-7.6365,-7.5455,-7.4205,0.0,0.0,0.0,0.0,0.0,0.0,0.0,0.0,0.0,0.0,0.0,0.0,0.0,0.0,0.0,0.0,0.0,0.0,0.0,0.0,0.0,0.0,0.0,0.0,0.0,0.0,0.0,0.0,-5.5318,0.0,0.0,0.0,0.0,0.0,0.0,0.0,0.0,0.0,0.0,0.0,0.0,0.0,0.0,0.0,0.0,0.0,0.0,0.0,0.0,0.0,0.0,0.0,0.0,0.0,-6.3823,-6.5546,-6.8825,-7.0548,-7.0665,-7.1503,-7.1986,-7.1875,-7.0189,-6.8496,0.0,0.0,0.0,0.0,0.0,0.0,0.0,0.0,0.0,0.0,0.0,0.0,0.0,0.0,0.0,0.0,0.0,0.0,0.0,0.0,0.0,0.0,0.0,0.0,0.0,0.0,0.0,0.0,0.0,0.0,0.0,0.0,0.0,0.0,0.0,0.0,0.0,0.0,0.0,0.0,0.0,-7.4861,-7.5933,-7.8084,-7.9614,0.0,-7.9473,-7.9062,-7.8377,-7.9396,-7.8918,-7.4834,0.0,0.0,0.0,0.0,0.0,0.0,0.0,0.0,0.0,0.0,0.0,0.0,0.0,0.0,0.0,0.0,0.0,0.0,0.0,0.0,0.0,0.0,0.0,0.0,0.0,-5.6138,-5.6411,0.0,-5.5903,0.0,0.0,0.0,0.0,0.0,0.0,0.0,0.0,0.0,0.0,0.0,0.0,0.0,0.0,0.0,0.0,0.0,0.0,0.0,0.0,0.0,0.0,0.0,0.0,-6.4648,-6.64,-6.9244,-7.0952,-7.1524,-7.2349,-7.2525,-7.2031,-7.1366,-6.9958,0.0,0.0,0.0,0.0,0.0,0.0,0.0,0.0,0.0,0.0,0.0,0.0,0.0,0.0,0.0,0.0,0.0,0.0,0.0,0.0,0.0,0.0,0.0,0.0,0.0,0.0,0.0,0.0,-6.3602,-6.4676,-6.5866,0.0,0.0,0.0,0.0,0.0,0.0,0.0,0.0,0.0,0.0,-7.5257,-7.7162,-7.9127,0.0,0.0,-8.0361,-8.0106,-8.0037,-7.91,-7.7816,-7.6067,-7.4014,0.0,0.0,0.0,0.0,0.0,0.0,0.0,0.0,0.0,0.0,0.0,0.0,0.0,0.0,0.0,0.0,0.0,0.0,0.0,0.0,0.0,0.0,0.0,0.0,0.0,0.0,0.0,0.0,0.0,0.0,0.0,0.0,0.0,0.0,0.0,0.0,0.0,0.0,0.0,0.0,0.0,0.0,0.0,0.0,0.0,0.0,0.0,0.0,0.0,0.0,0.0,0.0,-6.5547,-6.7265,-6.9802,-7.1359,-7.201,-7.2596,-7.2606,-7.2031,-7.1758,-7.0547,0.0,0.0,0.0,0.0,0.0,0.0,0.0,0.0,0.0,0.0,0.0,0.0,0.0,0.0,0.0,0.0,0.0,0.0,0.0,0.0,0.0,0.0,0.0,0.0,0.0,0.0,0.0,0.0,-6.4726,-6.581,-6.6423,0.0,0.0,0.0,0.0,0.0,0.0,0.0,0.0,0.0,0.0,-7.6463,-7.8538,-8.0202,-8.1277,-8.1414,-8.1402,-8.1336,-8.1244,-7.9872,-7.8578,-7.767,0.0,0.0,0.0,0.0,0.0,0.0,0.0,0.0,0.0,0.0,0.0,0.0,0.0,0.0,0.0,0.0,0.0,0.0,0.0,0.0,0.0,0.0,0.0,0.0,0.0,0.0,0.0,-5.7855,0.0,0.0,-5.7812,0.0,0.0,0.0,0.0,0.0,0.0,0.0,0.0,0.0,0.0,0.0,0.0,0.0,0.0,0.0,0.0,0.0,0.0,0.0,0.0,0.0,0.0,-6.6406,-6.8164,-7.0664,-7.1992,-7.2031,-7.2031,-7.207,-7.2031,-7.1211,-6.9961,-6.8281,0.0,0.0,0.0,0.0,0.0,0.0,0.0,0.0,0.0,0.0,0.0,0.0,0.0,0.0,0.0,0.0,0.0,0.0,0.0,0.0,0.0,0.0,0.0,0.0,0.0,0.0,-6.4372,-6.5137,-6.5618,0.0,0.0,0.0,0.0,0.0,0.0,0.0,0.0,0.0,-7.4282,-7.6732,-7.8646,-7.96,-8.1113,-8.2117,-8.2155,-8.2779,-8.294,-8.2096,-8.2625,-8.2391,0.0,0.0,0.0,0.0,0.0,0.0,0.0,0.0,0.0,0.0,0.0,0.0,0.0,0.0,0.0,0.0,0.0,0.0,0.0,0.0,0.0,0.0,0.0,0.0,0.0,0.0,0.0,-6.156,-6.1208,0.0,0.0,0.0,0.0,0.0,0.0,0.0,0.0,0.0,0.0,0.0,-6.6009,-6.7727,0.0,0.0,0.0,0.0,0.0,0.0,0.0,0.0,0.0,0.0,0.0,0.0,-6.6484,-6.8203,-7.0703,-7.2265,-7.2851,-7.3437,-7.3437,-7.289,-7.3164,-7.1953,-6.9101,0.0,0.0,0.0,0.0,0.0,0.0,0.0,0.0,0.0,0.0,0.0,0.0,0.0,0.0,0.0,0.0,0.0,0.0,0.0,0.0,0.0,0.0,0.0,0.0,0.0,-6.5465,0.0,0.0,0.0,0.0,0.0,0.0,0.0,0.0,0.0,0.0,-7.1091,-7.2217,-7.5088,-7.6724,-7.7985,-7.8823,-8.0369,-8.1676,0.0,0.0,0.0,0.0,0.0,0.0,0.0,0.0,0.0,0.0,0.0,0.0,0.0,-8.5082,-8.3852,-7.8963,-7.6291,-7.5051,-7.5895,0.0,0.0,0.0,0.0,0.0,0.0,0.0,0.0,0.0,0.0,0.0,0.0,0.0,0.0,-6.4275,-6.4248,-6.3699,0.0,0.0,0.0,0.0,0.0,0.0,0.0,0.0,-6.863,-6.9991,-7.0816,-7.226,-7.2495,0.0,-7.2534,-7.0309,0.0,0.0,0.0,0.0,0.0,0.0,0.0,0.0,-6.7226,-6.8672,-7.1133,-7.2734,-7.332,-7.414,-7.4336,-7.3789,-7.4023,-7.3086,-7.082,-7.0273,-6.9451,0.0,0.0,0.0,0.0,0.0,0.0,0.0,0.0,0.0,0.0,0.0,0.0,0.0,0.0,0.0,0.0,0.0,0.0,0.0,0.0,0.0,0.0,0.0,-6.7286,0.0,0.0,0.0,0.0,0.0,0.0,0.0,0.0,0.0,-7.2817,-7.3185,-7.4397,-7.6924,-7.8062,-7.8823,-7.9323,0.0,0.0,0.0,0.0,0.0,0.0,0.0,-8.34,-8.4632,-8.3982,-8.3945,-8.5845,-8.747,-8.8676,-8.9032,0.0,0.0,-8.4658,-8.2058,-8.0984,-8.2104,-8.0567,-7.9269,-7.9999,-7.9893,-7.9475,0.0,0.0,0.0,0.0,0.0,0.0,0.0,0.0,-6.4343,-6.5619,0.0,-6.6951,0.0,0.0,0.0,0.0,-6.4648,-6.6914,0.0,0.0,-7.3281,-7.5032,-7.5852,-7.6711,-7.6717,-7.6092,-7.8356,-7.6951,-7.211,-6.8791,0.0,0.0,0.0,0.0,0.0,0.0,-6.8672,-6.9609,-7.207,-7.3359,-7.3437,-7.4219,-7.4648,-7.4609,-7.3867,-7.3398,-7.332,-7.332,-7.2578,-7.0898,-7.1506,0.0,0.0,0.0,0.0,0.0,0.0,0.0,0.0,0.0,0.0,0.0,0.0,0.0,0.0,0.0,0.0,0.0,0.0,0.0,0.0,-6.725,0.0,0.0,0.0,0.0,0.0,0.0,0.0,0.0,0.0,-7.4773,-7.4811,-7.6817,-7.8807,-7.9715,0.0,0.0,0.0,0.0,-8.4742,-8.5547,-8.6355,-8.7121,-8.7964,-8.7578,-8.6918,-8.6342,0.0,0.0,-8.8651,-9.1182,-9.263,-9.1094,-9.2209,-9.2804,-9.0903,-9.002,-8.9855,-8.9994,-8.7487,-8.5976,-8.6279,-8.4839,-8.3838,-7.2963,0.0,0.0,0.0,0.0,-6.9139,-7.0094,-7.2089,-7.1731,-7.1503,-7.1299,-7.0108,0.0,0.0,0.0,0.0,0.0,0.0,-7.0635,-7.3515,-7.4876,-7.6275,-7.7687,-7.8546,-7.883,-7.8614,-7.9356,-7.8332,-7.5735,-7.472,-7.1928,-6.7536,0.0,0.0,0.0,0.0,-7.0703,-7.2187,-7.3555,-7.4531,-7.5156,-7.539,-7.5508,-7.5508,-7.5312,-7.4844,-7.4258,-7.4805,-7.4648,-7.3515,-7.2537,0.0,0.0,0.0,0.0,0.0,0.0,0.0,0.0,0.0,0.0,0.0,0.0,0.0,0.0,0.0,0.0,0.0,0.0,0.0,-6.7814,-6.7864,-6.8664,0.0,0.0,0.0,0.0,0.0,0.0,0.0,0.0,0.0,-7.8254,-7.8846,-7.9812,0.0,0.0,-8.1881,-8.1881,-8.1996,-8.2605,-8.4028,-8.4955,0.0,-8.7414,-8.7417,-8.7958,-8.9995,-9.1759,-9.2871,-9.2871,-9.3178,-9.3598,-9.417,-9.4366,-9.4366,-9.4432,-9.286,-9.1712,-9.1467,-8.9692,-8.8105,-8.8174,-8.7582,-8.6833,-7.7414,-7.5345,-7.2573,-7.2026,-7.2924,-7.2416,-7.3172,-7.4762,-7.4615,-7.4437,-7.4187,-7.353,-7.1786,-6.9333,-6.8127,0.0,0.0,0.0,-7.3153,-7.6119,-7.7017,-7.8317,-7.9929,-8.0465,-8.0743,-8.0758,-8.1087,-8.0378,-7.8702,-7.9053,-7.6892,-7.2383,0.0,-7.0976,-7.0976,-7.1484,-7.2265,-7.332,-7.4844,-7.5898,-7.6406,-7.6758,-7.6914,-7.6914,-7.6601,-7.6172,-7.5664,-7.6133,-7.6015,-7.5156,-7.4101,-7.285,0.0,0.0,0.0,0.0,0.0,0.0,0.0,0.0,0.0,0.0,0.0,-6.7227,-6.4645,0.0,0.0,0.0,-6.7287,-6.9382,-7.1533,-7.2029,0.0,0.0,0.0,0.0,0.0,0.0,0.0,-7.7445,-7.8992,-8.0208,-8.0746,-8.1574,-8.2155,-8.2227,-8.2496,-8.2759,-8.2726,0.0,-8.349,-8.4835,-8.6026,-8.7295,-8.8602,-8.914,-9.0142,-9.2334,-9.3831,-9.4675,-9.4792,-9.46,-9.4829,-9.5635,-9.5636,-9.5483,-9.6021,-9.483,-9.3793,-9.3716,-9.2446,-9.1368,-9.1291,-9.0638,-8.9849,-8.1122,-8.0771,-7.6711,-7.4954,-7.4837,-7.4876,-7.4408,-7.3699,-7.4562,-7.5382,-7.6138,-7.6802,-7.5716,-7.3315,-7.1758,0.0,-7.2378,-7.4056,-7.6086,-7.8507,-7.941,-8.071,-8.225,-8.2271,-8.2299,-8.2299,-8.312,-8.2651,-8.1056,-8.1837,-8.1078,-7.8672,-7.5508,-7.3828,-7.3711,-7.3672,-7.3672,-7.3828,-7.6211,-7.7422,-7.7422,-7.8164,-7.8594,-7.8555,-7.7695,-7.7226,-7.7265,-7.7148,-7.6758,-7.6055,-7.5898,-7.4687,-7.2226,0.0,0.0,0.0,0.0,0.0,0.0,0.0,0.0,0.0,0.0,0.0,0.0,0.0,0.0,-6.9722,-7.1971,0.0,-7.5928,-7.8028,0.0,0.0,0.0,-7.7263,-7.5697,-7.7554,-7.89,-7.8846,0.0,0.0,-8.2401,-8.4527,-8.5185,-8.2901,-8.3362,-8.3901,-8.3901,-8.4989,-8.6188,-8.6803,-8.8416,-8.9873,-9.0642,-9.1754,-9.2826,-9.3672,-9.4518,-9.5095,-9.5172,-9.5598,-9.6098,-9.6098,-9.6098,-9.6098,-9.6098,-9.6097,-9.6251,-9.6021,-9.5291,-9.4676,-9.4484,-9.3548,-9.2627,-8.1981,-8.1864,-8.0146,-7.8702,-7.7531,-7.8194,-7.796,-7.7251,-7.8065,-7.8565,-7.8714,-7.7596,-7.608,-7.4251,-7.3861,-7.4134,-7.5038,-7.6053,-7.7536,-7.941,-8.0303,-8.1276,-8.2266,-8.2295,-8.2301,-8.234,-8.25,-8.207,-8.109,-8.1872,-8.164,-8.0429,-7.957,-7.8512,-7.7234,-7.6571,-7.6892,-7.8157,-7.8788,-7.9101,-7.9101,-7.9297,-7.9414,-7.9414,-7.7969,-7.75,-7.8125,-7.6914,-7.6406,-7.6836,-7.5625,-7.4336,-7.3047,-7.1361,0.0,0.0,0.0,0.0,0.0,0.0,0.0,0.0,0.0,-7.3626,-6.9068,0.0,-7.4702,0.0,-7.4445,-7.6106,-7.8312,-7.8455,0.0,0.0,-8.065,-8.0988,-8.1746,-8.2316,-8.2545,-8.2304,-8.2907,-8.3285,-8.3285,-8.4907,-8.5868,-8.5286,-8.5873,-8.6377,-8.6338,-8.5604,-8.5445,-8.6329,-8.7406,-8.8714,-9.0905,-9.3018,-9.4441,-9.4634,-9.5403,-9.598,-9.598,-9.6134,-9.6251,-9.6251,-9.6251,-9.6251,-9.6251,-9.6288,-9.6326,-9.6212,-9.5558,-9.4943,-9.4943,-9.46,-9.4096,-8.2305,-8.2254,-8.1786,-8.1005,-8.0107,-7.9834,-7.9405,-7.9008,-7.9483,-7.9711,-7.9665,-7.8696,-7.7531,-7.632,-7.6281,-7.6555,-7.7029,-7.7481,-7.8621,-8.03,-8.0779,-8.1482,-8.2289,-8.2303,-8.2304,-8.2304,-8.2304,-8.2031,-8.164,-8.2065,-8.2065,-8.1601,-8.1206,-8.0723,-8.0107,-7.893,-7.9176,-8.0831,-8.0465,-8.0469,-8.082,-8.0469,-8.0273,-8.0234,-7.8628,-7.7964,-7.8476,-7.6835,-7.6284,-7.71,-7.5542,-7.4569,-7.4453,-7.3194,-7.2002,0.0,0.0,0.0,0.0,0.0,0.0,0.0,0.0,0.0,0.0,0.0,-7.8152,-7.7948,-7.9409,-8.1117,-8.2803,-8.2864,-8.3243,-8.4195,-8.4154,-8.4049,-8.4033,-8.4598,-8.4793,-8.4176,-8.4791,-8.5286,-8.5324,-8.644,-8.7555,-8.8248,-8.8752,-8.8717,-8.7948,-8.7098,-8.6748,-8.7209,-8.8286,-8.9825,-9.2018,-9.3787,-9.498,-9.5057,-9.5711,-9.6288,-9.6288,-9.6288,-9.6288,-9.6288,-9.6288,-9.6288,-9.6288,-9.6634,-9.6826,-9.6826,-9.6788,-9.6442,-9.5711,-9.5482,-9.5291,-8.2402,-8.2305,-8.2299,-8.2299,-8.2215,-8.0693,-8.0152,-8.0392,-8.0587,-8.0504,-8.0191,-7.9951,-7.9405,-7.8551,-7.8546,-7.8551,-7.8562,-7.8669,-7.9531,-8.0976,-8.1094,-8.1562,-8.2304,-8.2304,-8.2304,-8.2304,-8.2304,-8.2304,-8.2304,-8.232,-8.232,-8.2264,-8.1534,-8.1708,-8.2645,-8.0966,-8.0771,-8.2254,-8.1787,-8.1875,-8.2617,-8.1875,-8.1523,-8.1406,-7.9477,-7.8497,-7.8592,-7.6987,-7.6466,-7.7263,-7.5915,-7.546,-7.617,-7.5415,-7.4931,0.0,-7.5043,0.0,0.0,0.0,0.0,0.0,0.0,0.0,0.0,-8.0524,-8.1446,-8.2912,-8.5192,-8.6917,-8.7659,-8.8408,-8.8517,-8.7741,-8.7495,-8.6683,-8.507,-8.5939,-8.6375,-8.5511,-8.6671,-8.7555,-8.7517,-8.8402,-8.9594,-9.0748,-9.1248,-9.0979,-8.971,-8.9325,-8.9133,-8.894,-9.0364,-9.1941,-9.3287,-9.4364,-9.498,-9.5057,-9.5557,-9.6172,-9.6288,-9.6288,-9.6326,-9.6442,-9.6519,-9.6519,-9.6596,-9.7211,-9.7634,-9.7673,-9.8173,-9.8173,-9.7057,-9.6597,-9.6713,-8.2929,-8.2303,-8.2292,-8.2315,-8.2254,-8.1942,-8.2593,-8.3944,-8.5351,-8.4762,-8.2718,-8.1329,-8.028,-7.9473,-7.9455,-7.9469,-7.949,-8.0195,-8.0664,-8.1015,-8.1719,-8.2148,-8.2304,-8.2304,-8.2304,-8.2304,-8.2304,-8.2304,-8.2304,-8.232,-8.2299,-8.231,-8.2143,-8.3152,-8.5143,0.0,0.0,0.0,-8.3555,-8.4241,-8.4414,-8.4258,-8.4179,-8.4062,-8.0468,0.0,-7.9387,-7.7845,-7.7337,-7.8166,-7.7927,0.0,0.0,0.0,0.0,0.0,0.0,0.0,0.0,0.0,0.0,0.0,-8.5377,-8.4239,-8.2078,-8.4934,-8.712,-8.7377,-8.8525,-8.9313,-8.9407,-8.9593,-8.9613,-8.9447,-8.9192,-8.8867,-8.8373,-8.8404,-8.8305,-8.8051,-8.8286,-8.8479,-8.8594,-8.9748,-9.0825,-9.1325,-9.2364,-9.3056,-9.2749,-9.2056,-9.121,-9.0171,-9.171,-9.3249,-9.3633,-9.4441,-9.5057,-9.5018,-9.5095,-9.5557,-9.6172,-9.6326,-9.6596,-9.7134,-9.725,-9.7519,-9.8134,-9.8442,-9.8557,-9.8557,-9.8711,-9.8711,-9.8404,-9.8327,-9.8327,-8.3984,-8.3554,-8.3123,-8.3187,0.0,-8.3582,-8.4319,-8.5468,-8.5039,-8.4137,-8.2862,-8.2026,-8.1167,-8.0406,-8.1248,-8.1637,-8.1703,-8.2928,-8.3281,-8.2969,-8.3359,-8.3125,-8.2304,-8.2304,-8.2539,-8.2929,-8.25,-8.2732,-8.3503,-8.314,-8.313,-8.3543,-8.3543,-8.4167,-8.5377,-8.4206,-8.3113,-8.2293,-8.3191,-8.3638,-8.362,-8.3631,-8.3594,-8.3554,-8.1094,0.0,0.0,0.0,0.0,0.0,0.0,0.0,0.0,0.0,0.0,-8.1015,-8.2575,-8.4049,-8.537,-8.6249,-8.7674,-8.9711,-9.0335,-8.9469,-8.6886,-8.8728,-9.0133,-9.0516,-9.0953,-9.1194,-9.1179,-9.082,-9.0578,-9.052,-9.0417,-9.0096,-8.9504,-8.9925,-9.0035,-8.9503,-8.9671,-9.0056,-9.0517,-9.1248,-9.2172,-9.2941,-9.3787,-9.4326,-9.4249,-9.3633,-9.271,-9.1941,-9.3133,-9.4134,-9.3903,-9.4826,-9.5441,-9.5172,-9.5365,-9.5942,-9.6749,-9.6903,-9.7173,-9.7942,-9.8134,-9.8327,-9.8711,-9.9135,-9.9442,-9.9481,-9.975,-10.0019,-9.9981,-9.9404,-9.8942,-8.5039,-8.4844,-8.4101,-8.4133,-8.4675,-8.4648,-8.5062,-8.5585,0.0,0.0,0.0,-8.2495,-8.2098,-8.1792,-8.3042,-8.366,-8.3926,-8.5107,-8.5389,-8.492,-8.4726,-8.3984,-8.2773,-8.2773,-8.3125,-8.3789,-8.3125,-8.343,-8.4636,-8.4073,-8.3994,-8.4323,-8.448,-8.4519,-8.4362,-8.4519,-8.3894,-8.2606,-8.2846,-8.2924,-8.2762,-8.2766,-8.2734,-8.2773,-8.1601,-8.0976,-8.0976,-7.9762,-7.9723,-8.1133,-8.0973,-8.1472,-8.2901,-8.4502,-8.5416,-8.5664,-8.7656,-8.9295,-9.0174,-9.1207,-9.217,-9.3107,-9.3693,-9.3458,-9.2053,-9.1858,-9.2014,-9.2678,-9.26,-9.2482,-9.2482,-9.1936,-9.1499,-9.1445,-9.1388,-9.0937,-9.0111,-9.1096,-9.1528,-9.0526,-9.0928,-9.1703,-9.2287,-9.2556,-9.3249,-9.4595,-9.5057,-9.5249,-9.5095,-9.4326,-9.3749,-9.4095,-9.4595,-9.4711,-9.4326,-9.498,-9.5788,-9.5403,-9.5826,-9.6634,-9.7442,-9.7711,-9.8096,-9.8865,-9.9019,-9.9096,-9.9288,-9.9865,-10.0289,-10.0327,-10.0827,-10.1289,-10.1173,-10.0212,-9.9558,-8.5586,-8.4883,-8.4765,-8.4368,-8.3783,-8.3782,-8.386,-8.3994,-8.4373,-8.492,-8.5426,-8.3261,-8.3074,-8.433,-8.3826,-8.401,-8.4668,-8.4167,-8.4291,-8.4843,-8.4135,-8.4062,-8.4531,-8.4531,-8.4609,-8.4687,-8.4609,-8.425,-8.39,-8.4441,-8.405,-8.2951,-8.3347,-8.3386,-8.2762,-8.3347,-8.3582,-8.3465,-8.4819,-8.521,-8.4564,-8.4526,-8.4531,-8.4453,-8.2226,-8.0976,-8.0976,-8.1484,-8.1875,-8.2148,-8.414,-8.539,-8.5664,-8.6601,-8.7421,-8.8125,-8.9219,-9.019,-9.1084,-9.2639,-9.42,-9.5645,-9.5293,-9.4786,-9.4591,-9.3888,-9.3497,-9.3576,-9.2912,-9.2482,-9.2482,-9.2389,-9.2272,-9.2272,-9.2144,-9.1973,-9.1747,-9.2482,-9.2604,-9.1494,-9.2045,-9.2535,-9.2734,-9.3169,-9.39,-9.4901,-9.5632,-9.6095,-9.5788,-9.4711,-9.4441,-9.5441,-9.5365,-9.5018,-9.4903,-9.4941,-9.5557,-9.6057,-9.6249,-9.698,-9.8365,-9.8634,-9.8904,-9.975,-9.9904,-10.0135,-10.0673,-10.1019,-10.1058,-10.1058,-10.1212,-10.1289,-10.1289,-10.1019,-10.0943,-8.6679,-8.625,-8.582,-8.5389,-8.499,-8.4491,-8.4295,-8.4326,-8.4713,-8.5107,-8.5307,-8.4209,-8.4131,-8.4912,-8.5429,-8.5857,-8.6276,-8.6327,-8.6308,-8.6197,-8.5424,-8.4961,-8.4883,-8.4883,-8.5154,-8.553,-8.5101,-8.5166,-8.5612,-8.5612,-8.5371,-8.5097,-8.5416,-8.5182,-8.448,-8.5182,-8.5182,-8.4284,-8.4116,-8.4089,-8.417,-8.4179,-8.3945,-8.3515,-8.3164,-8.289,-8.2422,-8.3242,-8.414,-8.5078,-8.625,-8.7304,-8.8203,-8.9062,-8.9726,-9.0117,-9.1367,-9.2499,-9.3348,-9.5001,-9.6269,-9.7011,-9.6738,-9.6503,-9.6503,-9.4825,-9.3615,-9.3146,-9.2717,-9.2482,-9.2482,-9.2514,-9.2514,-9.2482,-9.2822,-9.3002,-9.3029,-9.3593,-9.3804,-9.324,-9.3386,-9.3801,-9.4171,-9.445,-9.4904,-9.5682,-9.6201,-9.6288,-9.6288,-9.5634,-9.5326,-9.6095,-9.598,-9.5749,-9.5711,-9.6095,-9.6519,-9.6903,-9.7365,-9.8134,-9.925,-9.9481,-9.9865,-10.0558,-10.075,-10.0866,-10.1289,-10.1289,-10.1289,-10.1289,-10.1289,-10.1289,-10.1327,-10.1635,-10.1827,-8.75,-8.7422,-8.6797,-8.6367,-8.6133,-8.5273,-8.5,-8.5195,-8.5179,-8.5283,-8.5405,-8.4881,-8.4922,-8.5586,-8.6445,-8.7031,-8.7461,-8.7913,-8.7855,-8.7392,-8.6559,-8.6015,-8.5781,-8.5742,-8.6203,-8.6867,-8.619,-8.6347,-8.7212,-8.6705,-8.6627,-8.7056,-8.69,-8.6471,-8.5846,-8.6471,-8.6236,-8.5065,-8.3604,-8.3193,-8.3867,-8.3906,-8.3594,-8.3047,-8.4179,-8.4648,-8.4258,-8.5039,-8.6211,-8.7656,-8.8125,-8.8945,-9.0234,-9.1133,-9.1601,-9.1719,-9.3047,-9.4375,-9.5429,-9.6665,-9.75,-9.7689,-9.7682,-9.7597,-9.7284,-9.5567,-9.4005,-9.3224,-9.299,-9.2756,-9.26,-9.2717,-9.2795,-9.2834,-9.3576,-9.4012,-9.3977,-9.4628,-9.4963,-9.462,-9.466,-9.5029,-9.5489,-9.5519,-9.5708,-9.6328,-9.6497,-9.6365,-9.6326,-9.6288,-9.6326,-9.648,-9.6442,-9.6365,-9.6557,-9.7019,-9.7557,-9.7904,-9.8596,-9.9365,-10.0096,-10.0366,-10.0558,-10.1135,-10.125,-10.125,-10.1289,-10.1289,-10.1289,-10.1289,-10.1289,-10.1289,-10.1327,-10.1981,-10.2251,-8.75,-8.75,-8.7383,-8.6914,-8.6133,-8.5312,-8.539,-8.6015,-8.6054,-8.6562,-8.6914,-8.4765,-8.5078,-8.6836,-8.582,-8.6094,-8.7383,-8.6758,-8.6836,-8.7344,-8.6601,-8.6953,-8.8164,-8.8281,-8.882,-8.9366,-8.8657,-8.7954,-8.7564,-8.7368,-8.6939,-8.6197,-8.5456,-8.5104,-8.4987,-8.5104,-8.5377,-8.5924,-8.5065,-8.4628,-8.4765,-8.4804,-8.4726,-8.4687,-8.4844,-8.5273,-8.5898,-8.6797,-8.7695,-8.8633,-9.0078,-9.0976,-9.125,-9.1992,-9.2461,-9.25,-9.3398,-9.457,-9.6094,-9.6445,-9.691,-9.7602,-9.7695,-9.7401,-9.6699,-9.6308,-9.5801,-9.4903,-9.4122,-9.338,-9.2678,-9.3224,-9.3654,-9.3732,-9.4473,-9.4973,-9.5044,-9.5754,-9.5876,-9.4885,-9.5533,-9.5914,-9.5846,-9.58,-9.5995,-9.6532,-9.6603,-9.6515,-9.6399,-9.6438,-9.6671,-9.7019,-9.6826,-9.6749,-9.725,-9.7442,-9.8211,-9.9404,-9.9865,-10.0289,-10.0827,-10.1096,-10.1289,-10.1443,-10.1327,-10.1327,-10.1404,-10.1289,-10.1289,-10.1327,-10.1327,-10.1366,-10.1404,-10.2135,-10.2366,-8.7273,-8.7229,-8.719,-8.7006,-8.6637,-8.6256,-8.6343,-8.667,-8.6678,-8.6878,-8.6995,-8.5512,-8.583,-8.7422,-8.6719,-8.6836,-8.7422,-8.6601,-8.6679,-8.7383,-8.6601,-8.707,-8.8554,-8.8672,-8.9137,-8.9935,-8.9639,-8.9281,-8.8891,-8.8422,-8.772,-8.6939,-8.651,-8.608,-8.5651,-8.608,-8.6275,-8.608,-8.6275,-8.6327,-8.6307,-8.5896,-8.5429,-8.5117,-8.6328,-8.707,-8.7109,-8.8242,-8.9375,-9.0195,-9.0937,-9.1523,-9.2031,-9.2422,-9.2578,-9.2695,-9.3906,-9.539,-9.707,-9.7187,-9.7343,-9.7693,-9.768,-9.7544,-9.7206,-9.7167,-9.6816,-9.5918,-9.5059,-9.4395,-9.4083,-9.4356,-9.4552,-9.4708,-9.5332,-9.5879,-9.5879,-9.6621,-9.6956,-9.6607,-9.6841,-9.7015,-9.6876,-9.6732,-9.6719,-9.6849,-9.6841,-9.6731,-9.6558,-9.6911,-9.7273,-9.7477,-9.7596,-9.7904,-9.825,-9.875,-9.9327,-9.9942,-10.0519,-10.1019,-10.1173,-10.1289,-10.1443,-10.1943,-10.1635,-10.1635,-10.2058,-10.1558,-10.1289,-10.1443,-10.1866,-10.2058,-10.2058,-10.3135,-10.352,-8.7103,-8.7016,-8.6994,-8.7131,-8.733,-8.7347,-8.7345,-8.7359,-8.7351,-8.7228,-8.6955,-8.6333,-8.6533,-8.7237,-8.7118,-8.7141,-8.7304,-8.6758,-8.6836,-8.7422,-8.7001,-8.7617,-8.8916,-8.9232,-8.9779,-9.0459,-9.0391,-9.0196,-8.9984,-8.9398,-8.8735,-8.8188,-8.811,-8.7681,-8.6978,-8.7486,-8.7329,-8.6588,-8.7095,-8.7407,-8.7336,-8.7053,-8.6482,-8.5859,-8.7578,-8.8515,-8.8281,-8.957,-9.0742,-9.1601,-9.164,-9.1953,-9.2539,-9.2578,-9.2812,-9.3359,-9.4726,-9.6172,-9.7578,-9.7695,-9.7695,-9.7695,-9.7691,-9.7676,-9.7689,-9.7675,-9.744,-9.6855,-9.6152,-9.5723,-9.5137,-9.5332,-9.5449,-9.5488,-9.623,-9.6738,-9.6816,-9.7362,-9.7675,-9.7675,-9.755,-9.7675,-9.7667,-9.7472,-9.731,-9.713,-9.7069,-9.7159,-9.713,-9.7625,-9.8006,-9.8247,-9.8865,-9.9135,-9.9211,-9.9519,-10.0096,-10.0519,-10.0981,-10.1212,-10.1289,-10.1289,-10.1327,-10.1673,-10.1597,-10.1673,-10.1943,-10.1635,-10.1904,-10.2097,-10.252,-10.2828,-10.252,-10.3828,-10.4135,-8.7023,-8.7049,-8.701,-8.7526,-8.8262,-8.8234,-8.8246,-8.8222,-8.8197,-8.7771,-8.7075,-8.692,-8.6958,-8.6979,-8.6288,-8.6324,-8.7148,-8.7109,-8.7187,-8.75,-8.7988,-8.8829,-8.9785,-9.0457,-9.1236,-9.1873,-9.1353,-9.0702,-9.0094,-8.9984,-8.9945,-8.9828,-8.975,-8.9359,-8.8579,-8.8501,-8.8188,-8.7368,-8.7368,-8.7407,-8.7486,-8.8156,-8.8065,-8.7422,-8.8242,-8.914,-8.9844,-9.0742,-9.164,-9.25,-9.2461,-9.2539,-9.2578,-9.2617,-9.3359,-9.4883,-9.5898,-9.6758,-9.7539,-9.7695,-9.7695,-9.7695,-9.7695,-9.7689,-9.7578,-9.7565,-9.7518,-9.7558,-9.7323,-9.6699,-9.5606,-9.5996,-9.6308,-9.6386,-9.7089,-9.7518,-9.7597,-9.7597,-9.7675,-9.7675,-9.7675,-9.7675,-9.7675,-9.7675,-9.7533,-9.7396,-9.7316,-9.7513,-9.8008,-9.8259,-9.8922,-9.9772,-10.0172,-10.025,-10.0096,-10.0212,-10.0519,-10.0866,-10.1096,-10.1289,-10.1289,-10.1327,-10.1366,-10.1558,-10.1866,-10.1981,-10.1827,-10.2212,-10.2981,-10.3366,-10.3482,-10.3597,-10.3058,-10.3482,-10.3982,-8.8466,-8.8389,-8.8416,-8.8609,-8.8841,-8.8864,-8.8875,-8.8787,-8.8273,-8.7886,-8.7499,-8.6996,-8.6726,-8.6726,-8.6421,-8.6573,-8.7028,-8.7074,-8.7109,-8.7187,-8.7428,-8.8284,-8.9599,-8.9964,-9.0807,-9.1937,-9.1878,-9.1309,-9.0574,-9.053,-9.0274,-8.9935,-8.9883,-8.9477,-8.8813,-8.8696,-8.8266,-8.7486,-8.7407,-8.7407,-8.7525,-8.8227,-8.8552,-8.8334,-8.9606,-9.0508,-9.082,-9.1679,-9.2265,-9.2578,-9.2578,-9.2578,-9.2656,-9.3125,-9.4219,-9.582,-9.6328,-9.6836,-9.7578,-9.7695,-9.7695,-9.7695,-9.7695,-9.7461,-9.6984,-9.6852,-9.6875,-9.6862,-9.6855,-9.666,-9.6933,-9.7089,-9.7245,-9.7284,-9.7479,-9.7675,-9.7675,-9.7675,-9.7675,-9.7675,-9.7675,-9.7675,-9.7675,-9.7675,-9.7667,-9.7641,-9.801,-9.8369,-9.864,-9.9374,-10.027,-10.0624,-10.1142,-10.1404,-10.1135,-10.0981,-10.1019,-10.1135,-10.1289,-10.1289,-10.1289,-10.1289,-10.1366,-10.175,-10.2135,-10.2251,-10.2097,-10.2366,-10.3212,-10.2943,-10.3251,-10.3943,-10.3597,-10.4174,-10.4751,-8.9279,-8.9201,-8.919,-8.9345,-8.9577,-8.956,-8.9571,-8.9483,-8.8671,-8.8196,-8.7809,-8.6996,-8.661,-8.661,-8.661,-8.6687,-8.692,-8.7195,-8.7383,-8.7468,-8.7929,-8.8776,-8.9792,-9.014,-9.0856,-9.1911,-9.2092,-9.1763,-9.1292,-9.1223,-9.0975,-9.056,-9.0598,-9.0204,-8.9532,-8.9235,-8.8696,-8.7993,-8.7837,-8.7837,-8.7954,-8.8969,-8.9555,-8.9756,-9.0959,-9.156,-9.1328,-9.2148,-9.2578,-9.2578,-9.2578,-9.2734,-9.3047,-9.4101,-9.5234,-9.6367,-9.6758,-9.7109,-9.7578,-9.7695,-9.7695,-9.7695,-9.7695,-9.7422,-9.6875,-9.6793,-9.67,-9.6517,-9.6425,-9.6621,-9.6816,-9.705,-9.7362,-9.7597,-9.7675,-9.7675,-9.7675,-9.7675,-9.7675,-9.7675,-9.7675,-9.7675,-9.7675,-9.7675,-9.7831,-9.8026,-9.869,-9.9007,-9.9656,-10.049,-10.1371,-10.1386,-10.1807,-10.1997,-10.1774,-10.1543,-10.125,-10.1366,-10.1366,-10.1366,-10.1327,-10.1327,-10.1443,-10.1943,-10.2212,-10.2327,-10.2481,-10.2635,-10.2481,-10.2174,-10.302,-10.402,-10.4289,-10.4943,-10.5251,-8.9279,-8.9356,-8.924,-8.977,-9.0389,-9.0439,-9.0411,-9.0295,-8.9472,-8.866,-8.8002,-8.7035,-8.6648,-8.6687,-8.6764,-8.6687,-8.7023,-8.7769,-8.8064,-8.8234,-8.9526,-9.0273,-9.0544,-9.1058,-9.1488,-9.1882,-9.2016,-9.2073,-9.1956,-9.1935,-9.1897,-9.1987,-9.2011,-9.1544,-9.0924,-9.0265,-8.9594,-8.8891,-8.8696,-8.8696,-8.8891,-9.0257,-9.1077,-9.1233,-9.2021,-9.2165,-9.1445,-9.2148,-9.2578,-9.2578,-9.2578,-9.3008,-9.3945,-9.539,-9.6445,-9.664,-9.7265,-9.7656,-9.7695,-9.7695,-9.7695,-9.7695,-9.7695,-9.7617,-9.7422,-9.7422,-9.7105,-9.6412,-9.6237,-9.6113,-9.5645,-9.6074,-9.6777,-9.7518,-9.7597,-9.7675,-9.7675,-9.7675,-9.7675,-9.7675,-9.7675,-9.7675,-9.7714,-9.7831,-9.8143,-9.869,-9.9172,-9.979,-10.0907,-10.1476,-10.189,-10.2146,-10.2201,-10.2048,-10.2057,-10.1981,-10.1697,-10.152,-10.1443,-10.1481,-10.1443,-10.1404,-10.1366,-10.1712,-10.1943,-10.2097,-10.2404,-10.2558,-10.2712,-10.2674,-10.3597,-10.4059,-10.4405,-10.4789,-10.529,-9.0942,-9.0903,-9.0903,-9.1019,-9.129,-9.129,-9.129,-9.1135,-8.982,-8.9047,-8.8544,-8.7228,-8.6919,-8.7422,-8.7499,-8.7809,-8.8389,-8.8725,-8.8571,-8.835,-8.9174,-8.9986,-9.0478,-9.071,-9.1124,-9.167,-9.1799,-9.1824,-9.1849,-9.181,-9.1859,-9.1975,-9.209,-9.1742,-9.108,-9.0929,-9.0492,-8.9711,-8.9594,-8.9594,-8.9672,-9.0726,-9.1311,-9.1389,-9.2092,-9.2379,-9.22,-9.2457,-9.2578,-9.2617,-9.2617,-9.3281,-9.4687,-9.5859,-9.6719,-9.7265,-9.7539,-9.7695,-9.7695,-9.7695,-9.7695,-9.7695,-9.7695,-9.7383,-9.6953,-9.6875,-9.6484,-9.5742,-9.5558,-9.5527,-9.5957,-9.623,-9.6542,-9.6777,-9.7323,-9.7675,-9.7675,-9.7675,-9.7675,-9.7675,-9.7675,-9.7675,-9.7831,-9.8065,-9.8651,-9.9094,-9.9976,-10.1043,-10.1527,-10.2129,-10.2181,-10.2027,-10.1942,-10.1836,-10.1604,-10.1573,-10.1514,-10.1413,-10.1434,-10.1588,-10.1555,-10.1558,-10.152,-10.1481,-10.1673,-10.1866,-10.2212,-10.2366,-10.2481,-10.2866,-10.3366,-10.3712,-10.3982,-10.452,-10.5213,-9.1716,-9.1716,-9.1716,-9.1716,-9.1716,-9.1716,-9.1716,-9.1522,-9.0246,-8.9665,-8.9356,-8.8196,-8.7847,-8.8312,-8.8389,-8.866,-8.9163,-8.919,-8.9074,-8.8892,-8.9328,-9.0102,-9.0759,-9.0903,-9.1135,-9.16,-9.1716,-9.1716,-9.1716,-9.1716,-9.1759,-9.1835,-9.1957,-9.1864,-9.1417,-9.1231,-9.0898,-9.0523,-9.0492,-9.0492,-9.0648,-9.1311,-9.1741,-9.1819,-9.2248,-9.2678,-9.2951,-9.2798,-9.2771,-9.3125,-9.3633,-9.4609,-9.5664,-9.6484,-9.7187,-9.7539,-9.7695,-9.7695,-9.7695,-9.7695,-9.7695,-9.7695,-9.7695,-9.75,-9.7031,-9.6875,-9.6445,-9.5429,-9.5187,-9.5202,-9.5378,-9.5762,-9.5996,-9.6386,-9.7206,-9.7636,-9.7675,-9.7675,-9.7675,-9.7675,-9.7675,-9.7675,-9.787,-9.8455,-9.9126,-9.9575,-10.0694,-10.1835,-10.2058,-10.2535,-10.2265,-10.2031,-10.2148,-10.1758,-10.1015,-10.1026,-10.125,-10.1259,-10.1284,-10.1541,-10.1727,-10.1786,-10.1789,-10.1558,-10.1597,-10.152,-10.175,-10.1866,-10.202,-10.2558,-10.3058,-10.3405,-10.3789,-10.4751,-10.5482,-9.161,-9.1677,-9.1716,-9.1677,-9.1677,-9.1716,-9.1716,-9.1561,-9.0749,-9.0323,-9.013,-8.9356,-8.9124,-8.9201,-8.924,-8.9395,-8.9356,-8.9201,-8.9693,-9.0118,-9.0323,-9.0605,-9.1445,-9.1561,-9.16,-9.1677,-9.1716,-9.1716,-9.1716,-9.1716,-9.1716,-9.1732,-9.1843,-9.1957,-9.1875,-9.1403,-9.1231,-9.1328,-9.1336,-9.1343,-9.1389,-9.2131,-9.2561,-9.26,-9.2756,-9.3185,-9.3693,-9.3439,-9.327,-9.3906,-9.5117,-9.5976,-9.6484,-9.7187,-9.7656,-9.7695,-9.7695,-9.7695,-9.7695,-9.7695,-9.7695,-9.7695,-9.7695,-9.7695,-9.7578,-9.7461,-9.6953,-9.5625,-9.539,-9.5072,-9.4649,-9.4942,-9.5723,-9.6464,-9.7245,-9.7636,-9.7682,-9.7682,-9.7675,-9.7675,-9.7675,-9.7753,-9.787,-9.8651,-9.9485,-10.0288,-10.1172,-10.2031,-10.2539,-10.2695,-10.2422,-10.2226,-10.2109,-10.1562,-10.082,-10.039,-10.0664,-10.1291,-10.1211,-10.1289,-10.1719,-10.1894,-10.1943,-10.1712,-10.1481,-10.1366,-10.1366,-10.152,-10.175,-10.2135,-10.2597,-10.302,-10.3905,-10.502,-10.5905,-9.0921,-9.1462,-9.1581,-9.1638,-9.1638,-9.1677,-9.1716,-9.16,-9.0787,-9.0478,-9.0246,-8.9549,-8.9588,-9.0052,-9.0091,-9.04,-9.0555,-8.9754,-9.0052,-9.097,-9.0014,-9.045,-9.1484,-9.1716,-9.1716,-9.1716,-9.1716,-9.1716,-9.1716,-9.1716,-9.1716,-9.1716,-9.181,-9.1928,-9.1877,-9.1819,-9.191,-9.2039,-9.2011,-9.2091,-9.2287,-9.299,-9.3419,-9.3497,-9.4044,-9.4434,-9.4825,-9.5183,-9.4469,-9.3164,-9.4609,-9.5547,-9.582,-9.6953,-9.7695,-9.7695,-9.7695,-9.7695,-9.7695,-9.7695,-9.7695,-9.7695,-9.7695,-9.7695,-9.7695,-9.7695,-9.7187,-9.6367,-9.6133,-9.5973,-9.5782,-9.5925,-9.6464,-9.7206,-9.7558,-9.7689,-9.7701,-9.7689,-9.7675,-9.7675,-9.7714,-9.8026,-9.8572,-9.9392,-10.0259,-10.1098,-10.1875,-10.2461,-10.2695,-10.2695,-10.2344,-10.1914,-10.1601,-10.1172,-10.0625,-10.0078,-10.0195,-10.1094,-10.1133,-10.0898,-10.1367,-10.1833,-10.1863,-10.1743,-10.1597,-10.1443,-10.1327,-10.1366,-10.1635,-10.1827,-10.2674,-10.3405,-10.4482,-10.5559,-10.6482,-9.0975,-9.14,-9.1492,-9.1504,-9.1494,-9.161,-9.1649,-9.1561,-9.1174,-9.0942,-9.0826,-9.0478,-9.0516,-9.0903,-9.0942,-9.1213,-9.1484,-9.0334,-9.0478,-9.1279,-9.071,-9.0875,-9.1561,-9.1687,-9.1687,-9.1716,-9.1687,-9.1687,-9.1687,-9.1687,-9.1687,-9.1716,-9.1759,-9.1824,-9.1905,-9.1954,-9.2091,-9.2206,-9.2263,-9.249,-9.2983,-9.3497,-9.4005,-9.4278,-9.4864,-9.5098,-9.5215,-9.5918,-9.5519,-9.4453,-9.5273,-9.625,-9.6328,-9.7109,-9.7695,-9.7695,-9.7695,-9.7695,-9.7695,-9.7695,-9.7695,-9.7695,-9.7695,-9.7695,-9.7695,-9.7695,-9.7383,-9.6601,-9.6484,-9.6445,-9.6469,-9.6719,-9.7148,-9.7555,-9.7695,-9.7695,-9.7676,-9.7706,-9.7695,-9.776,-9.8026,-9.8377,-9.9002,-10.0063,-10.0922,-10.16,-10.2296,-10.2422,-10.2383,-10.2383,-10.2148,-10.1562,-10.1094,-10.0664,-10.0508,-10.0117,-9.9961,-10.0742,-10.1445,-10.1094,-10.1445,-10.1997,-10.1911,-10.1858,-10.1704,-10.1481,-10.1366,-10.1327,-10.1443,-10.1904,-10.2866,-10.3789,-10.4789,-10.579,-10.6713,-9.1291,-9.1368,-9.1368,-9.1385,-9.1397,-9.1522,-9.1591,-9.1638,-9.1571,-9.1638,-9.16,-9.1677,-9.1406,-9.16,-9.1251,-9.1445,-9.1262,-9.0334,-9.0653,-9.1146,-9.1272,-9.1504,-9.1581,-9.1629,-9.1591,-9.162,-9.16,-9.1629,-9.1591,-9.1561,-9.1629,-9.1659,-9.162,-9.1732,-9.1849,-9.1859,-9.1972,-9.2073,-9.2176,-9.251,-9.3096,-9.3543,-9.4029,-9.4552,-9.5176,-9.5371,-9.5567,-9.6081,-9.6144,-9.5351,-9.6797,-9.7226,-9.7422,-9.7539,-9.7695,-9.7695,-9.7695,-9.7695,-9.7695,-9.7695,-9.7695,-9.7695,-9.7695,-9.7695,-9.7695,-9.7695,-9.7461,-9.6836,-9.664,-9.6679,-9.6757,-9.7286,-9.7559,-9.7689,-9.7676,-9.7706,-9.7676,-9.7684,-9.7676,-9.776,-9.8455,-9.8924,-9.9517,-10.0454,-10.1625,-10.2011,-10.2578,-10.2578,-10.2461,-10.2422,-10.1797,-10.0898,-10.0508,-10.0156,-10.0117,-10.0117,-10.0156,-10.0469,-10.1484,-10.1719,-10.2031,-10.2324,-10.2183,-10.2034,-10.1778,-10.152,-10.1366,-10.1366,-10.1481,-10.1943,-10.2866,-10.3789,-10.4713,-10.5713,-10.6713,-9.0625,-9.1241,-9.1308,-9.1308,-9.1308,-9.1406,-9.1492,-9.1571,-9.162,-9.1659,-9.1687,-9.1716,-9.1329,-9.071,-9.0721,-9.0295,-8.9774,-8.9542,-8.9754,-9.0499,-9.1207,-9.1392,-9.1462,-9.1492,-9.1531,-9.1462,-9.1431,-9.1431,-9.1431,-9.1539,-9.15,-9.1638,-9.1716,-9.1659,-9.1771,-9.1759,-9.1799,-9.1928,-9.1975,-9.219,-9.2674,-9.338,-9.3915,-9.4349,-9.541,-9.6074,-9.6269,-9.6972,-9.6992,-9.6509,-9.6562,-9.6953,-9.7031,-9.7422,-9.7656,-9.7695,-9.7695,-9.7695,-9.7695,-9.7695,-9.7695,-9.7695,-9.7695,-9.7695,-9.7695,-9.7695,-9.7617,-9.7422,-9.7461,-9.7265,-9.7265,-9.75,-9.7695,-9.7695,-9.7695,-9.7695,-9.7695,-9.7695,-9.7687,-9.7935,-9.8541,-9.9289,-9.9932,-10.0897,-10.1845,-10.2416,-10.2656,-10.2773,-10.2578,-10.2344,-10.1601,-10.0625,-10.0508,-10.0273,-10.0273,-10.0469,-10.0781,-10.0859,-10.1601,-10.2039,-10.2395,-10.241,-10.2165,-10.2019,-10.1863,-10.1635,-10.1327,-10.1789,-10.1981,-10.2443,-10.2943,-10.3982,-10.4982,-10.5867,-10.7059,-9.0402,-9.1171,-9.1245,-9.1245,-9.1283,-9.1308,-9.1406,-9.147,-9.15,-9.1531,-9.1561,-9.1561,-9.1059,-9.0325,-9.0247,-8.9832,-8.9252,-8.9377,-8.9786,-9.0321,-9.0967,-9.111,-9.0796,-9.0905,-9.1014,-9.1291,-9.1336,-9.1368,-9.1445,-9.1753,-9.2062,-9.2118,-9.2048,-9.2157,-9.2084,-9.1852,-9.1705,-9.1799,-9.1859,-9.2105,-9.2676,-9.3584,-9.4718,-9.5317,-9.6386,-9.6933,-9.7089,-9.7401,-9.7409,-9.7148,-9.7012,-9.7025,-9.707,-9.7461,-9.7656,-9.7695,-9.7695,-9.7695,-9.7695,-9.7695,-9.7695,-9.7695,-9.7695,-9.7695,-9.7695,-9.7695,-9.7695,-9.7617,-9.7383,-9.7109,-9.7187,-9.7578,-9.7656,-9.7695,-9.7695,-9.7695,-9.7695,-9.7695,-9.7889,-9.8305,-9.9106,-9.9999,-10.0819,-10.1488,-10.2031,-10.2656,-10.2617,-10.2656,-10.1875,-10.164,-10.1367,-10.0781,-10.0664,-10.0586,-10.0547,-10.0859,-10.1523,-10.1719,-10.2109,-10.2251,-10.2267,-10.2205,-10.2058,-10.1905,-10.1751,-10.152,-10.1404,-10.1943,-10.2404,-10.2635,-10.3251,-10.4328,-10.552,-10.6751,-10.7982,-9.0402,-9.121,-9.121,-9.121,-9.121,-9.1241,-9.1279,-9.1322,-9.138,-9.1406,-9.14,-9.14,-9.0891,-9.0126,-8.9933,-8.947,-8.9007,-8.9176,-8.9426,-8.9863,-9.0325,-9.0317,-8.9965,-8.996,-9.0268,-9.1066,-9.1,-9.1072,-9.1457,-9.1997,-9.2074,-9.2371,-9.2376,-9.2216,-9.2273,-9.1986,-9.1659,-9.1705,-9.1799,-9.2067,-9.272,-9.3589,-9.4762,-9.6224,-9.682,-9.7212,-9.7425,-9.7628,-9.762,-9.7675,-9.7675,-9.7706,-9.7691,-9.7695,-9.7695,-9.7695,-9.7695,-9.7695,-9.7695,-9.7695,-9.7695,-9.7695,-9.7695,-9.7695,-9.7695,-9.7695,-9.7695,-9.7539,-9.7265,-9.6914,-9.6758,-9.7304,-9.7656,-9.7695,-9.7695,-9.7695,-9.7734,-9.7773,-9.8281,-9.8827,-9.9558,-10.0371,-10.1187,-10.1914,-10.2344,-10.2695,-10.2617,-10.2422,-10.1719,-10.1289,-10.1211,-10.1445,-10.1523,-10.1172,-10.1054,-10.0898,-10.1601,-10.1837,-10.2211,-10.2174,-10.2058,-10.1866,-10.175,-10.1712,-10.1558,-10.1443,-10.1673,-10.2327,-10.2674,-10.2828,-10.3597,-10.4751,-10.6136,-10.7675,-10.8675,-9.0402,-9.121,-9.121,-9.121,-9.121,-9.1171,-9.1248,-9.1287,-9.1283,-9.1347,-9.1368,-9.1361,-9.0481,-8.947,-8.9123,-8.8583,-8.7974,-8.8072,-8.843,-8.8902,-8.9248,-8.9167,-8.9013,-8.8936,-8.9359,-8.9936,-9.0206,-9.0475,-9.1125,-9.1399,-9.1775,-9.1611,-9.165,-9.1721,-9.1824,-9.16,-9.1629,-9.1784,-9.186,-9.2069,-9.2393,-9.2891,-9.3861,-9.5547,-9.6291,-9.6842,-9.7377,-9.7533,-9.7572,-9.7706,-9.7675,-9.7695,-9.7684,-9.7693,-9.7695,-9.7695,-9.7695,-9.7695,-9.7695,-9.7695,-9.7695,-9.7695,-9.7695,-9.7695,-9.7695,-9.7656,-9.7656,-9.7578,-9.7539,-9.7461,-9.75,-9.7578,-9.7656,-9.7695,-9.7695,-9.7695,-9.7812,-9.8242,-9.875,-9.9179,-9.9922,-10.0697,-10.1554,-10.2148,-10.2304,-10.2265,-10.1953,-10.2109,-10.1953,-10.1719,-10.164,-10.207,-10.2578,-10.2109,-10.1601,-10.1328,-10.1418,-10.1439,-10.1674,-10.1905,-10.175,-10.152,-10.1404,-10.1481,-10.1597,-10.1558,-10.202,-10.2597,-10.3097,-10.3366,-10.4251,-10.5174,-10.6367,-10.7521,-10.8252,-9.0402,-9.1171,-9.121,-9.121,-9.121,-9.121,-9.121,-9.1248,-9.1248,-9.1245,-9.1121,-9.0807,-8.996,-8.892,-8.8265,-8.761,-8.7038,-8.7275,-8.7627,-8.8055,-8.8474,-8.8397,-8.8094,-8.8017,-8.8556,-8.9056,-8.9325,-9.0017,-9.1133,-9.171,-9.1745,-9.1934,-9.1895,-9.1934,-9.1891,-9.165,-9.1809,-9.2033,-9.2248,-9.2499,-9.2992,-9.3362,-9.4511,-9.5558,-9.6203,-9.6804,-9.7188,-9.7461,-9.7511,-9.7581,-9.7675,-9.7689,-9.7706,-9.7684,-9.7693,-9.7695,-9.7695,-9.7695,-9.7695,-9.7695,-9.7695,-9.7695,-9.7695,-9.7695,-9.7695,-9.7656,-9.7539,-9.7304,-9.7539,-9.75,-9.707,-9.7461,-9.7656,-9.7695,-9.7695,-9.7695,-9.789,-9.8554,-9.9101,-9.9648,-10.0547,-10.1406,-10.2105,-10.2422,-10.2304,-10.1953,-10.1367,-10.1523,-10.1914,-10.1836,-10.1679,-10.2422,-10.2812,-10.2344,-10.1914,-10.1719,-10.1326,-10.1212,-10.1327,-10.152,-10.1558,-10.1404,-10.1366,-10.1404,-10.1481,-10.1558,-10.1827,-10.2251,-10.3058,-10.3905,-10.4636,-10.5405,-10.6367,-10.729,-10.8136,-9.0441,-9.121,-9.121,-9.121,-9.1171,-9.0979,-9.0902,-9.0902,-9.071,-9.0594,-9.0594,-8.9979,-8.921,-8.8363,-8.7555,-8.6748,-8.617,-8.6896,-8.7055,-8.7248,-8.7704,-8.7704,-8.7325,-8.7286,-8.7709,-8.8709,-8.8825,-8.9556,-9.1018,-9.171,-9.2133,-9.2018,-9.2172,-9.2287,-9.2018,-9.1583,-9.1991,-9.2473,-9.2866,-9.3321,-9.4191,-9.5033,-9.5835,-9.6628,-9.686,-9.7006,-9.7185,-9.7284,-9.7408,-9.7494,-9.7611,-9.7659,-9.7675,-9.7701,-9.7684,-9.7695,-9.7695,-9.7695,-9.7695,-9.7695,-9.7695,-9.7695,-9.7695,-9.7695,-9.7695,-9.7656,-9.7461,-9.6992,-9.7226,-9.75,-9.7148,-9.7344,-9.7617,-9.7695,-9.7695,-9.7812,-9.8242,-9.8867,-9.9804,-10.0469,-10.1328,-10.1797,-10.2226,-10.1289,-10.0898,-10.0859,-10.0312,-10.082,-10.1172,-10.1328,-10.1484,-10.2422,-10.2773,-10.2383,-10.2109,-10.207,-10.1548,-10.0981,-10.1212,-10.1481,-10.1443,-10.1327,-10.1327,-10.1366,-10.1366,-10.1443,-10.1673,-10.2251,-10.3366,-10.4251,-10.4866,-10.5713,-10.6828,-10.7713,-10.8521,-9.0441,-9.121,-9.121,-9.121,-9.1095,-9.0406,-9.0094,-9.0013,-8.9402,-8.9017,-8.921,-8.8902,-8.8363,-8.7517,-8.6709,-8.6247,-8.6209,-8.6247,-8.6401,-8.6478,-8.6594,-8.6632,-8.6324,-8.6247,-8.7401,-8.8517,-8.8748,-8.9671,-9.0902,-9.1402,-9.1364,-9.1364,-9.1441,-9.1402,-9.1518,-9.1429,-9.1869,-9.2589,-9.2943,-9.3466,-9.4307,-9.512,-9.5574,-9.5922,-9.6396,-9.6822,-9.689,-9.7028,-9.7227,-9.7474,-9.7538,-9.7572,-9.7667,-9.7675,-9.7676,-9.7695,-9.7695,-9.7695,-9.7695,-9.7695,-9.7695,-9.7695,-9.7695,-9.7695,-9.7695,-9.7695,-9.7617,-9.7617,-9.7695,-9.7656,-9.7461,-9.7617,-9.7695,-9.7695,-9.7695,-9.8125,-9.8633,-9.9258,-10.0195,-10.0937,-10.1679,-10.1719,-10.1914,-10.0547,-9.9375,-9.9375,-9.957,-10.0195,-10.0781,-10.1211,-10.1523,-10.25,-10.2812,-10.2461,-10.207,-10.207,-10.1708,-10.0941,-10.1135,-10.1404,-10.1366,-10.1289,-10.1289,-10.1327,-10.1289,-10.1481,-10.1827,-10.2635,-10.3828,-10.452,-10.4982,-10.6097,-10.7405,-10.8175,-10.8867,-9.0864,-9.121,-9.121,-9.121,-9.1095,-9.029,-8.9902,-8.9739,-8.9085,-8.8705,-8.8556,-8.8132,-8.7478,-8.6709,-8.6209,-8.6094,-8.6094,-8.6094,-8.6094,-8.6094,-8.6094,-8.6094,-8.6286,-8.6632,-8.7594,-8.844,-8.9248,-9.0017,-9.0864,-9.1095,-9.1018,-9.0598,-9.0979,-9.1248,-9.121,-9.1279,-9.2151,-9.3206,-9.4103,-9.4849,-9.5429,-9.5584,-9.5506,-9.5506,-9.6319,-9.6474,-9.6348,-9.6812,-9.7065,-9.7316,-9.7433,-9.7561,-9.7667,-9.7695,-9.7672,-9.7695,-9.7695,-9.7695,-9.7695,-9.7695,-9.7695,-9.7695,-9.7695,-9.7695,-9.7695,-9.7695,-9.7695,-9.7695,-9.7695,-9.7695,-9.7695,-9.7695,-9.7695,-9.7695,-9.7695,-9.832,-9.8984,-9.9765,-10.0508,-10.1289,-10.1914,-10.1914,-10.1992,-10.1562,-10.0781,-10.0664,-10.0742,-10.1133,-10.1719,-10.2187,-10.2461,-10.2734,-10.2773,-10.2578,-10.2148,-10.1906,-10.166,-10.1161,-10.1135,-10.1327,-10.1327,-10.1289,-10.1289,-10.1289,-10.1289,-10.1558,-10.1981,-10.2635,-10.352,-10.4289,-10.5059,-10.6136,-10.7251,-10.829,-10.8983,-9.0902,-9.0902,-9.0864,-9.0902,-9.0752,-8.9752,-8.9248,-8.9123,-8.8353,-8.8012,-8.7902,-8.7363,-8.6709,-8.6209,-8.6132,-8.6094,-8.6094,-8.6094,-8.6094,-8.6094,-8.6094,-8.6094,-8.6247,-8.6786,-8.7555,-8.8671,-8.8748,-8.9517,-9.021,-9.0671,-9.0594,-9.0213,-9.0941,-9.1171,-9.121,-9.136,-9.2083,-9.3792,-9.4837,-9.5593,-9.6057,-9.5709,-9.54,-9.5477,-9.5825,-9.6203,-9.5739,-9.6085,-9.6625,-9.7207,-9.7333,-9.7474,-9.7659,-9.7701,-9.7706,-9.7706,-9.7687,-9.7695,-9.7695,-9.7695,-9.7695,-9.7695,-9.7695,-9.7695,-9.7695,-9.7695,-9.7695,-9.7695,-9.7695,-9.7695,-9.7695,-9.7695,-9.7695,-9.7695,-9.7695,-9.8398,-9.9101,-9.9883,-10.0859,-10.1875,-10.2304,-10.2187,-10.2304,-10.2617,-10.2422,-10.2109,-10.2109,-10.2109,-10.2422,-10.2812,-10.289,-10.289,-10.2851,-10.2695,-10.2461,-10.2031,-10.1679,-10.1407,-10.1364,-10.1327,-10.1327,-10.1327,-10.1289,-10.1289,-10.1289,-10.1404,-10.1635,-10.2366,-10.3135,-10.4059,-10.4982,-10.5867,-10.6905,-10.8021,-10.8867,-9.0017,-9.0017,-8.9979,-8.9944,-8.9867,-8.8221,-8.7637,-8.7704,-8.6781,-8.644,-8.6517,-8.6286,-8.6247,-8.6132,-8.6094,-8.6094,-8.6094,-8.6094,-8.6094,-8.6094,-8.6094,-8.6094,-8.6247,-8.6594,-8.7209,-8.8248,-8.8556,-8.8671,-8.8979,-9.0017,-9.0441,-9.1056,-9.1056,-9.1133,-9.1287,-9.1476,-9.2199,-9.3676,-9.4682,-9.5176,-9.5447,-9.5254,-9.4974,-9.4588,-9.5052,-9.5545,-9.5438,-9.5536,-9.6075,-9.6935,-9.703,-9.7369,-9.7581,-9.7662,-9.7701,-9.7706,-9.7687,-9.7695,-9.7695,-9.7695,-9.7695,-9.7695,-9.7695,-9.7695,-9.7695,-9.7695,-9.7695,-9.7695,-9.7695,-9.7695,-9.7695,-9.7695,-9.7695,-9.7695,-9.789,-9.8633,-9.9297,-9.9922,-10.0976,-10.2304,-10.2695,-10.2539,-10.25,-10.2773,-10.2578,-10.2187,-10.2265,-10.2265,-10.2578,-10.289,-10.289,-10.289,-10.289,-10.2851,-10.2812,-10.2461,-10.207,-10.1775,-10.1665,-10.1443,-10.1327,-10.1327,-10.1289,-10.1289,-10.1289,-10.1289,-10.152,-10.2558,-10.3443,-10.4097,-10.4866,-10.5674,-10.6751,-10.7982,-10.8521,-8.9171,-8.9133,-8.8594,-8.8671,-8.906,-8.7906,-8.7406,-8.7281,-8.6478,-8.6094,-8.6094,-8.6094,-8.6094,-8.6094,-8.6094,-8.6094,-8.6094,-8.6094,-8.6094,-8.6094,-8.6094,-8.6094,-8.6324,-8.6978,-8.7863,-8.8094,-8.8363,-8.8671,-8.8825,-8.944,-8.9906,-9.0406,-9.0902,-9.1171,-9.1287,-9.1707,-9.2541,-9.2955,-9.3662,-9.4025,-9.4489,-9.4133,-9.3814,-9.3591,-9.424,-9.4346,-9.4114,-9.4501,-9.5274,-9.6011,-9.6371,-9.6887,-9.7446,-9.7571,-9.7701,-9.7662,-9.765,-9.7617,-9.7656,-9.7656,-9.7695,-9.7695,-9.7695,-9.7695,-9.7695,-9.7695,-9.7695,-9.7695,-9.7695,-9.7695,-9.7695,-9.7695,-9.7695,-9.7695,-9.8086,-9.8828,-9.957,-10.0195,-10.1133,-10.25,-10.2812,-10.2812,-10.2812,-10.289,-10.2578,-10.2226,-10.2344,-10.2461,-10.2734,-10.289,-10.289,-10.289,-10.289,-10.289,-10.289,-10.2656,-10.2422,-10.2148,-10.1886,-10.1633,-10.1404,-10.1327,-10.1289,-10.1289,-10.1289,-10.1289,-10.1789,-10.2943,-10.3674,-10.4059,-10.4636,-10.5328,-10.6559,-10.7829,-10.7944,-8.8325,-8.8209,-8.7401,-8.7517,-8.8171,-8.7368,-8.7017,-8.6901,-8.6363,-8.6094,-8.6094,-8.6094,-8.6094,-8.6094,-8.6094,-8.6094,-8.6094,-8.6094,-8.6094,-8.6094,-8.6094,-8.6094,-8.6517,-8.7017,-8.744,-8.7632,-8.8017,-8.8363,-8.8748,-8.9286,-8.9479,-8.9863,-9.0594,-9.1095,-9.1437,-9.2049,-9.2695,-9.2888,-9.2866,-9.3462,-9.4196,-9.3523,-9.3079,-9.3089,-9.3611,-9.3611,-9.3379,-9.3678,-9.4342,-9.5189,-9.5827,-9.639,-9.6937,-9.7433,-9.765,-9.7633,-9.7488,-9.734,-9.7344,-9.7578,-9.7539,-9.7304,-9.7617,-9.7656,-9.7695,-9.7695,-9.7695,-9.7695,-9.7695,-9.7695,-9.7695,-9.7695,-9.7695,-9.7695,-9.8203,-9.8906,-9.9883,-10.0625,-10.1601,-10.2656,-10.2773,-10.289,-10.289,-10.289,-10.2773,-10.2539,-10.2578,-10.2695,-10.2773,-10.289,-10.289,-10.289,-10.289,-10.289,-10.289,-10.2734,-10.2578,-10.2187,-10.192,-10.1672,-10.1481,-10.1366,-10.1289,-10.1289,-10.1289,-10.1289,-10.1673,-10.2327,-10.3097,-10.3828,-10.4751,-10.5944,-10.6097,-10.7175,-10.6944,-8.7401,-8.7325,-8.6517,-8.6671,-8.7291,-8.6517,-8.617,-8.6132,-8.6055,-8.6017,-8.6094,-8.6094,-8.6094,-8.6094,-8.6094,-8.6094,-8.6094,-8.6094,-8.6094,-8.6094,-8.6094,-8.6094,-8.6209,-8.6517,-8.7017,-8.7094,-8.7286,-8.7709,-8.844,-8.8594,-8.8671,-8.9171,-9.0094,-9.1095,-9.1248,-9.2122,-9.2931,-9.34,-9.2839,-9.3605,-9.3978,-9.3308,-9.3012,-9.2837,-9.2915,-9.2876,-9.2837,-9.2837,-9.3529,-9.438,-9.5185,-9.5719,-9.6174,-9.6939,-9.7284,-9.7369,-9.6823,-9.6578,-9.6523,-9.7226,-9.7265,-9.7031,-9.7461,-9.7656,-9.7695,-9.7695,-9.7695,-9.7695,-9.7695,-9.7695,-9.7695,-9.7695,-9.7695,-9.7851,-9.8359,-9.9101,-10.0039,-10.0937,-10.1836,-10.2617,-10.2812,-10.289,-10.289,-10.289,-10.289,-10.2851,-10.289,-10.289,-10.289,-10.289,-10.289,-10.289,-10.289,-10.289,-10.289,-10.289,-10.2734,-10.2304,-10.198,-10.1743,-10.152,-10.1366,-10.1289,-10.1289,-10.1289,-10.1289,-10.1327,-10.1443,-10.2558,-10.3828,-10.5713,-10.6751,-10.6674,-10.6367,-10.6174,-8.6055,-8.6517,-8.6209,-8.6247,-8.6478,-8.6247,-8.5824,-8.5357,-8.5324,-8.5593,-8.6017,-8.6094,-8.6094,-8.6094,-8.6094,-8.6094,-8.6094,-8.6094,-8.6094,-8.6094,-8.6094,-8.6094,-8.6209,-8.6517,-8.6748,-8.6671,-8.6632,-8.6671,-8.6901,-8.7594,-8.7863,-8.8286,-8.9671,-9.0559,-9.1095,-9.1591,-9.1861,-9.2091,-9.2276,-9.2723,-9.2795,-9.2775,-9.2634,-9.2296,-9.2296,-9.2257,-9.2296,-9.2335,-9.27,-9.3452,-9.4207,-9.4674,-9.5143,-9.5923,-9.6074,-9.6191,-9.5957,-9.6456,-9.6484,-9.6836,-9.707,-9.7187,-9.7461,-9.7695,-9.7695,-9.7695,-9.7695,-9.7695,-9.7695,-9.7695,-9.7695,-9.7695,-9.7734,-9.789,-9.8398,-9.9258,-10.0156,-10.1015,-10.1875,-10.2539,-10.289,-10.289,-10.289,-10.289,-10.289,-10.2812,-10.2773,-10.2851,-10.289,-10.289,-10.289,-10.289,-10.289,-10.289,-10.289,-10.289,-10.2695,-10.2265,-10.199,-10.1826,-10.1597,-10.1366,-10.1289,-10.1289,-10.1289,-10.1289,-10.1366,-10.1597,-10.2597,-10.3982,-10.529,-10.6367,-10.6405,-10.5905,-10.5482,-8.4939,-8.5632,-8.5363,-8.544,-8.5709,-8.5978,-8.578,-8.528,-8.5055,-8.5363,-8.594,-8.5824,-8.5863,-8.6017,-8.6094,-8.6094,-8.6094,-8.6094,-8.6094,-8.6094,-8.6094,-8.6094,-8.6324,-8.6594,-8.6478,-8.6363,-8.6555,-8.6748,-8.6824,-8.7171,-8.7825,-8.8632,-8.929,-9.0364,-9.0941,-9.1248,-9.1518,-9.1748,-9.2165,-9.231,-9.2454,-9.2473,-9.245,-9.2432,-9.2296,-9.187,-9.1986,-9.2025,-9.1948,-9.2587,-9.3092,-9.3588,-9.4217,-9.473,-9.5013,-9.5332,-9.5235,-9.5567,-9.5508,-9.5937,-9.6328,-9.707,-9.7461,-9.7656,-9.7695,-9.7695,-9.7695,-9.7695,-9.7695,-9.7695,-9.7695,-9.7695,-9.7734,-9.789,-9.8789,-9.9648,-10.0273,-10.1133,-10.2148,-10.2734,-10.289,-10.289,-10.289,-10.289,-10.289,-10.2773,-10.2617,-10.2695,-10.2773,-10.2695,-10.2734,-10.2773,-10.2773,-10.2773,-10.2812,-10.289,-10.2617,-10.2187,-10.199,-10.1866,-10.1558,-10.1289,-10.1289,-10.1289,-10.1289,-10.1327,-10.1443,-10.1866,-10.2404,-10.2981,-10.3751,-10.4789,-10.5713,-10.5405,-10.4751,-8.4055,-8.467,-8.3939,-8.4132,-8.4901,-8.5555,-8.5857,-8.5851,-8.5164,-8.5286,-8.5978,-8.5247,-8.5324,-8.594,-8.6017,-8.594,-8.6017,-8.6017,-8.6094,-8.6094,-8.6094,-8.6094,-8.6094,-8.617,-8.6209,-8.617,-8.6247,-8.6632,-8.7171,-8.7094,-8.794,-8.8979,-8.9133,-8.9863,-9.0441,-9.0941,-9.1325,-9.1672,-9.1937,-9.2203,-9.2541,-9.2409,-9.2767,-9.2896,-9.2799,-9.2528,-9.2489,-9.2335,-9.1948,-9.2199,-9.271,-9.3104,-9.3671,-9.444,-9.4801,-9.4832,-9.4348,-9.4171,-9.4726,-9.539,-9.5937,-9.6875,-9.7383,-9.7578,-9.7695,-9.7695,-9.7695,-9.7695,-9.7695,-9.7695,-9.7695,-9.7695,-9.7695,-9.8398,-9.9297,-9.9961,-10.0469,-10.1367,-10.2422,-10.289,-10.289,-10.289,-10.289,-10.289,-10.289,-10.2695,-10.25,-10.2265,-10.2265,-10.2187,-10.2226,-10.2461,-10.2539,-10.2617,-10.2617,-10.2539,-10.2226,-10.1679,-10.1912,-10.1827,-10.1558,-10.1289,-10.1289,-10.1289,-10.1289,-10.1327,-10.1404,-10.1481,-10.1712,-10.2251,-10.2751,-10.3635,-10.4751,-10.4366,-10.3789,-8.317,-8.3901,-8.3708,-8.3747,-8.401,-8.4241,-8.4356,-8.4279,-8.4055,-8.4439,-8.5209,-8.5016,-8.4939,-8.5247,-8.5247,-8.5286,-8.5478,-8.5786,-8.6017,-8.6094,-8.6094,-8.6094,-8.6094,-8.6094,-8.6094,-8.6094,-8.6132,-8.6247,-8.6401,-8.6555,-8.6671,-8.7094,-8.8325,-8.8902,-8.9556,-9.0056,-9.0864,-9.1479,-9.1818,-9.2088,-9.2618,-9.2673,-9.3068,-9.3118,-9.3302,-9.307,-9.2915,-9.2683,-9.2296,-9.203,-9.2226,-9.2498,-9.2554,-9.3025,-9.338,-9.409,-9.3723,-9.3633,-9.5234,-9.539,-9.5742,-9.6836,-9.7539,-9.7617,-9.7695,-9.7695,-9.7695,-9.7695,-9.7695,-9.7695,-9.7695,-9.7695,-9.7812,-9.8398,-9.9375,-10.0195,-10.0781,-10.1719,-10.2695,-10.289,-10.289,-10.289,-10.289,-10.289,-10.2851,-10.2656,-10.2344,-10.1953,-10.1679,-10.1523,-10.1601,-10.1836,-10.1836,-10.1797,-10.1836,-10.1797,-10.1523,-10.1254,-10.1523,-10.1712,-10.1481,-10.1289,-10.1289,-10.1289,-10.1289,-10.1289,-10.1327,-10.1404,-10.152,-10.1443,-10.1866,-10.2789,-10.3482,-10.3289,-10.3135,-8.2324,-8.2978,-8.2747,-8.2593,-8.2593,-8.2522,-8.2561,-8.2631,-8.2939,-8.3555,-8.4286,-8.3978,-8.4055,-8.4439,-8.4676,-8.4873,-8.495,-8.5676,-8.606,-8.6065,-8.6022,-8.6094,-8.6094,-8.6094,-8.6094,-8.6094,-8.6094,-8.6132,-8.617,-8.6517,-8.6709,-8.694,-8.7709,-8.8517,-8.9363,-9.0171,-9.0748,-9.1283,-9.1626,-9.1698,-9.2107,-9.2589,-9.275,-9.3118,-9.3379,-9.3224,-9.334,-9.307,-9.2373,-9.2119,-9.2282,-9.2091,-9.216,-9.2401,-9.2678,-9.327,-9.3093,-9.3586,-9.4765,-9.5234,-9.6015,-9.6875,-9.75,-9.7695,-9.7695,-9.7695,-9.7695,-9.7695,-9.7695,-9.7695,-9.7695,-9.7734,-9.7969,-9.8242,-9.9297,-10.039,-10.125,-10.2148,-10.2578,-10.2851,-10.289,-10.289,-10.289,-10.289,-10.2656,-10.2148,-10.1523,-10.0859,-10.0703,-10.0625,-10.0781,-10.1015,-10.0937,-10.082,-10.0937,-10.1133,-10.1058,-10.1006,-10.1191,-10.1289,-10.125,-10.1289,-10.1289,-10.1289,-10.1289,-10.1289,-10.1289,-10.1289,-10.1366,-10.1289,-10.1289,-10.1943,-10.2597,-10.2789,-10.2674,-8.1516,-8.217,-8.14,-8.1246,-8.1131,-8.1106,-8.1145,-8.1177,-8.1939,-8.2708,-8.3247,-8.2708,-8.2862,-8.3516,-8.3951,-8.4302,-8.4648,-8.5262,-8.5839,-8.5923,-8.5829,-8.5863,-8.6055,-8.6017,-8.594,-8.6017,-8.6094,-8.6094,-8.6286,-8.6517,-8.6863,-8.7401,-8.8517,-8.921,-8.9479,-9.0248,-9.0787,-9.1171,-9.139,-9.1457,-9.1483,-9.1732,-9.2093,-9.2702,-9.2731,-9.2605,-9.3273,-9.2963,-9.2141,-9.2432,-9.2471,-9.213,-9.2249,-9.2362,-9.2546,-9.2645,-9.2658,-9.3263,-9.4098,-9.4648,-9.5547,-9.6367,-9.7109,-9.7383,-9.7461,-9.7656,-9.7695,-9.7695,-9.7695,-9.7695,-9.7695,-9.7773,-9.7929,-9.8594,-9.957,-10.0547,-10.1406,-10.2187,-10.2734,-10.289,-10.289,-10.289,-10.289,-10.289,-10.2578,-10.1836,-10.1015,-10.0195,-9.9687,-9.9726,-9.9883,-10.0117,-9.9804,-9.9765,-10.0312,-10.0508,-10.0664,-10.074,-10.0904,-10.0981,-10.0981,-10.1096,-10.1289,-10.1289,-10.1289,-10.1289,-10.1289,-10.1289,-10.1289,-10.1289,-10.1289,-10.1289,-10.1635,-10.2097,-10.2135,-8.1208,-8.1362,-8.117,-8.1093,-8.1093,-8.1061,-8.1074,-8.1124,-8.126,-8.1862,-8.2477,-8.2401,-8.2362,-8.2599,-8.288,-8.3231,-8.3961,-8.4624,-8.5389,-8.5535,-8.5483,-8.5401,-8.5786,-8.5363,-8.5555,-8.594,-8.6094,-8.6094,-8.617,-8.6363,-8.6478,-8.6555,-8.7786,-8.8594,-8.9171,-8.9979,-9.0671,-9.1171,-9.1241,-9.1226,-9.1245,-9.2033,-9.2711,-9.2963,-9.2915,-9.2992,-9.3302,-9.2953,-9.2296,-9.2108,-9.2148,-9.2191,-9.2393,-9.2468,-9.2561,-9.26,-9.2606,-9.3087,-9.3688,-9.4291,-9.5039,-9.5781,-9.6445,-9.6836,-9.7187,-9.75,-9.7695,-9.7656,-9.7695,-9.7695,-9.7734,-9.7812,-9.8125,-9.8984,-9.9844,-10.0703,-10.1562,-10.2187,-10.2851,-10.289,-10.289,-10.289,-10.289,-10.2656,-10.2383,-10.1719,-10.0859,-10.0039,-9.914,-9.8828,-9.8906,-9.8984,-9.8515,-9.8594,-9.9336,-9.9765,-9.9883,-10.0234,-10.0457,-10.0518,-10.0712,-10.1019,-10.1289,-10.1289,-10.1289,-10.1289,-10.1289,-10.1289,-10.1289,-10.1289,-10.1289,-10.1289,-10.1289,-10.1635,-10.1597,-8.1093,-8.1093,-8.1093,-8.1093,-8.1093,-8.1061,-8.1036,-8.108,-8.1068,-8.1292,-8.1708,-8.1785,-8.1753,-8.1798,-8.1968,-8.251,-8.3281,-8.3828,-8.4593,-8.4931,-8.4796,-8.4593,-8.4626,-8.4593,-8.4978,-8.5401,-8.594,-8.6094,-8.6055,-8.6132,-8.617,-8.6324,-8.7209,-8.8171,-8.8863,-8.9748,-9.0633,-9.1171,-9.1164,-9.1,-9.0905,-9.1616,-9.1938,-9.2151,-9.2141,-9.2489,-9.2827,-9.2489,-9.2141,-9.2018,-9.2244,-9.226,-9.2393,-9.2482,-9.2522,-9.2522,-9.2639,-9.2951,-9.3556,-9.4083,-9.4647,-9.5508,-9.6133,-9.664,-9.6758,-9.707,-9.7383,-9.7422,-9.7656,-9.7695,-9.789,-9.8047,-9.8789,-9.9648,-10.0508,-10.1367,-10.2031,-10.2578,-10.289,-10.289,-10.289,-10.289,-10.2773,-10.2304,-10.1875,-10.1015,-10.0234,-9.9453,-9.8633,-9.8203,-9.8242,-9.8164,-9.789,-9.8125,-9.9023,-9.9179,-9.9062,-9.9414,-10.0,-10.0509,-10.0901,-10.1097,-10.1289,-10.1289,-10.1289,-10.1289,-10.1289,-10.1289,-10.1289,-10.1289,-10.1289,-10.1289,-10.1289,-10.1289,-10.1366,-8.1093,-8.1093,-8.1093,-8.1093,-8.1093,-8.0991,-8.0991,-8.1061,-8.0991,-8.0991,-8.117,-8.117,-8.0991,-8.1195,-8.1517,-8.2326,-8.2904,-8.3102,-8.3714,-8.4128,-8.3759,-8.3824,-8.374,-8.3587,-8.4055,-8.4709,-8.5401,-8.567,-8.5786,-8.594,-8.6209,-8.6478,-8.744,-8.8632,-8.9056,-8.9979,-9.0902,-9.0787,-9.0629,-9.0394,-9.0532,-9.0813,-9.0866,-9.0653,-9.0516,-9.129,-9.1782,-9.1909,-9.1677,-9.1928,-9.2299,-9.2362,-9.2432,-9.2522,-9.2522,-9.2522,-9.2522,-9.2951,-9.3426,-9.3601,-9.4562,-9.5508,-9.5976,-9.6133,-9.6172,-9.6367,-9.6679,-9.6953,-9.7187,-9.7422,-9.7656,-9.8398,-9.9258,-10.0039,-10.0898,-10.1836,-10.2383,-10.2773,-10.2734,-10.2773,-10.289,-10.289,-10.2422,-10.1953,-10.1211,-10.0312,-9.9492,-9.8672,-9.8086,-9.7969,-9.7929,-9.7929,-9.7812,-9.8203,-9.8672,-9.8867,-9.8711,-9.9179,-9.9795,-10.0522,-10.1087,-10.1173,-10.1289,-10.1289,-10.1289,-10.125,-10.1289,-10.1289,-10.1289,-10.125,-10.1289,-10.1289,-10.1289,-10.1289,-10.1289,-8.1093,-8.1093,-8.1093,-8.1054,-8.0977,-8.1023,-8.1016,-8.0977,-8.1023,-8.1093,-8.1093,-8.1093,-8.1029,-8.0888,-8.0796,-8.1413,-8.2329,-8.2411,-8.2868,-8.3435,-8.2874,-8.3086,-8.3195,-8.2932,-8.317,-8.3901,-8.4709,-8.5055,-8.5555,-8.5901,-8.6132,-8.6209,-8.7786,-8.8363,-8.8017,-8.9094,-9.0171,-9.0056,-8.9671,-8.9282,-8.9431,-8.9793,-9.0334,-9.0315,-9.04,-9.1086,-9.1511,-9.1627,-9.1677,-9.1837,-9.2099,-9.2269,-9.2471,-9.2567,-9.2567,-9.2574,-9.2567,-9.2685,-9.3003,-9.3042,-9.3906,-9.4492,-9.4726,-9.4609,-9.4687,-9.4883,-9.5234,-9.5586,-9.5859,-9.6133,-9.6601,-9.8086,-9.9101,-9.9804,-10.0586,-10.164,-10.25,-10.2344,-10.2187,-10.2461,-10.2812,-10.2461,-10.1953,-10.1367,-10.0703,-9.9883,-9.9219,-9.8437,-9.789,-9.7773,-9.7656,-9.7734,-9.7734,-9.7695,-9.7929,-9.8633,-9.8789,-9.9179,-9.9601,-10.0229,-10.0782,-10.1135,-10.125,-10.1058,-10.1135,-10.1173,-10.1212,-10.1058,-10.1135,-10.1096,-10.125,-10.1289,-10.1212,-10.1058,-10.0827]}]]